Time,TemperatureF,DewpointF,PressureIn,WindDirection,WindDirectionDegrees,WindSpeedMPH,WindSpeedGustMPH,Humidity,HourlyPrecipIn,Conditions,Clouds,dailyrainin,SoftwareType,DateUTC
2013-04-25 00:00:00,48.6,23.5,25.60,SSE,158,6.3,7.4,37,0.00,,---,0.00,VWS V14.01,2013-04-25 05:00:00,
2013-04-25 00:01:00,48.6,23.5,25.60,SSE,158,5.8,6.3,37,0.00,,---,0.00,VWS V14.01,2013-04-25 05:01:00,
2013-04-25 00:02:00,48.6,23.5,25.60,SE,135,4.3,5.8,37,0.00,,---,0.00,VWS V14.01,2013-04-25 05:02:00,
2013-04-25 00:03:00,48.6,23.5,25.60,SSE,158,5.6,5.6,37,0.00,,---,0.00,VWS V14.01,2013-04-25 05:03:00,
2013-04-25 00:04:00,48.6,23.5,25.60,SE,135,5.6,5.6,37,0.00,,---,0.00,VWS V14.01,2013-04-25 05:04:00,
2013-04-25 00:05:00,48.4,23.3,25.60,SE,135,4.0,5.6,37,0.00,,---,0.00,VWS V14.01,2013-04-25 05:05:00,
2013-04-25 00:06:00,48.4,23.3,25.60,ESE,112,4.0,4.0,37,0.00,,---,0.00,VWS V14.01,2013-04-25 05:06:00,
2013-04-25 00:07:00,48.4,23.3,25.60,SE,135,4.0,4.0,37,0.00,,---,0.00,VWS V14.01,2013-04-25 05:07:00,
2013-04-25 00:08:00,48.2,23.2,25.60,SSE,158,3.6,4.3,37,0.00,,---,0.00,VWS V14.01,2013-04-25 05:08:00,
2013-04-25 00:09:00,48.2,23.2,25.60,SSE,158,4.3,4.3,37,0.00,,---,0.00,VWS V14.01,2013-04-25 05:09:00,
2013-04-25 00:10:00,48.2,23.2,25.60,SSE,158,4.0,5.4,37,0.00,,---,0.00,VWS V14.01,2013-04-25 05:10:00,
2013-04-25 00:11:00,48.4,23.3,25.60,SSE,158,3.4,4.3,37,0.00,,---,0.00,VWS V14.01,2013-04-25 05:11:00,
2013-04-25 00:12:00,48.4,23.3,25.60,SE,135,3.8,4.0,37,0.00,,---,0.00,VWS V14.01,2013-04-25 05:12:00,
2013-04-25 00:13:00,48.4,23.3,25.60,SE,135,4.3,4.3,37,0.00,,---,0.00,VWS V14.01,2013-04-25 05:13:00,
2013-04-25 00:14:00,48.4,23.3,25.60,SE,135,4.3,4.3,37,0.00,,---,0.00,VWS V14.01,2013-04-25 05:14:00,
2013-04-25 00:15:00,48.2,23.2,25.60,SE,135,3.8,4.3,37,0.00,,---,0.00,VWS V14.01,2013-04-25 05:15:00,
2013-04-25 00:16:00,48.2,23.2,25.60,SE,135,3.6,4.7,37,0.00,,---,0.00,VWS V14.01,2013-04-25 05:16:00,
2013-04-25 00:17:00,48.2,23.2,25.60,SE,135,3.4,3.4,37,0.00,,---,0.00,VWS V14.01,2013-04-25 05:17:00,
2013-04-25 00:18:00,48.0,23.6,25.60,SE,135,5.4,5.6,38,0.00,,---,0.00,VWS V14.01,2013-04-25 05:18:00,
2013-04-25 00:19:00,48.0,23.6,25.60,SE,135,4.9,5.4,38,0.00,,---,0.00,VWS V14.01,2013-04-25 05:19:00,
2013-04-25 00:20:00,48.0,23.6,25.60,SE,135,3.1,3.6,38,0.00,,---,0.00,VWS V14.01,2013-04-25 05:20:00,
2013-04-25 00:21:00,48.0,23.6,25.60,SSE,158,3.8,3.8,38,0.00,,---,0.00,VWS V14.01,2013-04-25 05:21:00,
2013-04-25 00:22:00,48.0,23.6,25.60,SSE,158,4.9,5.8,38,0.00,,---,0.00,VWS V14.01,2013-04-25 05:22:00,
2013-04-25 00:23:00,48.0,23.6,25.60,SE,135,3.6,5.8,38,0.00,,---,0.00,VWS V14.01,2013-04-25 05:23:00,
2013-04-25 00:24:00,48.0,23.6,25.57,SSE,158,4.3,4.3,38,0.00,,---,0.00,VWS V14.01,2013-04-25 05:24:00,
2013-04-25 00:25:00,48.0,23.6,25.57,SSE,158,3.4,4.7,38,0.00,,---,0.00,VWS V14.01,2013-04-25 05:25:00,
2013-04-25 00:26:00,48.0,23.6,25.57,SE,135,2.7,3.6,38,0.00,,---,0.00,VWS V14.01,2013-04-25 05:26:00,
2013-04-25 00:27:00,48.0,23.6,25.57,SSE,158,4.9,5.4,38,0.00,,---,0.00,VWS V14.01,2013-04-25 05:27:00,
2013-04-25 00:28:00,48.0,23.6,25.57,SE,135,3.6,4.9,38,0.00,,---,0.00,VWS V14.01,2013-04-25 05:28:00,
2013-04-25 00:29:00,48.0,23.6,25.57,SE,135,5.6,5.6,38,0.00,,---,0.00,VWS V14.01,2013-04-25 05:29:00,
2013-04-25 00:30:00,48.0,24.3,25.57,South,180,4.7,6.0,39,0.00,,---,0.00,VWS V14.01,2013-04-25 05:30:00,
2013-04-25 00:31:00,48.0,24.3,25.57,SE,135,3.1,5.6,39,0.00,,---,0.00,VWS V14.01,2013-04-25 05:31:00,
2013-04-25 00:32:00,48.0,24.3,25.57,SE,135,3.8,4.0,39,0.00,,---,0.00,VWS V14.01,2013-04-25 05:32:00,
2013-04-25 00:33:00,48.0,24.3,25.57,SSE,158,3.6,3.8,39,0.00,,---,0.00,VWS V14.01,2013-04-25 05:33:00,
2013-04-25 00:34:00,47.8,24.1,25.57,SE,135,3.1,3.1,39,0.00,,---,0.00,VWS V14.01,2013-04-25 05:34:00,
2013-04-25 00:35:00,47.8,24.1,25.57,SE,135,2.7,3.4,39,0.00,,---,0.00,VWS V14.01,2013-04-25 05:35:00,
2013-04-25 00:36:00,47.7,23.3,25.57,SSE,158,2.7,2.9,38,0.00,,---,0.00,VWS V14.01,2013-04-25 05:36:00,
2013-04-25 00:37:00,47.5,23.2,25.57,SSE,158,3.6,3.8,38,0.00,,---,0.00,VWS V14.01,2013-04-25 05:37:00,
2013-04-25 00:38:00,47.3,23.0,25.57,South,180,2.9,3.6,38,0.00,,---,0.00,VWS V14.01,2013-04-25 05:38:00,
2013-04-25 00:39:00,47.3,23.0,25.57,South,180,2.5,3.4,38,0.00,,---,0.00,VWS V14.01,2013-04-25 05:39:00,
2013-04-25 00:40:00,47.3,23.0,25.57,SSE,158,2.9,2.9,38,0.00,,---,0.00,VWS V14.01,2013-04-25 05:40:00,
2013-04-25 00:41:00,47.1,22.8,25.57,South,180,2.5,3.1,38,0.00,,---,0.00,VWS V14.01,2013-04-25 05:41:00,
2013-04-25 00:42:00,47.1,23.5,25.57,SE,135,2.5,2.5,39,0.00,,---,0.00,VWS V14.01,2013-04-25 05:42:00,
2013-04-25 00:43:00,47.1,23.5,25.57,SE,135,2.5,2.5,39,0.00,,---,0.00,VWS V14.01,2013-04-25 05:43:00,
2013-04-25 00:44:00,46.9,23.3,25.57,SE,135,3.4,3.8,39,0.00,,---,0.00,VWS V14.01,2013-04-25 05:44:00,
2013-04-25 00:46:00,46.9,23.3,25.57,ESE,112,4.5,4.5,39,0.00,,---,0.00,VWS V14.01,2013-04-25 05:46:00,
2013-04-25 00:47:00,46.6,23.0,25.57,SE,135,5.8,5.8,39,0.00,,---,0.00,VWS V14.01,2013-04-25 05:47:00,
2013-04-25 00:48:00,46.4,22.8,25.57,ESE,112,6.0,6.0,39,0.00,,---,0.00,VWS V14.01,2013-04-25 05:48:00,
2013-04-25 00:49:00,46.4,22.8,25.57,ESE,112,6.0,6.0,39,0.00,,---,0.00,VWS V14.01,2013-04-25 05:49:00,
2013-04-25 00:50:00,46.2,23.2,25.57,SE,135,4.9,6.0,40,0.00,,---,0.00,VWS V14.01,2013-04-25 05:50:00,
2013-04-25 00:51:00,46.2,23.2,25.57,SE,135,4.9,5.8,40,0.00,,---,0.00,VWS V14.01,2013-04-25 05:51:00,
2013-04-25 00:52:00,46.2,23.2,25.57,SE,135,5.4,5.8,40,0.00,,---,0.00,VWS V14.01,2013-04-25 05:52:00,
2013-04-25 00:53:00,46.4,23.4,25.57,ESE,112,5.4,5.6,40,0.00,,---,0.00,VWS V14.01,2013-04-25 05:53:00,
2013-04-25 00:54:00,46.4,23.4,25.60,ESE,112,6.3,6.3,40,0.00,,---,0.00,VWS V14.01,2013-04-25 05:54:00,
2013-04-25 00:55:00,46.2,23.2,25.60,ESE,112,6.7,6.7,40,0.00,,---,0.00,VWS V14.01,2013-04-25 05:55:00,
2013-04-25 00:56:00,46.2,23.2,25.60,ESE,112,6.7,6.7,40,0.00,,---,0.00,VWS V14.01,2013-04-25 05:56:00,
2013-04-25 00:57:00,46.2,23.2,25.60,ESE,112,6.0,6.7,40,0.00,,---,0.00,VWS V14.01,2013-04-25 05:57:00,
2013-04-25 00:58:00,46.0,23.1,25.60,SE,135,6.5,6.5,40,0.00,,---,0.00,VWS V14.01,2013-04-25 05:58:00,
2013-04-25 00:59:00,46.0,23.1,25.60,SE,135,6.0,6.5,40,0.00,,---,0.00,VWS V14.01,2013-04-25 05:59:00,
2013-04-25 01:00:00,46.0,23.1,25.60,ESE,112,7.2,7.2,40,0.00,,---,0.00,VWS V14.01,2013-04-25 06:00:00,
2013-04-25 01:01:00,45.9,22.9,25.60,ESE,112,6.0,7.2,40,0.00,,---,0.00,VWS V14.01,2013-04-25 06:01:00,
2013-04-25 01:02:00,45.9,22.9,25.60,SE,135,6.5,6.5,40,0.00,,---,0.00,VWS V14.01,2013-04-25 06:02:00,
2013-04-25 01:03:00,45.9,23.5,25.60,ESE,112,6.0,6.5,41,0.00,,---,0.00,VWS V14.01,2013-04-25 06:03:00,
2013-04-25 01:04:00,45.9,23.5,25.60,ESE,112,6.0,6.5,41,0.00,,---,0.00,VWS V14.01,2013-04-25 06:04:00,
2013-04-25 01:05:00,45.9,23.5,25.60,SE,135,5.8,6.5,41,0.00,,---,0.00,VWS V14.01,2013-04-25 06:05:00,
2013-04-25 01:06:00,45.9,23.5,25.60,ESE,112,6.3,6.5,41,0.00,,---,0.00,VWS V14.01,2013-04-25 06:06:00,
2013-04-25 01:07:00,45.9,23.5,25.60,SE,135,5.6,5.6,41,0.00,,---,0.00,VWS V14.01,2013-04-25 06:07:00,
2013-04-25 01:08:00,45.9,23.5,25.60,SE,135,4.9,5.6,41,0.00,,---,0.00,VWS V14.01,2013-04-25 06:08:00,
2013-04-25 01:09:00,45.9,24.1,25.57,ESE,112,4.3,5.4,42,0.00,,---,0.00,VWS V14.01,2013-04-25 06:09:00,
2013-04-25 01:10:00,45.9,24.1,25.57,SSE,158,4.0,5.4,42,0.00,,---,0.00,VWS V14.01,2013-04-25 06:10:00,
2013-04-25 01:11:00,45.9,24.1,25.57,SE,135,4.3,4.3,42,0.00,,---,0.00,VWS V14.01,2013-04-25 06:11:00,
2013-04-25 01:12:00,45.9,24.1,25.57,ESE,112,4.3,4.7,42,0.00,,---,0.00,VWS V14.01,2013-04-25 06:12:00,
2013-04-25 01:13:00,45.9,24.1,25.57,ESE,112,3.6,4.3,42,0.00,,---,0.00,VWS V14.01,2013-04-25 06:13:00,
2013-04-25 01:14:00,45.9,24.1,25.57,SSE,158,3.6,4.0,42,0.00,,---,0.00,VWS V14.01,2013-04-25 06:14:00,
2013-04-25 01:15:00,45.9,24.1,25.57,South,180,2.5,4.0,42,0.00,,---,0.00,VWS V14.01,2013-04-25 06:15:00,
2013-04-25 01:16:00,45.7,23.9,25.57,South,180,2.7,2.7,42,0.00,,---,0.00,VWS V14.01,2013-04-25 06:16:00,
2013-04-25 01:17:00,45.7,23.9,25.57,South,180,2.5,3.4,42,0.00,,---,0.00,VWS V14.01,2013-04-25 06:17:00,
2013-04-25 01:18:00,45.7,23.9,25.57,SSE,158,2.9,3.1,42,0.00,,---,0.00,VWS V14.01,2013-04-25 06:18:00,
2013-04-25 01:19:00,45.7,24.5,25.57,SE,135,3.8,4.7,43,0.00,,---,0.00,VWS V14.01,2013-04-25 06:19:00,
2013-04-25 01:20:00,45.7,24.5,25.57,SSE,158,3.8,4.3,43,0.00,,---,0.00,VWS V14.01,2013-04-25 06:20:00,
2013-04-25 01:21:00,45.7,25.0,25.57,SE,135,4.0,4.3,44,0.00,,---,0.00,VWS V14.01,2013-04-25 06:21:00,
2013-04-25 01:22:00,45.7,25.0,25.57,SE,135,4.3,4.3,44,0.00,,---,0.00,VWS V14.01,2013-04-25 06:22:00,
2013-04-25 01:23:00,45.9,25.2,25.57,SE,135,6.0,6.0,44,0.00,,---,0.00,VWS V14.01,2013-04-25 06:23:00,
2013-04-25 01:24:00,45.9,25.7,25.60,SE,135,3.8,6.0,45,0.00,,---,0.00,VWS V14.01,2013-04-25 06:24:00,
2013-04-25 01:25:00,45.9,25.7,25.60,SE,135,4.3,4.9,45,0.00,,---,0.00,VWS V14.01,2013-04-25 06:25:00,
2013-04-25 01:26:00,46.0,25.4,25.60,SE,135,5.6,5.6,44,0.00,,---,0.00,VWS V14.01,2013-04-25 06:26:00,
2013-04-25 01:27:00,46.0,25.4,25.60,ESE,112,4.3,5.6,44,0.00,,---,0.00,VWS V14.01,2013-04-25 06:27:00,
2013-04-25 01:28:00,45.9,25.2,25.60,ESE,112,4.9,4.9,44,0.00,,---,0.00,VWS V14.01,2013-04-25 06:28:00,
2013-04-25 01:29:00,45.7,24.5,25.60,ESE,112,4.5,5.4,43,0.00,,---,0.00,VWS V14.01,2013-04-25 06:29:00,
2013-04-25 01:30:00,45.7,24.5,25.60,SE,135,5.4,5.4,43,0.00,,---,0.00,VWS V14.01,2013-04-25 06:30:00,
2013-04-25 01:31:00,45.7,24.5,25.60,SE,135,6.0,6.0,43,0.00,,---,0.00,VWS V14.01,2013-04-25 06:31:00,
2013-04-25 01:33:00,45.7,24.5,25.60,SE,135,4.9,6.0,43,0.00,,---,0.00,VWS V14.01,2013-04-25 06:33:00,
2013-04-25 01:34:00,45.7,24.5,25.60,SSE,158,5.4,7.2,43,0.00,,---,0.00,VWS V14.01,2013-04-25 06:34:00,
2013-04-25 01:35:00,45.7,25.0,25.60,SE,135,5.6,5.6,44,0.00,,---,0.00,VWS V14.01,2013-04-25 06:35:00,
2013-04-25 01:36:00,45.7,25.0,25.60,SE,135,4.5,5.6,44,0.00,,---,0.00,VWS V14.01,2013-04-25 06:36:00,
2013-04-25 01:37:00,45.7,25.0,25.60,SE,135,4.0,4.0,44,0.00,,---,0.00,VWS V14.01,2013-04-25 06:37:00,
2013-04-25 01:38:00,45.7,25.0,25.60,SE,135,4.0,4.0,44,0.00,,---,0.00,VWS V14.01,2013-04-25 06:38:00,
2013-04-25 01:39:00,45.7,25.0,25.60,ESE,112,4.9,4.9,44,0.00,,---,0.00,VWS V14.01,2013-04-25 06:39:00,
2013-04-25 01:40:00,45.9,25.2,25.60,SE,135,5.8,5.8,44,0.00,,---,0.00,VWS V14.01,2013-04-25 06:40:00,
2013-04-25 01:41:00,45.9,25.2,25.60,ESE,112,4.3,5.8,44,0.00,,---,0.00,VWS V14.01,2013-04-25 06:41:00,
2013-04-25 01:42:00,45.9,25.2,25.60,ESE,112,4.3,4.3,44,0.00,,---,0.00,VWS V14.01,2013-04-25 06:42:00,
2013-04-25 01:43:00,45.9,24.6,25.60,ESE,112,4.3,5.6,43,0.00,,---,0.00,VWS V14.01,2013-04-25 06:43:00,
2013-04-25 01:44:00,45.7,24.5,25.60,ESE,112,4.3,4.9,43,0.00,,---,0.00,VWS V14.01,2013-04-25 06:44:00,
2013-04-25 01:45:00,45.7,24.5,25.60,ESE,112,4.3,4.3,43,0.00,,---,0.00,VWS V14.01,2013-04-25 06:45:00,
2013-04-25 01:46:00,45.5,24.3,25.60,ESE,112,4.3,4.7,43,0.00,,---,0.00,VWS V14.01,2013-04-25 06:46:00,
2013-04-25 01:47:00,45.5,24.3,25.60,ESE,112,4.0,4.0,43,0.00,,---,0.00,VWS V14.01,2013-04-25 06:47:00,
2013-04-25 01:48:00,45.5,24.3,25.60,ESE,112,5.6,5.6,43,0.00,,---,0.00,VWS V14.01,2013-04-25 06:48:00,
2013-04-25 01:49:00,45.1,24.0,25.60,ESE,112,5.8,6.0,43,0.00,,---,0.00,VWS V14.01,2013-04-25 06:49:00,
2013-04-25 01:50:00,45.1,24.0,25.60,ESE,112,6.5,6.5,43,0.00,,---,0.00,VWS V14.01,2013-04-25 06:50:00,
2013-04-25 01:51:00,45.0,23.8,25.60,ESE,112,4.9,4.9,43,0.00,,---,0.00,VWS V14.01,2013-04-25 06:51:00,
2013-04-25 01:52:00,45.0,23.8,25.60,ESE,112,5.4,5.4,43,0.00,,---,0.00,VWS V14.01,2013-04-25 06:52:00,
2013-04-25 01:53:00,44.8,23.7,25.60,ESE,112,4.0,5.4,43,0.00,,---,0.00,VWS V14.01,2013-04-25 06:53:00,
2013-04-25 01:54:00,44.8,23.7,25.60,ESE,112,4.3,5.4,43,0.00,,---,0.00,VWS V14.01,2013-04-25 06:54:00,
2013-04-25 01:55:00,44.6,23.5,25.60,ESE,112,5.8,5.8,43,0.00,,---,0.00,VWS V14.01,2013-04-25 06:55:00,
2013-04-25 01:56:00,44.6,23.5,25.60,ESE,112,5.8,5.8,43,0.00,,---,0.00,VWS V14.01,2013-04-25 06:56:00,
2013-04-25 01:57:00,44.4,23.3,25.60,ESE,112,4.0,5.8,43,0.00,,---,0.00,VWS V14.01,2013-04-25 06:57:00,
2013-04-25 01:58:00,44.4,23.3,25.60,ESE,112,5.6,5.6,43,0.00,,---,0.00,VWS V14.01,2013-04-25 06:58:00,
2013-04-25 01:59:00,44.2,23.2,25.60,ESE,112,5.8,6.0,43,0.00,,---,0.00,VWS V14.01,2013-04-25 06:59:00,
2013-04-25 02:00:00,44.2,23.2,25.60,ESE,112,6.0,6.0,43,0.00,,---,0.00,VWS V14.01,2013-04-25 07:00:00,
2013-04-25 02:01:00,44.2,23.2,25.60,ESE,112,6.5,6.5,43,0.00,,---,0.00,VWS V14.01,2013-04-25 07:01:00,
2013-04-25 02:02:00,44.2,23.2,25.60,ESE,112,6.5,6.5,43,0.00,,---,0.00,VWS V14.01,2013-04-25 07:02:00,
2013-04-25 02:03:00,44.2,23.2,25.60,ESE,112,4.9,6.5,43,0.00,,---,0.00,VWS V14.01,2013-04-25 07:03:00,
2013-04-25 02:05:00,44.2,23.7,25.60,SE,135,5.8,5.8,44,0.00,,---,0.00,VWS V14.01,2013-04-25 07:05:00,
2013-04-25 02:06:00,44.2,23.7,25.60,SE,135,5.4,5.8,44,0.00,,---,0.00,VWS V14.01,2013-04-25 07:06:00,
2013-04-25 02:07:00,44.1,23.6,25.60,ESE,112,5.8,5.8,44,0.00,,---,0.00,VWS V14.01,2013-04-25 07:07:00,
2013-04-25 02:08:00,44.1,23.6,25.60,ESE,112,5.6,5.8,44,0.00,,---,0.00,VWS V14.01,2013-04-25 07:08:00,
2013-04-25 02:09:00,44.1,23.6,25.60,SE,135,5.4,5.6,44,0.00,,---,0.00,VWS V14.01,2013-04-25 07:09:00,
2013-04-25 02:10:00,44.1,23.6,25.60,SE,135,5.6,5.8,44,0.00,,---,0.00,VWS V14.01,2013-04-25 07:10:00,
2013-04-25 02:11:00,44.1,23.6,25.60,SE,135,4.3,5.6,44,0.00,,---,0.00,VWS V14.01,2013-04-25 07:11:00,
2013-04-25 02:12:00,44.1,23.6,25.60,ESE,112,5.4,5.4,44,0.00,,---,0.00,VWS V14.01,2013-04-25 07:12:00,
2013-04-25 02:13:00,44.1,23.6,25.60,ESE,112,3.1,5.4,44,0.00,,---,0.00,VWS V14.01,2013-04-25 07:13:00,
2013-04-25 02:14:00,44.1,23.6,25.60,ESE,112,2.9,3.8,44,0.00,,---,0.00,VWS V14.01,2013-04-25 07:14:00,
2013-04-25 02:15:00,43.9,23.4,25.60,SSE,158,4.9,4.9,44,0.00,,---,0.00,VWS V14.01,2013-04-25 07:15:00,
2013-04-25 02:16:00,43.9,23.4,25.60,SSE,158,3.8,4.9,44,0.00,,---,0.00,VWS V14.01,2013-04-25 07:16:00,
2013-04-25 02:17:00,43.9,23.4,25.60,SSE,158,4.7,4.7,44,0.00,,---,0.00,VWS V14.01,2013-04-25 07:17:00,
2013-04-25 02:18:00,43.9,23.4,25.60,SSE,158,3.4,4.7,44,0.00,,---,0.00,VWS V14.01,2013-04-25 07:18:00,
2013-04-25 02:19:00,43.7,23.2,25.60,SSE,158,4.5,4.5,44,0.00,,---,0.00,VWS V14.01,2013-04-25 07:19:00,
2013-04-25 02:20:00,43.7,23.8,25.60,SE,135,4.3,4.9,45,0.00,,---,0.00,VWS V14.01,2013-04-25 07:20:00,
2013-04-25 02:21:00,43.7,23.8,25.60,SE,135,4.0,5.8,45,0.00,,---,0.00,VWS V14.01,2013-04-25 07:21:00,
2013-04-25 02:22:00,43.7,23.8,25.60,SSE,158,4.7,5.4,45,0.00,,---,0.00,VWS V14.01,2013-04-25 07:22:00,
2013-04-25 02:23:00,43.9,23.9,25.60,SSE,158,5.4,5.6,45,0.00,,---,0.00,VWS V14.01,2013-04-25 07:23:00,
2013-04-25 02:24:00,43.9,24.5,25.57,SE,135,4.3,6.3,46,0.00,,---,0.00,VWS V14.01,2013-04-25 07:24:00,
2013-04-25 02:25:00,43.9,23.9,25.57,ESE,112,4.3,4.7,45,0.00,,---,0.00,VWS V14.01,2013-04-25 07:25:00,
2013-04-25 02:26:00,44.1,24.6,25.57,SE,135,4.7,4.7,46,0.00,,---,0.00,VWS V14.01,2013-04-25 07:26:00,
2013-04-25 02:27:00,43.9,24.5,25.57,SE,135,3.4,4.7,46,0.00,,---,0.00,VWS V14.01,2013-04-25 07:27:00,
2013-04-25 02:28:00,43.9,24.5,25.57,ESE,112,3.4,3.4,46,0.00,,---,0.00,VWS V14.01,2013-04-25 07:28:00,
2013-04-25 02:29:00,43.9,25.0,25.57,SE,135,4.9,4.9,47,0.00,,---,0.00,VWS V14.01,2013-04-25 07:29:00,
2013-04-25 02:30:00,43.7,24.8,25.57,SE,135,5.8,5.8,47,0.00,,---,0.00,VWS V14.01,2013-04-25 07:30:00,
2013-04-25 02:31:00,43.7,25.3,25.57,ESE,112,6.5,6.5,48,0.00,,---,0.00,VWS V14.01,2013-04-25 07:31:00,
2013-04-25 02:32:00,43.9,25.5,25.57,ESE,112,6.5,7.6,48,0.00,,---,0.00,VWS V14.01,2013-04-25 07:32:00,
2013-04-25 02:33:00,44.1,26.1,25.57,SE,135,8.1,8.1,49,0.00,,---,0.00,VWS V14.01,2013-04-25 07:33:00,
2013-04-25 02:34:00,44.2,26.3,25.57,ESE,112,7.8,8.1,49,0.00,,---,0.00,VWS V14.01,2013-04-25 07:34:00,
2013-04-25 02:35:00,44.6,26.1,25.57,SSE,158,7.4,7.8,48,0.00,,---,0.00,VWS V14.01,2013-04-25 07:35:00,
2013-04-25 02:36:00,44.8,26.3,25.57,SSE,158,6.3,7.4,48,0.00,,---,0.00,VWS V14.01,2013-04-25 07:36:00,
2013-04-25 02:37:00,44.8,25.8,25.57,SE,135,5.8,7.2,47,0.00,,---,0.00,VWS V14.01,2013-04-25 07:37:00,
2013-04-25 02:38:00,44.8,26.3,25.57,SSE,158,4.5,5.8,48,0.00,,---,0.00,VWS V14.01,2013-04-25 07:38:00,
2013-04-25 02:39:00,45.0,26.5,25.57,South,180,5.8,5.8,48,0.00,,---,0.00,VWS V14.01,2013-04-25 07:39:00,
2013-04-25 02:40:00,45.0,26.5,25.57,SE,135,6.5,6.5,48,0.00,,---,0.00,VWS V14.01,2013-04-25 07:40:00,
2013-04-25 02:42:00,45.0,26.0,25.57,SE,135,4.5,6.5,47,0.00,,---,0.00,VWS V14.01,2013-04-25 07:42:00,
2013-04-25 02:43:00,45.0,26.0,25.57,SSE,158,5.8,5.8,47,0.00,,---,0.00,VWS V14.01,2013-04-25 07:43:00,
2013-04-25 02:44:00,45.0,26.0,25.57,ESE,112,6.3,8.7,47,0.00,,---,0.00,VWS V14.01,2013-04-25 07:44:00,
2013-04-25 02:45:00,45.1,26.1,25.57,SE,135,7.6,8.5,47,0.00,,---,0.00,VWS V14.01,2013-04-25 07:45:00,
2013-04-25 02:46:00,45.3,26.8,25.57,ESE,112,5.8,7.6,48,0.00,,---,0.00,VWS V14.01,2013-04-25 07:46:00,
2013-04-25 02:47:00,45.3,26.8,25.57,SSE,158,5.6,7.8,48,0.00,,---,0.00,VWS V14.01,2013-04-25 07:47:00,
2013-04-25 02:48:00,45.5,27.0,25.57,SE,135,7.2,8.7,48,0.00,,---,0.00,VWS V14.01,2013-04-25 07:48:00,
2013-04-25 02:49:00,45.5,27.0,25.57,SSE,158,5.8,7.2,48,0.00,,---,0.00,VWS V14.01,2013-04-25 07:49:00,
2013-04-25 02:50:00,45.7,26.6,25.57,ESE,112,6.3,7.6,47,0.00,,---,0.00,VWS V14.01,2013-04-25 07:50:00,
2013-04-25 02:51:00,45.5,25.9,25.57,SE,135,6.0,6.3,46,0.00,,---,0.00,VWS V14.01,2013-04-25 07:51:00,
2013-04-25 02:52:00,45.5,26.5,25.57,SSE,158,5.4,6.3,47,0.00,,---,0.00,VWS V14.01,2013-04-25 07:52:00,
2013-04-25 02:53:00,45.7,27.1,25.57,SE,135,7.6,7.6,48,0.00,,---,0.00,VWS V14.01,2013-04-25 07:53:00,
2013-04-25 02:54:00,45.9,27.3,25.57,SE,135,7.2,7.6,48,0.00,,---,0.00,VWS V14.01,2013-04-25 07:54:00,
2013-04-25 02:55:00,46.0,27.0,25.57,ESE,112,7.8,7.8,47,0.00,,---,0.00,VWS V14.01,2013-04-25 07:55:00,
2013-04-25 02:56:00,46.0,27.0,25.57,SE,135,7.8,7.8,47,0.00,,---,0.00,VWS V14.01,2013-04-25 07:56:00,
2013-04-25 02:57:00,46.2,27.1,25.57,SE,135,6.3,9.6,47,0.00,,---,0.00,VWS V14.01,2013-04-25 07:57:00,
2013-04-25 02:58:00,46.4,27.3,25.57,SE,135,7.6,9.8,47,0.00,,---,0.00,VWS V14.01,2013-04-25 07:58:00,
2013-04-25 02:59:00,46.6,27.5,25.57,ESE,112,7.6,8.5,47,0.00,,---,0.00,VWS V14.01,2013-04-25 07:59:00,
2013-04-25 03:00:00,46.6,26.9,25.57,SE,135,6.5,7.6,46,0.00,,---,0.00,VWS V14.01,2013-04-25 08:00:00,
2013-04-25 03:01:00,46.6,26.9,25.57,ESE,112,6.5,7.8,46,0.00,,---,0.00,VWS V14.01,2013-04-25 08:01:00,
2013-04-25 03:02:00,46.6,26.9,25.57,SE,135,5.8,7.8,46,0.00,,---,0.00,VWS V14.01,2013-04-25 08:02:00,
2013-04-25 03:04:00,46.8,26.6,25.57,SE,135,6.0,7.6,45,0.00,,---,0.00,VWS V14.01,2013-04-25 08:04:00,
2013-04-25 03:05:00,46.8,26.6,25.57,SSE,158,5.8,7.2,45,0.00,,---,0.00,VWS V14.01,2013-04-25 08:05:00,
2013-04-25 03:06:00,46.8,26.6,25.57,SE,135,6.3,6.3,45,0.00,,---,0.00,VWS V14.01,2013-04-25 08:06:00,
2013-04-25 03:07:00,46.6,26.4,25.57,SSE,158,6.3,6.3,45,0.00,,---,0.00,VWS V14.01,2013-04-25 08:07:00,
2013-04-25 03:08:00,46.6,25.9,25.57,SSE,158,8.1,10.3,44,0.00,,---,0.00,VWS V14.01,2013-04-25 08:08:00,
2013-04-25 03:09:00,46.6,25.9,25.57,ESE,112,6.3,8.1,44,0.00,,---,0.00,VWS V14.01,2013-04-25 08:09:00,
2013-04-25 03:10:00,46.6,25.9,25.57,SE,135,9.2,9.2,44,0.00,,---,0.00,VWS V14.01,2013-04-25 08:10:00,
2013-04-25 03:11:00,46.6,25.9,25.57,SE,135,7.8,9.2,44,0.00,,---,0.00,VWS V14.01,2013-04-25 08:11:00,
2013-04-25 03:12:00,46.6,26.4,25.57,SSE,158,7.6,7.8,45,0.00,,---,0.00,VWS V14.01,2013-04-25 08:12:00,
2013-04-25 03:13:00,46.6,25.9,25.57,SE,135,6.3,9.8,44,0.00,,---,0.00,VWS V14.01,2013-04-25 08:13:00,
2013-04-25 03:14:00,46.6,25.9,25.57,ESE,112,4.3,7.4,44,0.00,,---,0.00,VWS V14.01,2013-04-25 08:14:00,
2013-04-25 03:15:00,46.6,25.9,25.57,SSE,158,6.0,6.0,44,0.00,,---,0.00,VWS V14.01,2013-04-25 08:15:00,
2013-04-25 03:16:00,46.4,25.7,25.57,SE,135,4.3,6.0,44,0.00,,---,0.00,VWS V14.01,2013-04-25 08:16:00,
2013-04-25 03:17:00,46.4,26.2,25.57,South,180,5.4,5.4,45,0.00,,---,0.00,VWS V14.01,2013-04-25 08:17:00,
2013-04-25 03:18:00,46.2,26.1,25.57,SE,135,2.9,5.4,45,0.00,,---,0.00,VWS V14.01,2013-04-25 08:18:00,
2013-04-25 03:19:00,46.2,26.1,25.57,SE,135,3.6,4.3,45,0.00,,---,0.00,VWS V14.01,2013-04-25 08:19:00,
2013-04-25 03:20:00,46.2,26.6,25.57,SSE,158,4.0,4.0,46,0.00,,---,0.00,VWS V14.01,2013-04-25 08:20:00,
2013-04-25 03:21:00,46.2,26.6,25.57,SW,225,2.7,4.0,46,0.00,,---,0.00,VWS V14.01,2013-04-25 08:21:00,
2013-04-25 03:22:00,46.2,26.6,25.57,SW,225,2.5,4.0,46,0.00,,---,0.00,VWS V14.01,2013-04-25 08:22:00,
2013-04-25 03:23:00,46.2,26.6,25.57,SW,225,0.0,2.5,46,0.00,,---,0.00,VWS V14.01,2013-04-25 08:23:00,
2013-04-25 03:24:00,46.2,26.6,25.57,SSE,158,2.0,2.0,46,0.00,,---,0.00,VWS V14.01,2013-04-25 08:24:00,
2013-04-25 03:25:00,46.2,26.6,25.57,SSE,158,1.6,2.0,46,0.00,,---,0.00,VWS V14.01,2013-04-25 08:25:00,
2013-04-25 03:26:00,46.0,26.4,25.57,SE,135,1.6,2.0,46,0.00,,---,0.00,VWS V14.01,2013-04-25 08:26:00,
2013-04-25 03:27:00,46.0,26.4,25.57,SE,135,1.1,2.0,46,0.00,,---,0.00,VWS V14.01,2013-04-25 08:27:00,
2013-04-25 03:29:00,46.0,26.4,25.57,SSW,202,1.1,1.6,46,0.00,,---,0.00,VWS V14.01,2013-04-25 08:29:00,
2013-04-25 03:30:00,46.0,26.4,25.57,South,180,2.0,2.0,46,0.00,,---,0.00,VWS V14.01,2013-04-25 08:30:00,
2013-04-25 03:31:00,46.0,27.0,25.57,SE,135,4.0,4.0,47,0.00,,---,0.00,VWS V14.01,2013-04-25 08:31:00,
2013-04-25 03:32:00,45.9,27.3,25.57,SE,135,5.4,5.4,48,0.00,,---,0.00,VWS V14.01,2013-04-25 08:32:00,
2013-04-25 03:33:00,45.9,27.3,25.57,SE,135,5.4,5.8,48,0.00,,---,0.00,VWS V14.01,2013-04-25 08:33:00,
2013-04-25 03:34:00,46.0,27.5,25.57,SSE,158,3.1,5.6,48,0.00,,---,0.00,VWS V14.01,2013-04-25 08:34:00,
2013-04-25 03:35:00,46.0,27.5,25.57,ESE,112,3.6,4.3,48,0.00,,---,0.00,VWS V14.01,2013-04-25 08:35:00,
2013-04-25 03:36:00,46.0,27.5,25.57,SE,135,2.7,3.6,48,0.00,,---,0.00,VWS V14.01,2013-04-25 08:36:00,
2013-04-25 03:37:00,46.0,27.5,25.57,SE,135,3.8,4.0,48,0.00,,---,0.00,VWS V14.01,2013-04-25 08:37:00,
2013-04-25 03:38:00,46.2,27.6,25.57,South,180,3.6,4.0,48,0.00,,---,0.00,VWS V14.01,2013-04-25 08:38:00,
2013-04-25 03:39:00,46.2,27.6,25.57,South,180,0.0,3.6,48,0.00,,---,0.00,VWS V14.01,2013-04-25 08:39:00,
2013-04-25 03:40:00,46.2,27.1,25.57,SSE,158,2.7,2.9,47,0.00,,---,0.00,VWS V14.01,2013-04-25 08:40:00,
2013-04-25 03:41:00,46.2,27.1,25.57,SE,135,3.4,3.4,47,0.00,,---,0.00,VWS V14.01,2013-04-25 08:41:00,
2013-04-25 03:42:00,46.0,27.0,25.57,SSE,158,2.5,3.4,47,0.00,,---,0.00,VWS V14.01,2013-04-25 08:42:00,
2013-04-25 03:43:00,46.0,27.0,25.57,ESE,112,0.0,2.5,47,0.00,,---,0.00,VWS V14.01,2013-04-25 08:43:00,
2013-04-25 03:44:00,45.9,26.8,25.57,East,90,2.7,2.7,47,0.00,,---,0.00,VWS V14.01,2013-04-25 08:44:00,
2013-04-25 03:45:00,45.9,26.3,25.57,East,90,3.6,3.6,46,0.00,,---,0.00,VWS V14.01,2013-04-25 08:45:00,
2013-04-25 03:46:00,45.7,25.6,25.57,ESE,112,4.7,6.0,45,0.00,,---,0.00,VWS V14.01,2013-04-25 08:46:00,
2013-04-25 03:47:00,45.7,25.6,25.57,SSE,158,4.9,6.0,45,0.00,,---,0.00,VWS V14.01,2013-04-25 08:47:00,
2013-04-25 03:48:00,45.7,25.6,25.57,ESE,112,4.3,4.9,45,0.00,,---,0.00,VWS V14.01,2013-04-25 08:48:00,
2013-04-25 03:49:00,45.5,24.9,25.57,ESE,112,3.8,5.4,44,0.00,,---,0.00,VWS V14.01,2013-04-25 08:49:00,
2013-04-25 03:50:00,45.3,24.7,25.57,East,90,4.0,4.5,44,0.00,,---,0.00,VWS V14.01,2013-04-25 08:50:00,
2013-04-25 03:51:00,45.3,24.7,25.57,East,90,7.4,7.4,44,0.00,,---,0.00,VWS V14.01,2013-04-25 08:51:00,
2013-04-25 03:52:00,45.3,24.7,25.57,ESE,112,5.8,7.4,44,0.00,,---,0.00,VWS V14.01,2013-04-25 08:52:00,
2013-04-25 03:53:00,45.3,24.7,25.57,ESE,112,6.5,6.5,44,0.00,,---,0.00,VWS V14.01,2013-04-25 08:53:00,
2013-04-25 03:54:00,45.3,24.7,25.57,ESE,112,5.4,6.5,44,0.00,,---,0.00,VWS V14.01,2013-04-25 08:54:00,
2013-04-25 03:55:00,45.3,24.7,25.57,ESE,112,4.9,6.0,44,0.00,,---,0.00,VWS V14.01,2013-04-25 08:55:00,
2013-04-25 03:56:00,45.1,24.5,25.57,ESE,112,5.4,5.4,44,0.00,,---,0.00,VWS V14.01,2013-04-25 08:56:00,
2013-04-25 03:57:00,45.1,25.1,25.57,ESE,112,3.8,5.4,45,0.00,,---,0.00,VWS V14.01,2013-04-25 08:57:00,
2013-04-25 03:58:00,45.1,25.1,25.57,ESE,112,4.3,5.8,45,0.00,,---,0.00,VWS V14.01,2013-04-25 08:58:00,
2013-04-25 03:59:00,45.1,25.1,25.57,ESE,112,4.9,4.9,45,0.00,,---,0.00,VWS V14.01,2013-04-25 08:59:00,
2013-04-25 04:00:00,45.1,24.5,25.57,SE,135,4.3,4.9,44,0.00,,---,0.00,VWS V14.01,2013-04-25 09:00:00,
2013-04-25 04:01:00,45.1,24.5,25.57,ESE,112,3.1,5.6,44,0.00,,---,0.00,VWS V14.01,2013-04-25 09:01:00,
2013-04-25 04:02:00,45.1,24.5,25.57,ESE,112,4.0,4.0,44,0.00,,---,0.00,VWS V14.01,2013-04-25 09:02:00,
2013-04-25 04:03:00,44.8,24.2,25.57,ESE,112,3.8,5.6,44,0.00,,---,0.00,VWS V14.01,2013-04-25 09:03:00,
2013-04-25 04:04:00,44.8,24.2,25.57,ESE,112,3.8,4.0,44,0.00,,---,0.00,VWS V14.01,2013-04-25 09:04:00,
2013-04-25 04:05:00,44.8,24.2,25.57,ESE,112,4.3,4.3,44,0.00,,---,0.00,VWS V14.01,2013-04-25 09:05:00,
2013-04-25 04:06:00,44.8,24.2,25.57,ESE,112,4.0,4.3,44,0.00,,---,0.00,VWS V14.01,2013-04-25 09:06:00,
2013-04-25 04:07:00,44.8,24.8,25.57,ESE,112,4.9,4.9,45,0.00,,---,0.00,VWS V14.01,2013-04-25 09:07:00,
2013-04-25 04:08:00,44.8,24.8,25.57,ESE,112,4.9,6.3,45,0.00,,---,0.00,VWS V14.01,2013-04-25 09:08:00,
2013-04-25 04:09:00,44.8,24.8,25.60,ESE,112,5.6,5.6,45,0.00,,---,0.00,VWS V14.01,2013-04-25 09:09:00,
2013-04-25 04:10:00,44.8,24.8,25.60,East,90,7.2,7.8,45,0.00,,---,0.00,VWS V14.01,2013-04-25 09:10:00,
2013-04-25 04:11:00,44.8,24.2,25.60,ESE,112,8.1,8.1,44,0.00,,---,0.00,VWS V14.01,2013-04-25 09:11:00,
2013-04-25 04:12:00,44.6,23.5,25.60,ESE,112,6.5,6.5,43,0.00,,---,0.00,VWS V14.01,2013-04-25 09:12:00,
2013-04-25 04:13:00,44.6,23.5,25.60,ESE,112,10.5,10.7,43,0.00,,---,0.00,VWS V14.01,2013-04-25 09:13:00,
2013-04-25 04:14:00,44.6,23.5,25.60,ESE,112,8.1,10.5,43,0.00,,---,0.00,VWS V14.01,2013-04-25 09:14:00,
2013-04-25 04:15:00,44.4,23.3,25.60,ESE,112,11.2,11.2,43,0.00,,---,0.00,VWS V14.01,2013-04-25 09:15:00,
2013-04-25 04:16:00,44.4,23.3,25.60,ESE,112,7.8,11.2,43,0.00,,---,0.00,VWS V14.01,2013-04-25 09:16:00,
2013-04-25 04:17:00,44.2,23.2,25.60,ESE,112,7.6,8.1,43,0.00,,---,0.00,VWS V14.01,2013-04-25 09:17:00,
2013-04-25 04:18:00,44.2,23.2,25.60,ESE,112,9.2,9.2,43,0.00,,---,0.00,VWS V14.01,2013-04-25 09:18:00,
2013-04-25 04:19:00,44.4,23.9,25.60,ESE,112,7.4,9.2,44,0.00,,---,0.00,VWS V14.01,2013-04-25 09:19:00,
2013-04-25 04:20:00,44.4,23.9,25.60,SE,135,7.6,8.1,44,0.00,,---,0.00,VWS V14.01,2013-04-25 09:20:00,
2013-04-25 04:21:00,44.4,23.9,25.60,ESE,112,9.6,10.3,44,0.00,,---,0.00,VWS V14.01,2013-04-25 09:21:00,
2013-04-25 04:22:00,44.6,23.5,25.60,ESE,112,9.6,10.7,43,0.00,,---,0.00,VWS V14.01,2013-04-25 09:22:00,
2013-04-25 04:23:00,44.6,23.5,25.60,ESE,112,8.5,9.6,43,0.00,,---,0.00,VWS V14.01,2013-04-25 09:23:00,
2013-04-25 04:24:00,44.6,23.5,25.60,SSE,158,9.6,11.0,43,0.00,,---,0.00,VWS V14.01,2013-04-25 09:24:00,
2013-04-25 04:25:00,44.8,23.7,25.60,ESE,112,9.2,10.1,43,0.00,,---,0.00,VWS V14.01,2013-04-25 09:25:00,
2013-04-25 04:26:00,44.6,23.5,25.60,ESE,112,7.4,9.2,43,0.00,,---,0.00,VWS V14.01,2013-04-25 09:26:00,
2013-04-25 04:27:00,44.6,23.5,25.60,ESE,112,8.5,8.5,43,0.00,,---,0.00,VWS V14.01,2013-04-25 09:27:00,
2013-04-25 04:28:00,44.6,23.5,25.60,ESE,112,8.5,8.5,43,0.00,,---,0.00,VWS V14.01,2013-04-25 09:28:00,
2013-04-25 04:29:00,44.6,23.5,25.60,ESE,112,8.1,10.1,43,0.00,,---,0.00,VWS V14.01,2013-04-25 09:29:00,
2013-04-25 04:30:00,44.6,23.5,25.60,SSE,158,10.3,10.3,43,0.00,,---,0.00,VWS V14.01,2013-04-25 09:30:00,
2013-04-25 04:31:00,44.6,23.5,25.60,SE,135,6.0,10.3,43,0.00,,---,0.00,VWS V14.01,2013-04-25 09:31:00,
2013-04-25 04:32:00,44.6,23.5,25.60,ESE,112,8.5,8.5,43,0.00,,---,0.00,VWS V14.01,2013-04-25 09:32:00,
2013-04-25 04:33:00,44.8,23.7,25.60,ESE,112,7.4,8.5,43,0.00,,---,0.00,VWS V14.01,2013-04-25 09:33:00,
2013-04-25 04:34:00,44.8,23.7,25.60,SE,135,8.7,8.7,43,0.00,,---,0.00,VWS V14.01,2013-04-25 09:34:00,
2013-04-25 04:35:00,44.4,23.3,25.60,SE,135,8.7,8.7,43,0.00,,---,0.00,VWS V14.01,2013-04-25 09:35:00,
2013-04-25 04:36:00,44.2,23.2,25.60,SE,135,9.6,10.5,43,0.00,,---,0.00,VWS V14.01,2013-04-25 09:36:00,
2013-04-25 04:37:00,44.2,23.2,25.60,ESE,112,8.1,10.5,43,0.00,,---,0.00,VWS V14.01,2013-04-25 09:37:00,
2013-04-25 04:38:00,44.1,23.0,25.60,SSE,158,8.1,8.5,43,0.00,,---,0.00,VWS V14.01,2013-04-25 09:38:00,
2013-04-25 04:39:00,44.1,23.0,25.60,ESE,112,8.1,8.7,43,0.00,,---,0.00,VWS V14.01,2013-04-25 09:39:00,
2013-04-25 04:40:00,44.1,23.0,25.60,ESE,112,9.6,9.6,43,0.00,,---,0.00,VWS V14.01,2013-04-25 09:40:00,
2013-04-25 04:41:00,43.9,22.9,25.60,SE,135,7.8,9.6,43,0.00,,---,0.00,VWS V14.01,2013-04-25 09:41:00,
2013-04-25 04:42:00,43.9,22.9,25.60,ESE,112,7.4,7.8,43,0.00,,---,0.00,VWS V14.01,2013-04-25 09:42:00,
2013-04-25 04:43:00,43.7,22.7,25.60,SE,135,9.8,9.8,43,0.00,,---,0.00,VWS V14.01,2013-04-25 09:43:00,
2013-04-25 04:44:00,43.7,22.7,25.60,SE,135,7.6,9.8,43,0.00,,---,0.00,VWS V14.01,2013-04-25 09:44:00,
2013-04-25 04:45:00,43.5,23.1,25.60,SE,135,8.5,8.5,44,0.00,,---,0.00,VWS V14.01,2013-04-25 09:45:00,
2013-04-25 04:46:00,43.7,23.2,25.60,SE,135,7.4,10.5,44,0.00,,---,0.00,VWS V14.01,2013-04-25 09:46:00,
2013-04-25 04:47:00,43.7,23.2,25.60,ESE,112,7.6,10.5,44,0.00,,---,0.00,VWS V14.01,2013-04-25 09:47:00,
2013-04-25 04:48:00,43.7,23.2,25.60,ESE,112,5.8,7.6,44,0.00,,---,0.00,VWS V14.01,2013-04-25 09:48:00,
2013-04-25 04:49:00,43.7,23.2,25.60,SSE,158,5.6,7.6,44,0.00,,---,0.00,VWS V14.01,2013-04-25 09:49:00,
2013-04-25 04:50:00,43.7,23.2,25.60,SSE,158,6.5,8.1,44,0.00,,---,0.00,VWS V14.01,2013-04-25 09:50:00,
2013-04-25 04:51:00,43.7,23.2,25.60,SSE,158,7.6,7.6,44,0.00,,---,0.00,VWS V14.01,2013-04-25 09:51:00,
2013-04-25 04:52:00,43.7,23.2,25.60,SSE,158,8.7,8.7,44,0.00,,---,0.00,VWS V14.01,2013-04-25 09:52:00,
2013-04-25 04:53:00,43.7,23.8,25.60,ESE,112,8.1,8.5,45,0.00,,---,0.00,VWS V14.01,2013-04-25 09:53:00,
2013-04-25 04:54:00,43.7,23.8,25.60,ESE,112,5.8,8.5,45,0.00,,---,0.00,VWS V14.01,2013-04-25 09:54:00,
2013-04-25 04:55:00,43.7,23.8,25.60,SE,135,6.3,6.5,45,0.00,,---,0.00,VWS V14.01,2013-04-25 09:55:00,
2013-04-25 04:56:00,43.7,23.8,25.60,ESE,112,5.8,6.3,45,0.00,,---,0.00,VWS V14.01,2013-04-25 09:56:00,
2013-04-25 04:57:00,43.7,23.8,25.60,SE,135,5.6,6.9,45,0.00,,---,0.00,VWS V14.01,2013-04-25 09:57:00,
2013-04-25 04:58:00,43.5,23.6,25.60,ESE,112,4.9,6.3,45,0.00,,---,0.00,VWS V14.01,2013-04-25 09:58:00,
2013-04-25 04:59:00,43.5,23.6,25.60,ESE,112,3.1,5.8,45,0.00,,---,0.00,VWS V14.01,2013-04-25 09:59:00,
2013-04-25 05:00:00,43.5,24.1,25.60,SE,135,6.3,6.3,46,0.00,,---,0.00,VWS V14.01,2013-04-25 10:00:00,
2013-04-25 05:01:00,43.5,24.1,25.60,SE,135,6.7,6.7,46,0.00,,---,0.00,VWS V14.01,2013-04-25 10:01:00,
2013-04-25 05:02:00,43.5,24.1,25.60,SE,135,7.6,7.8,46,0.00,,---,0.00,VWS V14.01,2013-04-25 10:02:00,
2013-04-25 05:03:00,43.7,24.8,25.60,South,180,7.8,7.8,47,0.00,,---,0.00,VWS V14.01,2013-04-25 10:03:00,
2013-04-25 05:04:00,43.7,24.8,25.60,SSE,158,4.3,7.8,47,0.00,,---,0.00,VWS V14.01,2013-04-25 10:04:00,
2013-04-25 05:05:00,43.9,25.0,25.60,SSE,158,8.7,8.7,47,0.00,,---,0.00,VWS V14.01,2013-04-25 10:05:00,
2013-04-25 05:06:00,44.1,25.6,25.60,SSE,158,9.8,9.8,48,0.00,,---,0.00,VWS V14.01,2013-04-25 10:06:00,
2013-04-25 05:07:00,44.4,25.5,25.60,SSE,158,6.9,9.8,47,0.00,,---,0.00,VWS V14.01,2013-04-25 10:07:00,
2013-04-25 05:08:00,44.6,25.6,25.60,SSE,158,5.8,7.6,47,0.00,,---,0.00,VWS V14.01,2013-04-25 10:08:00,
2013-04-25 05:09:00,44.6,25.6,25.60,South,180,8.5,8.5,47,0.00,,---,0.00,VWS V14.01,2013-04-25 10:09:00,
2013-04-25 05:10:00,44.6,25.6,25.60,SSE,158,7.6,8.5,47,0.00,,---,0.00,VWS V14.01,2013-04-25 10:10:00,
2013-04-25 05:11:00,44.8,25.8,25.60,South,180,6.5,8.7,47,0.00,,---,0.00,VWS V14.01,2013-04-25 10:11:00,
2013-04-25 05:12:00,44.8,25.8,25.60,SSE,158,7.8,9.6,47,0.00,,---,0.00,VWS V14.01,2013-04-25 10:12:00,
2013-04-25 05:13:00,45.1,26.1,25.60,SSE,158,6.5,10.1,47,0.00,,---,0.00,VWS V14.01,2013-04-25 10:13:00,
2013-04-25 05:14:00,45.1,26.1,25.60,SSW,202,6.5,8.7,47,0.00,,---,0.00,VWS V14.01,2013-04-25 10:14:00,
2013-04-25 05:15:00,45.1,25.6,25.60,SE,135,7.6,8.5,46,0.00,,---,0.00,VWS V14.01,2013-04-25 10:15:00,
2013-04-25 05:16:00,45.3,25.8,25.60,SSE,158,6.3,10.1,46,0.00,,---,0.00,VWS V14.01,2013-04-25 10:16:00,
2013-04-25 05:17:00,45.3,25.8,25.60,SSE,158,6.3,8.5,46,0.00,,---,0.00,VWS V14.01,2013-04-25 10:17:00,
2013-04-25 05:18:00,45.3,25.8,25.60,SSE,158,6.0,8.5,46,0.00,,---,0.00,VWS V14.01,2013-04-25 10:18:00,
2013-04-25 05:19:00,45.3,25.8,25.60,SSE,158,7.4,7.8,46,0.00,,---,0.00,VWS V14.01,2013-04-25 10:19:00,
2013-04-25 05:20:00,45.3,25.8,25.60,SSE,158,7.8,7.8,46,0.00,,---,0.00,VWS V14.01,2013-04-25 10:20:00,
2013-04-25 05:21:00,45.3,25.8,25.60,South,180,5.6,7.2,46,0.00,,---,0.00,VWS V14.01,2013-04-25 10:21:00,
2013-04-25 05:22:00,45.3,25.8,25.60,SSE,158,7.2,7.8,46,0.00,,---,0.00,VWS V14.01,2013-04-25 10:22:00,
2013-04-25 05:23:00,45.3,25.8,25.60,SSW,202,6.0,6.0,46,0.00,,---,0.00,VWS V14.01,2013-04-25 10:23:00,
2013-04-25 05:24:00,45.3,25.2,25.60,SSE,158,5.8,8.1,45,0.00,,---,0.00,VWS V14.01,2013-04-25 10:24:00,
2013-04-25 05:25:00,45.3,25.2,25.60,SSE,158,8.5,9.4,45,0.00,,---,0.00,VWS V14.01,2013-04-25 10:25:00,
2013-04-25 05:26:00,45.3,25.2,25.60,SSE,158,7.6,8.5,45,0.00,,---,0.00,VWS V14.01,2013-04-25 10:26:00,
2013-04-25 05:27:00,45.3,25.2,25.60,SSE,158,6.0,7.8,45,0.00,,---,0.00,VWS V14.01,2013-04-25 10:27:00,
2013-04-25 05:28:00,45.3,25.2,25.60,SE,135,5.6,8.1,45,0.00,,---,0.00,VWS V14.01,2013-04-25 10:28:00,
2013-04-25 05:29:00,45.1,25.1,25.60,SE,135,5.4,5.6,45,0.00,,---,0.00,VWS V14.01,2013-04-25 10:29:00,
2013-04-25 05:30:00,45.1,25.1,25.60,SSE,158,7.8,7.8,45,0.00,,---,0.00,VWS V14.01,2013-04-25 10:30:00,
2013-04-25 05:31:00,45.1,25.1,25.60,South,180,7.4,7.8,45,0.00,,---,0.00,VWS V14.01,2013-04-25 10:31:00,
2013-04-25 05:32:00,45.1,25.1,25.60,South,180,5.6,7.4,45,0.00,,---,0.00,VWS V14.01,2013-04-25 10:32:00,
2013-04-25 05:33:00,45.0,24.9,25.60,SSE,158,5.8,5.8,45,0.00,,---,0.00,VWS V14.01,2013-04-25 10:33:00,
2013-04-25 05:35:00,45.0,25.4,25.60,South,180,3.8,3.8,46,0.00,,---,0.00,VWS V14.01,2013-04-25 10:35:00,
2013-04-25 05:36:00,44.8,24.8,25.60,SSE,158,3.1,3.8,45,0.00,,---,0.00,VWS V14.01,2013-04-25 10:36:00,
2013-04-25 05:37:00,44.6,25.1,25.60,SSE,158,3.6,4.3,46,0.00,,---,0.00,VWS V14.01,2013-04-25 10:37:00,
2013-04-25 05:38:00,44.6,25.1,25.60,SE,135,3.8,4.7,46,0.00,,---,0.00,VWS V14.01,2013-04-25 10:38:00,
2013-04-25 05:39:00,44.6,25.1,25.60,SE,135,3.8,5.8,46,0.00,,---,0.00,VWS V14.01,2013-04-25 10:39:00,
2013-04-25 05:40:00,44.6,25.1,25.60,SE,135,4.3,5.8,46,0.00,,---,0.00,VWS V14.01,2013-04-25 10:40:00,
2013-04-25 05:41:00,44.6,25.6,25.60,SSE,158,3.6,5.8,47,0.00,,---,0.00,VWS V14.01,2013-04-25 10:41:00,
2013-04-25 05:42:00,44.6,25.6,25.60,ESE,112,4.7,8.5,47,0.00,,---,0.00,VWS V14.01,2013-04-25 10:42:00,
2013-04-25 05:43:00,44.6,25.6,25.60,SE,135,6.3,7.4,47,0.00,,---,0.00,VWS V14.01,2013-04-25 10:43:00,
2013-04-25 05:44:00,44.6,25.6,25.60,South,180,7.8,7.8,47,0.00,,---,0.00,VWS V14.01,2013-04-25 10:44:00,
2013-04-25 05:45:00,44.8,25.8,25.60,South,180,8.7,8.7,47,0.00,,---,0.00,VWS V14.01,2013-04-25 10:45:00,
2013-04-25 05:46:00,45.0,26.0,25.60,SSE,158,10.3,10.3,47,0.00,,---,0.00,VWS V14.01,2013-04-25 10:46:00,
2013-04-25 05:47:00,45.1,26.1,25.60,SSE,158,10.7,10.7,47,0.00,,---,0.00,VWS V14.01,2013-04-25 10:47:00,
2013-04-25 05:48:00,45.1,26.1,25.60,South,180,11.0,12.8,47,0.00,,---,0.00,VWS V14.01,2013-04-25 10:48:00,
2013-04-25 05:49:00,45.3,26.3,25.60,SSW,202,8.5,11.9,47,0.00,,---,0.00,VWS V14.01,2013-04-25 10:49:00,
2013-04-25 05:50:00,45.3,26.3,25.60,SE,135,10.7,11.9,47,0.00,,---,0.00,VWS V14.01,2013-04-25 10:50:00,
2013-04-25 05:51:00,45.3,26.3,25.60,SE,135,5.8,10.7,47,0.00,,---,0.00,VWS V14.01,2013-04-25 10:51:00,
2013-04-25 05:52:00,45.3,26.3,25.60,SE,135,6.5,10.1,47,0.00,,---,0.00,VWS V14.01,2013-04-25 10:52:00,
2013-04-25 05:53:00,45.3,26.3,25.60,SSE,158,12.3,12.3,47,0.00,,---,0.00,VWS V14.01,2013-04-25 10:53:00,
2013-04-25 05:54:00,45.3,26.3,25.60,SSE,158,8.5,12.3,47,0.00,,---,0.00,VWS V14.01,2013-04-25 10:54:00,
2013-04-25 05:55:00,45.3,26.3,25.60,SE,135,5.6,8.5,47,0.00,,---,0.00,VWS V14.01,2013-04-25 10:55:00,
2013-04-25 05:56:00,45.3,26.3,25.60,ESE,112,9.8,9.8,47,0.00,,---,0.00,VWS V14.01,2013-04-25 10:56:00,
2013-04-25 05:57:00,45.3,26.3,25.60,ESE,112,6.3,9.8,47,0.00,,---,0.00,VWS V14.01,2013-04-25 10:57:00,
2013-04-25 05:59:00,45.3,26.3,25.60,ESE,112,7.6,7.6,47,0.00,,---,0.00,VWS V14.01,2013-04-25 10:59:00,
2013-04-25 06:00:00,45.1,25.6,25.60,ESE,112,6.5,9.4,46,0.00,,---,0.00,VWS V14.01,2013-04-25 11:00:00,
2013-04-25 06:01:00,45.0,25.4,25.60,East,90,4.3,6.5,46,0.00,,---,0.00,VWS V14.01,2013-04-25 11:01:00,
2013-04-25 06:02:00,44.8,24.8,25.60,ESE,112,3.4,4.3,45,0.00,,---,0.00,VWS V14.01,2013-04-25 11:02:00,
2013-04-25 06:03:00,44.8,24.8,25.60,ESE,112,3.4,3.4,45,0.00,,---,0.00,VWS V14.01,2013-04-25 11:03:00,
2013-04-25 06:04:00,44.2,24.8,25.60,SE,135,8.1,8.1,46,0.00,,---,0.00,VWS V14.01,2013-04-25 11:04:00,
2013-04-25 06:05:00,44.2,25.8,25.60,ESE,112,6.5,8.1,48,0.00,,---,0.00,VWS V14.01,2013-04-25 11:05:00,
2013-04-25 06:06:00,44.2,25.8,25.60,SE,135,6.0,6.5,48,0.00,,---,0.00,VWS V14.01,2013-04-25 11:06:00,
2013-04-25 06:08:00,44.2,25.8,25.60,ESE,112,7.4,7.4,48,0.00,,---,0.00,VWS V14.01,2013-04-25 11:08:00,
2013-04-25 06:09:00,44.2,25.8,25.57,ESE,112,7.6,7.6,48,0.00,,---,0.00,VWS V14.01,2013-04-25 11:09:00,
2013-04-25 06:10:00,43.9,25.0,25.57,ESE,112,8.5,8.7,47,0.00,,---,0.00,VWS V14.01,2013-04-25 11:10:00,
2013-04-25 06:11:00,43.7,24.8,25.57,SE,135,6.3,8.7,47,0.00,,---,0.00,VWS V14.01,2013-04-25 11:11:00,
2013-04-25 06:12:00,43.7,24.8,25.57,East,90,7.8,7.8,47,0.00,,---,0.00,VWS V14.01,2013-04-25 11:12:00,
2013-04-25 06:13:00,43.7,24.8,25.57,ESE,112,5.6,7.8,47,0.00,,---,0.00,VWS V14.01,2013-04-25 11:13:00,
2013-04-25 06:14:00,43.7,25.3,25.57,ESE,112,7.6,7.6,48,0.00,,---,0.00,VWS V14.01,2013-04-25 11:14:00,
2013-04-25 06:15:00,43.7,25.3,25.57,ESE,112,6.3,8.5,48,0.00,,---,0.00,VWS V14.01,2013-04-25 11:15:00,
2013-04-25 06:16:00,43.7,25.3,25.57,ESE,112,6.3,7.2,48,0.00,,---,0.00,VWS V14.01,2013-04-25 11:16:00,
2013-04-25 06:17:00,43.7,25.3,25.57,ESE,112,5.8,8.5,48,0.00,,---,0.00,VWS V14.01,2013-04-25 11:17:00,
2013-04-25 06:18:00,43.7,25.3,25.57,ESE,112,7.6,7.6,48,0.00,,---,0.00,VWS V14.01,2013-04-25 11:18:00,
2013-04-25 06:19:00,43.7,26.8,25.57,ESE,112,6.5,7.6,51,0.00,,---,0.00,VWS V14.01,2013-04-25 11:19:00,
2013-04-25 06:20:00,44.1,26.6,25.57,ESE,112,8.7,8.7,50,0.00,,---,0.00,VWS V14.01,2013-04-25 11:20:00,
2013-04-25 06:21:00,44.2,26.3,25.57,ESE,112,5.4,8.7,49,0.00,,---,0.00,VWS V14.01,2013-04-25 11:21:00,
2013-04-25 06:22:00,44.1,26.1,25.57,ESE,112,7.4,7.4,49,0.00,,---,0.00,VWS V14.01,2013-04-25 11:22:00,
2013-04-25 06:23:00,44.1,26.1,25.57,ESE,112,6.0,7.4,49,0.00,,---,0.00,VWS V14.01,2013-04-25 11:23:00,
2013-04-25 06:24:00,44.1,26.1,25.60,ESE,112,6.3,6.3,49,0.00,,---,0.00,VWS V14.01,2013-04-25 11:24:00,
2013-04-25 06:25:00,44.1,26.1,25.60,ESE,112,6.3,6.3,49,0.00,,---,0.00,VWS V14.01,2013-04-25 11:25:00,
2013-04-25 06:26:00,43.9,26.0,25.60,ESE,112,7.6,7.6,49,0.00,,---,0.00,VWS V14.01,2013-04-25 11:26:00,
2013-04-25 06:27:00,43.9,26.5,25.60,ESE,112,6.5,7.6,50,0.00,,---,0.00,VWS V14.01,2013-04-25 11:27:00,
2013-04-25 06:28:00,43.9,26.0,25.60,East,90,7.4,7.4,49,0.00,,---,0.00,VWS V14.01,2013-04-25 11:28:00,
2013-04-25 06:29:00,43.9,26.0,25.60,ESE,112,8.1,8.5,49,0.00,,---,0.00,VWS V14.01,2013-04-25 11:29:00,
2013-04-25 06:30:00,43.9,26.0,25.60,ESE,112,7.2,8.7,49,0.00,,---,0.00,VWS V14.01,2013-04-25 11:30:00,
2013-04-25 06:31:00,43.7,25.8,25.60,East,90,6.0,6.0,49,0.00,,---,0.00,VWS V14.01,2013-04-25 11:31:00,
2013-04-25 06:32:00,43.7,25.8,25.60,ESE,112,6.7,6.7,49,0.00,,---,0.00,VWS V14.01,2013-04-25 11:32:00,
2013-04-25 06:33:00,43.7,25.8,25.60,ESE,112,6.5,6.7,49,0.00,,---,0.00,VWS V14.01,2013-04-25 11:33:00,
2013-04-25 06:34:00,43.5,25.6,25.60,ESE,112,6.3,8.1,49,0.00,,---,0.00,VWS V14.01,2013-04-25 11:34:00,
2013-04-25 06:35:00,43.5,25.6,25.60,ESE,112,8.1,8.1,49,0.00,,---,0.00,VWS V14.01,2013-04-25 11:35:00,
2013-04-25 06:36:00,43.3,25.5,25.60,ESE,112,7.6,8.1,49,0.00,,---,0.00,VWS V14.01,2013-04-25 11:36:00,
2013-04-25 06:37:00,43.5,26.1,25.60,SE,135,8.1,8.7,50,0.00,,---,0.00,VWS V14.01,2013-04-25 11:37:00,
2013-04-25 06:38:00,43.5,26.1,25.60,ESE,112,9.4,10.1,50,0.00,,---,0.00,VWS V14.01,2013-04-25 11:38:00,
2013-04-25 06:39:00,43.5,26.1,25.60,ESE,112,7.8,10.3,50,0.00,,---,0.00,VWS V14.01,2013-04-25 11:39:00,
2013-04-25 06:40:00,43.5,26.1,25.60,SE,135,9.8,9.8,50,0.00,,---,0.00,VWS V14.01,2013-04-25 11:40:00,
2013-04-25 06:41:00,43.5,26.1,25.60,SE,135,9.8,9.8,50,0.00,,---,0.00,VWS V14.01,2013-04-25 11:41:00,
2013-04-25 06:42:00,43.7,26.3,25.60,ESE,112,8.1,9.8,50,0.00,,---,0.00,VWS V14.01,2013-04-25 11:42:00,
2013-04-25 06:43:00,43.9,26.5,25.60,ESE,112,7.6,10.3,50,0.00,,---,0.00,VWS V14.01,2013-04-25 11:43:00,
2013-04-25 06:44:00,44.1,27.1,25.60,SE,135,9.8,9.8,51,0.00,,---,0.00,VWS V14.01,2013-04-25 11:44:00,
2013-04-25 06:46:00,44.1,27.1,25.60,ESE,112,8.7,10.5,51,0.00,,---,0.00,VWS V14.01,2013-04-25 11:46:00,
2013-04-25 06:47:00,44.1,27.1,25.60,ESE,112,8.7,8.7,51,0.00,,---,0.00,VWS V14.01,2013-04-25 11:47:00,
2013-04-25 06:48:00,44.8,27.3,25.60,ESE,112,10.1,10.1,50,0.00,,---,0.00,VWS V14.01,2013-04-25 11:48:00,
2013-04-25 06:49:00,44.8,27.8,25.60,ESE,112,8.7,10.5,51,0.00,,---,0.00,VWS V14.01,2013-04-25 11:49:00,
2013-04-25 06:50:00,45.0,27.5,25.60,ESE,112,9.2,9.2,50,0.00,,---,0.00,VWS V14.01,2013-04-25 11:50:00,
2013-04-25 06:51:00,45.1,27.6,25.60,ESE,112,7.8,10.7,50,0.00,,---,0.00,VWS V14.01,2013-04-25 11:51:00,
2013-04-25 06:52:00,45.1,27.6,25.60,ESE,112,9.8,9.8,50,0.00,,---,0.00,VWS V14.01,2013-04-25 11:52:00,
2013-04-25 06:53:00,45.3,27.8,25.60,SE,135,6.7,9.8,50,0.00,,---,0.00,VWS V14.01,2013-04-25 11:53:00,
2013-04-25 06:54:00,45.5,28.4,25.60,SE,135,7.4,8.1,51,0.00,,---,0.00,VWS V14.01,2013-04-25 11:54:00,
2013-04-25 06:55:00,45.9,29.2,25.60,South,180,7.4,10.5,52,0.00,,---,0.00,VWS V14.01,2013-04-25 11:55:00,
2013-04-25 06:56:00,46.0,29.9,25.60,SE,135,7.6,8.1,53,0.00,,---,0.00,VWS V14.01,2013-04-25 11:56:00,
2013-04-25 06:57:00,46.4,29.3,25.60,ESE,112,7.4,8.7,51,0.00,,---,0.00,VWS V14.01,2013-04-25 11:57:00,
2013-04-25 06:58:00,46.4,28.8,25.60,South,180,5.4,7.4,50,0.00,,---,0.00,VWS V14.01,2013-04-25 11:58:00,
2013-04-25 06:59:00,46.6,29.0,25.60,SSE,158,4.5,9.6,50,0.00,,---,0.00,VWS V14.01,2013-04-25 11:59:00,
2013-04-25 07:00:00,46.6,29.0,25.60,South,180,5.4,6.0,50,0.00,,---,0.00,VWS V14.01,2013-04-25 12:00:00,
2013-04-25 07:01:00,46.9,29.3,25.60,SE,135,3.8,5.4,50,0.00,,---,0.00,VWS V14.01,2013-04-25 12:01:00,
2013-04-25 07:02:00,47.1,29.9,25.60,SE,135,6.0,6.0,51,0.00,,---,0.00,VWS V14.01,2013-04-25 12:02:00,
2013-04-25 07:03:00,47.3,30.1,25.60,ESE,112,4.0,6.0,51,0.00,,---,0.00,VWS V14.01,2013-04-25 12:03:00,
2013-04-25 07:04:00,47.5,29.8,25.60,ESE,112,7.4,7.4,50,0.00,,---,0.00,VWS V14.01,2013-04-25 12:04:00,
2013-04-25 07:05:00,47.5,29.8,25.60,ESE,112,7.8,7.8,50,0.00,,---,0.00,VWS V14.01,2013-04-25 12:05:00,
2013-04-25 07:06:00,47.8,29.6,25.60,ESE,112,7.4,7.4,49,0.00,,---,0.00,VWS V14.01,2013-04-25 12:06:00,
2013-04-25 07:07:00,47.8,29.6,25.60,SE,135,8.5,8.5,49,0.00,,---,0.00,VWS V14.01,2013-04-25 12:07:00,
2013-04-25 07:08:00,47.8,29.1,25.60,ESE,112,7.8,8.5,48,0.00,,---,0.00,VWS V14.01,2013-04-25 12:08:00,
2013-04-25 07:09:00,47.8,29.1,25.60,ESE,112,8.1,8.5,48,0.00,,---,0.00,VWS V14.01,2013-04-25 12:09:00,
2013-04-25 07:10:00,48.0,29.3,25.60,SE,135,7.4,8.5,48,0.00,,---,0.00,VWS V14.01,2013-04-25 12:10:00,
2013-04-25 07:11:00,48.0,29.3,25.60,SE,135,5.8,7.6,48,0.00,,---,0.00,VWS V14.01,2013-04-25 12:11:00,
2013-04-25 07:12:00,48.2,29.5,25.60,SE,135,7.8,10.3,48,0.00,,---,0.00,VWS V14.01,2013-04-25 12:12:00,
2013-04-25 07:13:00,48.2,29.5,25.60,ESE,112,6.9,7.8,48,0.00,,---,0.00,VWS V14.01,2013-04-25 12:13:00,
2013-04-25 07:14:00,48.4,29.6,25.60,SE,135,6.5,6.9,48,0.00,,---,0.00,VWS V14.01,2013-04-25 12:14:00,
2013-04-25 07:15:00,48.6,29.3,25.60,ESE,112,6.5,8.7,47,0.00,,---,0.00,VWS V14.01,2013-04-25 12:15:00,
2013-04-25 07:16:00,48.7,29.4,25.60,ESE,112,7.4,9.0,47,0.00,,---,0.00,VWS V14.01,2013-04-25 12:16:00,
2013-04-25 07:17:00,48.7,29.4,25.60,ESE,112,7.8,7.8,47,0.00,,---,0.00,VWS V14.01,2013-04-25 12:17:00,
2013-04-25 07:18:00,48.7,29.4,25.60,SE,135,7.4,8.5,47,0.00,,---,0.00,VWS V14.01,2013-04-25 12:18:00,
2013-04-25 07:19:00,48.7,29.4,25.60,ESE,112,5.6,7.4,47,0.00,,---,0.00,VWS V14.01,2013-04-25 12:19:00,
2013-04-25 07:20:00,48.9,29.6,25.60,ESE,112,4.9,7.6,47,0.00,,---,0.00,VWS V14.01,2013-04-25 12:20:00,
2013-04-25 07:21:00,48.9,29.6,25.60,ESE,112,7.4,7.4,47,0.00,,---,0.00,VWS V14.01,2013-04-25 12:21:00,
2013-04-25 07:22:00,48.9,29.1,25.60,ESE,112,6.9,7.4,46,0.00,,---,0.00,VWS V14.01,2013-04-25 12:22:00,
2013-04-25 07:23:00,49.1,29.2,25.60,SE,135,6.7,7.8,46,0.00,,---,0.00,VWS V14.01,2013-04-25 12:23:00,
2013-04-25 07:24:00,49.1,29.2,25.60,ESE,112,7.4,8.5,46,0.00,,---,0.00,VWS V14.01,2013-04-25 12:24:00,
2013-04-25 07:25:00,49.1,29.2,25.60,ESE,112,7.4,7.4,46,0.00,,---,0.00,VWS V14.01,2013-04-25 12:25:00,
2013-04-25 07:26:00,49.3,29.4,25.60,SE,135,8.7,8.7,46,0.00,,---,0.00,VWS V14.01,2013-04-25 12:26:00,
2013-04-25 07:27:00,49.3,29.4,25.60,ESE,112,8.7,9.8,46,0.00,,---,0.00,VWS V14.01,2013-04-25 12:27:00,
2013-04-25 07:28:00,49.3,29.4,25.60,ESE,112,7.6,9.8,46,0.00,,---,0.00,VWS V14.01,2013-04-25 12:28:00,
2013-04-25 07:29:00,49.6,30.2,25.60,SSE,158,9.0,9.0,47,0.00,,---,0.00,VWS V14.01,2013-04-25 12:29:00,
2013-04-25 07:30:00,49.8,30.4,25.60,South,180,5.8,9.0,47,0.00,,---,0.00,VWS V14.01,2013-04-25 12:30:00,
2013-04-25 07:31:00,50.2,31.3,25.60,SSE,158,10.1,10.1,48,0.00,,---,0.00,VWS V14.01,2013-04-25 12:31:00,
2013-04-25 07:32:00,50.2,30.8,25.60,ESE,112,7.2,10.1,47,0.00,,---,0.00,VWS V14.01,2013-04-25 12:32:00,
2013-04-25 07:33:00,50.4,30.9,25.60,SSE,158,9.8,9.8,47,0.00,,---,0.00,VWS V14.01,2013-04-25 12:33:00,
2013-04-25 07:34:00,50.5,30.5,25.60,ESE,112,6.0,9.8,46,0.00,,---,0.00,VWS V14.01,2013-04-25 12:34:00,
2013-04-25 07:35:00,50.7,31.2,25.60,SSE,158,7.4,7.4,47,0.00,,---,0.00,VWS V14.01,2013-04-25 12:35:00,
2013-04-25 07:36:00,51.1,32.1,25.60,South,180,4.9,8.1,48,0.00,,---,0.00,VWS V14.01,2013-04-25 12:36:00,
2013-04-25 07:37:00,51.4,31.9,25.60,SSE,158,8.7,8.7,47,0.00,,---,0.00,VWS V14.01,2013-04-25 12:37:00,
2013-04-25 07:38:00,51.6,32.1,25.60,SSE,158,8.1,8.7,47,0.00,,---,0.00,VWS V14.01,2013-04-25 12:38:00,
2013-04-25 07:39:00,51.6,32.1,25.60,SSE,158,6.5,8.1,47,0.00,,---,0.00,VWS V14.01,2013-04-25 12:39:00,
2013-04-25 07:40:00,51.6,32.1,25.60,SSE,158,6.5,6.5,47,0.00,,---,0.00,VWS V14.01,2013-04-25 12:40:00,
2013-04-25 07:41:00,52.0,31.9,25.60,SSE,158,8.1,8.1,46,0.00,,---,0.00,VWS V14.01,2013-04-25 12:41:00,
2013-04-25 07:42:00,52.0,32.4,25.60,SSE,158,8.7,8.7,47,0.00,,---,0.00,VWS V14.01,2013-04-25 12:42:00,
2013-04-25 07:43:00,52.2,32.6,25.60,SSE,158,7.6,10.5,47,0.00,,---,0.00,VWS V14.01,2013-04-25 12:43:00,
2013-04-25 07:44:00,52.3,32.7,25.60,SSE,158,5.4,5.4,47,0.00,,---,0.00,VWS V14.01,2013-04-25 12:44:00,
2013-04-25 07:45:00,52.3,32.7,25.60,SE,135,8.1,8.1,47,0.00,,---,0.00,VWS V14.01,2013-04-25 12:45:00,
2013-04-25 07:46:00,52.7,32.5,25.60,SSE,158,6.0,8.1,46,0.00,,---,0.00,VWS V14.01,2013-04-25 12:46:00,
2013-04-25 07:47:00,52.7,32.5,25.60,SSE,158,5.6,7.8,46,0.00,,---,0.00,VWS V14.01,2013-04-25 12:47:00,
2013-04-25 07:48:00,52.7,32.5,25.60,SSE,158,8.5,8.5,46,0.00,,---,0.00,VWS V14.01,2013-04-25 12:48:00,
2013-04-25 07:49:00,52.9,32.7,25.60,SSE,158,6.3,8.5,46,0.00,,---,0.00,VWS V14.01,2013-04-25 12:49:00,
2013-04-25 07:50:00,53.1,32.8,25.60,SE,135,6.3,8.7,46,0.00,,---,0.00,VWS V14.01,2013-04-25 12:50:00,
2013-04-25 07:51:00,53.2,33.0,25.60,SSE,158,4.9,6.3,46,0.00,,---,0.00,VWS V14.01,2013-04-25 12:51:00,
2013-04-25 07:52:00,53.4,32.6,25.60,South,180,6.3,6.3,45,0.00,,---,0.00,VWS V14.01,2013-04-25 12:52:00,
2013-04-25 07:53:00,53.4,32.6,25.60,SE,135,6.5,10.5,45,0.00,,---,0.00,VWS V14.01,2013-04-25 12:53:00,
2013-04-25 07:54:00,53.6,32.8,25.60,SSE,158,8.1,8.1,45,0.00,,---,0.00,VWS V14.01,2013-04-25 12:54:00,
2013-04-25 07:55:00,53.8,33.0,25.60,SE,135,5.8,8.1,45,0.00,,---,0.00,VWS V14.01,2013-04-25 12:55:00,
2013-04-25 07:56:00,54.0,33.1,25.60,SE,135,3.6,6.0,45,0.00,,---,0.00,VWS V14.01,2013-04-25 12:56:00,
2013-04-25 07:57:00,54.1,32.7,25.60,SSE,158,3.8,7.6,44,0.00,,---,0.00,VWS V14.01,2013-04-25 12:57:00,
2013-04-25 07:58:00,54.3,33.5,25.60,SW,225,7.6,7.6,45,0.00,,---,0.00,VWS V14.01,2013-04-25 12:58:00,
2013-04-25 07:59:00,54.5,33.6,25.60,East,90,6.3,7.6,45,0.00,,---,0.00,VWS V14.01,2013-04-25 12:59:00,
2013-04-25 08:00:00,54.7,33.2,25.60,SSE,158,6.5,6.5,44,0.00,,---,0.00,VWS V14.01,2013-04-25 13:00:00,
2013-04-25 08:01:00,54.7,33.2,25.60,SSE,158,6.3,7.8,44,0.00,,---,0.00,VWS V14.01,2013-04-25 13:01:00,
2013-04-25 08:02:00,54.9,33.4,25.60,South,180,6.3,6.3,44,0.00,,---,0.00,VWS V14.01,2013-04-25 13:02:00,
2013-04-25 08:03:00,54.9,33.4,25.60,East,90,6.9,8.1,44,0.00,,---,0.00,VWS V14.01,2013-04-25 13:03:00,
2013-04-25 08:04:00,55.0,33.5,25.60,South,180,3.6,6.9,44,0.00,,---,0.00,VWS V14.01,2013-04-25 13:04:00,
2013-04-25 08:05:00,55.2,33.7,25.60,South,180,4.9,8.7,44,0.00,,---,0.00,VWS V14.01,2013-04-25 13:05:00,
2013-04-25 08:06:00,55.2,33.7,25.60,SSE,158,5.4,5.8,44,0.00,,---,0.00,VWS V14.01,2013-04-25 13:06:00,
2013-04-25 08:07:00,55.2,33.7,25.60,SE,135,4.0,5.4,44,0.00,,---,0.00,VWS V14.01,2013-04-25 13:07:00,
2013-04-25 08:08:00,55.4,33.3,25.60,South,180,7.2,7.2,43,0.00,,---,0.00,VWS V14.01,2013-04-25 13:08:00,
2013-04-25 08:09:00,55.4,33.3,25.60,South,180,7.2,7.2,43,0.00,,---,0.00,VWS V14.01,2013-04-25 13:09:00,
2013-04-25 08:10:00,55.6,32.9,25.60,SSE,158,6.3,7.2,42,0.00,,---,0.00,VWS V14.01,2013-04-25 13:10:00,
2013-04-25 08:11:00,55.8,33.0,25.60,SSE,158,5.4,6.3,42,0.00,,---,0.00,VWS V14.01,2013-04-25 13:11:00,
2013-04-25 08:12:00,55.9,33.2,25.60,SE,135,8.5,8.5,42,0.00,,---,0.00,VWS V14.01,2013-04-25 13:12:00,
2013-04-25 08:13:00,55.9,33.2,25.60,SE,135,7.4,8.5,42,0.00,,---,0.00,VWS V14.01,2013-04-25 13:13:00,
2013-04-25 08:14:00,56.1,33.4,25.60,SE,135,5.6,8.1,42,0.00,,---,0.00,VWS V14.01,2013-04-25 13:14:00,
2013-04-25 08:15:00,56.1,33.4,25.60,SE,135,6.0,7.6,42,0.00,,---,0.00,VWS V14.01,2013-04-25 13:15:00,
2013-04-25 08:16:00,56.3,33.5,25.60,South,180,5.6,8.5,42,0.00,,---,0.00,VWS V14.01,2013-04-25 13:16:00,
2013-04-25 08:17:00,56.3,32.9,25.60,SSE,158,6.5,6.5,41,0.00,,---,0.00,VWS V14.01,2013-04-25 13:17:00,
2013-04-25 08:18:00,56.5,33.1,25.60,SSE,158,6.3,6.5,41,0.00,,---,0.00,VWS V14.01,2013-04-25 13:18:00,
2013-04-25 08:19:00,56.3,32.9,25.60,South,180,6.3,6.5,41,0.00,,---,0.00,VWS V14.01,2013-04-25 13:19:00,
2013-04-25 08:20:00,56.5,33.1,25.60,SE,135,8.1,9.0,41,0.00,,---,0.00,VWS V14.01,2013-04-25 13:20:00,
2013-04-25 08:21:00,56.5,33.1,25.60,SSE,158,5.6,10.1,41,0.00,,---,0.00,VWS V14.01,2013-04-25 13:21:00,
2013-04-25 08:22:00,56.7,33.2,25.60,SSE,158,6.9,9.6,41,0.00,,---,0.00,VWS V14.01,2013-04-25 13:22:00,
2013-04-25 08:23:00,56.7,33.2,25.60,SSE,158,6.5,10.1,41,0.00,,---,0.00,VWS V14.01,2013-04-25 13:23:00,
2013-04-25 08:24:00,56.8,33.4,25.60,ESE,112,8.7,8.7,41,0.00,,---,0.00,VWS V14.01,2013-04-25 13:24:00,
2013-04-25 08:25:00,56.8,33.4,25.60,ESE,112,8.7,8.7,41,0.00,,---,0.00,VWS V14.01,2013-04-25 13:25:00,
2013-04-25 08:26:00,56.8,33.4,25.60,SE,135,8.7,8.7,41,0.00,,---,0.00,VWS V14.01,2013-04-25 13:26:00,
2013-04-25 08:27:00,56.8,33.4,25.60,South,180,8.1,8.7,41,0.00,,---,0.00,VWS V14.01,2013-04-25 13:27:00,
2013-04-25 08:28:00,56.8,33.4,25.60,SE,135,8.5,8.5,41,0.00,,---,0.00,VWS V14.01,2013-04-25 13:28:00,
2013-04-25 08:29:00,56.8,33.4,25.60,South,180,5.8,8.5,41,0.00,,---,0.00,VWS V14.01,2013-04-25 13:29:00,
2013-04-25 08:30:00,56.8,33.4,25.60,SE,135,7.4,7.8,41,0.00,,---,0.00,VWS V14.01,2013-04-25 13:30:00,
2013-04-25 08:31:00,56.8,33.4,25.60,SSE,158,9.4,9.6,41,0.00,,---,0.00,VWS V14.01,2013-04-25 13:31:00,
2013-04-25 08:32:00,56.8,32.8,25.60,SSE,158,8.1,9.4,40,0.00,,---,0.00,VWS V14.01,2013-04-25 13:32:00,
2013-04-25 08:33:00,57.0,33.0,25.60,SSE,158,6.0,8.1,40,0.00,,---,0.00,VWS V14.01,2013-04-25 13:33:00,
2013-04-25 08:34:00,57.0,33.0,25.60,SSE,158,6.0,6.0,40,0.00,,---,0.00,VWS V14.01,2013-04-25 13:34:00,
2013-04-25 08:35:00,57.4,33.3,25.60,SE,135,7.4,11.4,40,0.00,,---,0.00,VWS V14.01,2013-04-25 13:35:00,
2013-04-25 08:36:00,57.6,33.4,25.60,SSE,158,3.1,7.4,40,0.00,,---,0.00,VWS V14.01,2013-04-25 13:36:00,
2013-04-25 08:37:00,57.6,33.4,25.60,SSE,158,9.2,9.2,40,0.00,,---,0.00,VWS V14.01,2013-04-25 13:37:00,
2013-04-25 08:38:00,57.9,33.1,25.60,SSE,158,8.5,9.2,39,0.00,,---,0.00,VWS V14.01,2013-04-25 13:38:00,
2013-04-25 08:39:00,57.7,33.0,25.60,South,180,11.0,12.5,39,0.00,,---,0.00,VWS V14.01,2013-04-25 13:39:00,
2013-04-25 08:41:00,57.6,32.8,25.60,SSE,158,10.5,11.0,39,0.00,,---,0.00,VWS V14.01,2013-04-25 13:41:00,
2013-04-25 08:42:00,57.7,33.6,25.60,SE,135,7.8,15.4,40,0.00,,---,0.00,VWS V14.01,2013-04-25 13:42:00,
2013-04-25 08:43:00,57.9,33.8,25.60,South,180,7.2,7.8,40,0.00,,---,0.00,VWS V14.01,2013-04-25 13:43:00,
2013-04-25 08:44:00,57.9,33.8,25.60,SSE,158,8.1,11.2,40,0.00,,---,0.00,VWS V14.01,2013-04-25 13:44:00,
2013-04-25 08:45:00,57.7,33.6,25.60,ESE,112,8.7,10.7,40,0.00,,---,0.00,VWS V14.01,2013-04-25 13:45:00,
2013-04-25 08:46:00,58.1,33.3,25.60,South,180,12.1,12.1,39,0.00,,---,0.00,VWS V14.01,2013-04-25 13:46:00,
2013-04-25 08:47:00,58.1,33.3,25.60,SSE,158,11.0,12.1,39,0.00,,---,0.00,VWS V14.01,2013-04-25 13:47:00,
2013-04-25 08:48:00,58.3,33.5,25.60,South,180,7.8,12.3,39,0.00,,---,0.00,VWS V14.01,2013-04-25 13:48:00,
2013-04-25 08:49:00,58.3,33.5,25.60,South,180,7.8,7.8,39,0.00,,---,0.00,VWS V14.01,2013-04-25 13:49:00,
2013-04-25 08:51:00,58.3,33.5,25.60,SSW,202,10.5,10.5,39,0.00,,---,0.00,VWS V14.01,2013-04-25 13:51:00,
2013-04-25 08:52:00,58.1,33.3,25.60,SSE,158,9.6,10.5,39,0.00,,---,0.00,VWS V14.01,2013-04-25 13:52:00,
2013-04-25 08:53:00,58.1,33.3,25.60,SSW,202,8.7,9.6,39,0.00,,---,0.00,VWS V14.01,2013-04-25 13:53:00,
2013-04-25 08:54:00,58.1,33.3,25.60,SSE,158,10.5,10.5,39,0.00,,---,0.00,VWS V14.01,2013-04-25 13:54:00,
2013-04-25 08:55:00,58.3,32.8,25.60,South,180,10.3,10.5,38,0.00,,---,0.00,VWS V14.01,2013-04-25 13:55:00,
2013-04-25 08:56:00,58.3,32.8,25.60,SE,135,10.1,10.3,38,0.00,,---,0.00,VWS V14.01,2013-04-25 13:56:00,
2013-04-25 08:57:00,58.3,32.8,25.60,South,180,6.5,10.1,38,0.00,,---,0.00,VWS V14.01,2013-04-25 13:57:00,
2013-04-25 08:58:00,58.5,33.0,25.60,SSE,158,6.5,10.5,38,0.00,,---,0.00,VWS V14.01,2013-04-25 13:58:00,
2013-04-25 08:59:00,58.8,33.9,25.60,South,180,7.4,7.8,39,0.00,,---,0.00,VWS V14.01,2013-04-25 13:59:00,
2013-04-25 09:00:00,59.0,33.5,25.60,SSE,158,10.1,10.1,38,0.00,,---,0.00,VWS V14.01,2013-04-25 14:00:00,
2013-04-25 09:01:00,59.0,33.5,25.60,SSW,202,6.0,10.1,38,0.00,,---,0.00,VWS V14.01,2013-04-25 14:01:00,
2013-04-25 09:02:00,59.0,33.5,25.60,SSW,202,7.8,7.8,38,0.00,,---,0.00,VWS V14.01,2013-04-25 14:02:00,
2013-04-25 09:03:00,59.0,33.5,25.60,SSW,202,5.6,7.8,38,0.00,,---,0.00,VWS V14.01,2013-04-25 14:03:00,
2013-04-25 09:04:00,59.2,33.6,25.60,SSE,158,7.6,7.6,38,0.00,,---,0.00,VWS V14.01,2013-04-25 14:04:00,
2013-04-25 09:05:00,59.4,33.8,25.60,South,180,6.7,7.6,38,0.00,,---,0.00,VWS V14.01,2013-04-25 14:05:00,
2013-04-25 09:06:00,59.5,33.9,25.60,SSE,158,7.4,7.8,38,0.00,,---,0.00,VWS V14.01,2013-04-25 14:06:00,
2013-04-25 09:07:00,59.4,33.1,25.60,SSW,202,7.6,8.1,37,0.00,,---,0.00,VWS V14.01,2013-04-25 14:07:00,
2013-04-25 09:08:00,59.4,33.1,25.60,SSW,202,6.3,7.6,37,0.00,,---,0.00,VWS V14.01,2013-04-25 14:08:00,
2013-04-25 09:09:00,59.9,33.6,25.60,SSW,202,5.8,7.6,37,0.00,,---,0.00,VWS V14.01,2013-04-25 14:09:00,
2013-04-25 09:10:00,59.9,33.6,25.60,South,180,6.0,8.1,37,0.00,,---,0.00,VWS V14.01,2013-04-25 14:10:00,
2013-04-25 09:12:00,60.1,33.8,25.60,SSW,202,5.4,6.9,37,0.00,,---,0.00,VWS V14.01,2013-04-25 14:12:00,
2013-04-25 09:13:00,60.1,33.8,25.60,South,180,5.4,7.4,37,0.00,,---,0.00,VWS V14.01,2013-04-25 14:13:00,
2013-04-25 09:14:00,60.3,33.9,25.60,SSE,158,5.6,6.5,37,0.00,,---,0.00,VWS V14.01,2013-04-25 14:14:00,
2013-04-25 09:15:00,60.4,34.1,25.60,SSW,202,6.0,6.3,37,0.00,,---,0.00,VWS V14.01,2013-04-25 14:15:00,
2013-04-25 09:16:00,60.6,34.2,25.60,SSW,202,7.6,7.8,37,0.00,,---,0.00,VWS V14.01,2013-04-25 14:16:00,
2013-04-25 09:17:00,60.6,34.2,25.60,SSW,202,8.7,8.7,37,0.00,,---,0.00,VWS V14.01,2013-04-25 14:17:00,
2013-04-25 09:18:00,60.6,34.2,25.60,South,180,5.8,5.8,37,0.00,,---,0.00,VWS V14.01,2013-04-25 14:18:00,
2013-04-25 09:19:00,60.4,34.1,25.60,SSW,202,8.1,8.1,37,0.00,,---,0.00,VWS V14.01,2013-04-25 14:19:00,
2013-04-25 09:20:00,60.4,33.4,25.60,SSW,202,6.3,8.1,36,0.00,,---,0.00,VWS V14.01,2013-04-25 14:20:00,
2013-04-25 09:21:00,60.4,34.1,25.60,SW,225,6.0,9.0,37,0.00,,---,0.00,VWS V14.01,2013-04-25 14:21:00,
2013-04-25 09:22:00,60.6,34.2,25.60,SSW,202,7.4,7.4,37,0.00,,---,0.00,VWS V14.01,2013-04-25 14:22:00,
2013-04-25 09:23:00,61.0,33.9,25.60,South,180,7.8,10.1,36,0.00,,---,0.00,VWS V14.01,2013-04-25 14:23:00,
2013-04-25 09:24:00,61.2,34.0,25.60,South,180,8.1,9.0,36,0.00,,---,0.00,VWS V14.01,2013-04-25 14:24:00,
2013-04-25 09:25:00,61.3,34.2,25.60,South,180,6.5,8.1,36,0.00,,---,0.00,VWS V14.01,2013-04-25 14:25:00,
2013-04-25 09:26:00,61.7,34.5,25.60,SSW,202,7.4,7.4,36,0.00,,---,0.00,VWS V14.01,2013-04-25 14:26:00,
2013-04-25 09:27:00,61.7,34.5,25.60,SSE,158,7.4,7.4,36,0.00,,---,0.00,VWS V14.01,2013-04-25 14:27:00,
2013-04-25 09:28:00,61.9,34.7,25.60,SSW,202,6.5,8.5,36,0.00,,---,0.00,VWS V14.01,2013-04-25 14:28:00,
2013-04-25 09:29:00,61.9,34.7,25.60,SSW,202,8.7,8.7,36,0.00,,---,0.00,VWS V14.01,2013-04-25 14:29:00,
2013-04-25 09:30:00,61.7,34.5,25.60,South,180,7.8,8.7,36,0.00,,---,0.00,VWS V14.01,2013-04-25 14:30:00,
2013-04-25 09:31:00,61.5,34.3,25.60,SSW,202,8.7,8.7,36,0.00,,---,0.00,VWS V14.01,2013-04-25 14:31:00,
2013-04-25 09:32:00,61.7,34.5,25.60,South,180,5.4,8.7,36,0.00,,---,0.00,VWS V14.01,2013-04-25 14:32:00,
2013-04-25 09:33:00,61.9,34.7,25.60,South,180,6.5,7.8,36,0.00,,---,0.00,VWS V14.01,2013-04-25 14:33:00,
2013-04-25 09:34:00,61.7,33.8,25.60,South,180,6.5,9.8,35,0.00,,---,0.00,VWS V14.01,2013-04-25 14:34:00,
2013-04-25 09:35:00,61.9,34.0,25.60,SSE,158,6.5,6.5,35,0.00,,---,0.00,VWS V14.01,2013-04-25 14:35:00,
2013-04-25 09:36:00,62.2,35.0,25.60,SSE,158,8.5,8.5,36,0.00,,---,0.00,VWS V14.01,2013-04-25 14:36:00,
2013-04-25 09:37:00,62.2,35.0,25.60,SSE,158,9.0,9.2,36,0.00,,---,0.00,VWS V14.01,2013-04-25 14:37:00,
2013-04-25 09:38:00,62.4,34.4,25.60,SW,225,6.5,13.0,35,0.00,,---,0.00,VWS V14.01,2013-04-25 14:38:00,
2013-04-25 09:39:00,62.6,34.6,25.60,South,180,8.1,9.0,35,0.00,,---,0.00,VWS V14.01,2013-04-25 14:39:00,
2013-04-25 09:40:00,62.6,34.6,25.60,SE,135,8.5,8.5,35,0.00,,---,0.00,VWS V14.01,2013-04-25 14:40:00,
2013-04-25 09:41:00,62.6,34.6,25.60,SSE,158,8.5,8.5,35,0.00,,---,0.00,VWS V14.01,2013-04-25 14:41:00,
2013-04-25 09:42:00,62.8,34.8,25.60,ESE,112,11.9,12.5,35,0.00,,---,0.00,VWS V14.01,2013-04-25 14:42:00,
2013-04-25 09:43:00,62.8,34.8,25.60,South,180,9.6,12.8,35,0.00,,---,0.00,VWS V14.01,2013-04-25 14:43:00,
2013-04-25 09:44:00,62.8,34.8,25.60,South,180,4.9,10.1,35,0.00,,---,0.00,VWS V14.01,2013-04-25 14:44:00,
2013-04-25 09:45:00,63.0,34.9,25.60,South,180,10.3,13.0,35,0.00,,---,0.00,VWS V14.01,2013-04-25 14:45:00,
2013-04-25 09:46:00,63.1,35.1,25.60,South,180,6.3,10.3,35,0.00,,---,0.00,VWS V14.01,2013-04-25 14:46:00,
2013-04-25 09:47:00,63.1,35.1,25.60,South,180,7.8,12.3,35,0.00,,---,0.00,VWS V14.01,2013-04-25 14:47:00,
2013-04-25 09:48:00,63.0,34.2,25.60,South,180,9.6,10.1,34,0.00,,---,0.00,VWS V14.01,2013-04-25 14:48:00,
2013-04-25 09:49:00,63.0,34.2,25.60,SE,135,12.8,12.8,34,0.00,,---,0.00,VWS V14.01,2013-04-25 14:49:00,
2013-04-25 09:50:00,63.1,34.3,25.60,SE,135,8.7,12.8,34,0.00,,---,0.00,VWS V14.01,2013-04-25 14:50:00,
2013-04-25 09:51:00,63.5,34.7,25.60,South,180,7.8,10.3,34,0.00,,---,0.00,VWS V14.01,2013-04-25 14:51:00,
2013-04-25 09:52:00,63.3,34.5,25.60,South,180,9.0,9.6,34,0.00,,---,0.00,VWS V14.01,2013-04-25 14:52:00,
2013-04-25 09:53:00,62.8,34.0,25.60,South,180,13.2,13.2,34,0.00,,---,0.00,VWS V14.01,2013-04-25 14:53:00,
2013-04-25 09:54:00,62.8,34.0,25.60,SSE,158,7.8,13.2,34,0.00,,---,0.00,VWS V14.01,2013-04-25 14:54:00,
2013-04-25 09:55:00,63.0,34.2,25.60,SSE,158,12.8,12.8,34,0.00,,---,0.00,VWS V14.01,2013-04-25 14:55:00,
2013-04-25 09:56:00,63.0,34.2,25.60,SSE,158,10.7,12.8,34,0.00,,---,0.00,VWS V14.01,2013-04-25 14:56:00,
2013-04-25 09:57:00,63.5,34.7,25.60,South,180,6.5,10.7,34,0.00,,---,0.00,VWS V14.01,2013-04-25 14:57:00,
2013-04-25 09:58:00,63.7,34.8,25.60,SE,135,12.3,13.0,34,0.00,,---,0.00,VWS V14.01,2013-04-25 14:58:00,
2013-04-25 09:59:00,63.7,34.8,25.60,SSW,202,10.5,12.3,34,0.00,,---,0.00,VWS V14.01,2013-04-25 14:59:00,
2013-04-25 10:00:00,63.7,34.8,25.60,South,180,7.6,10.7,34,0.00,,---,0.00,VWS V14.01,2013-04-25 15:00:00,
2013-04-25 10:01:00,64.0,35.1,25.60,South,180,7.6,7.6,34,0.00,,---,0.00,VWS V14.01,2013-04-25 15:01:00,
2013-04-25 10:02:00,64.2,35.3,25.60,SE,135,8.5,12.1,34,0.00,,---,0.00,VWS V14.01,2013-04-25 15:02:00,
2013-04-25 10:03:00,64.2,35.3,25.60,SSE,158,11.0,11.0,34,0.00,,---,0.00,VWS V14.01,2013-04-25 15:03:00,
2013-04-25 10:04:00,64.9,35.2,25.60,SE,135,7.4,11.0,33,0.00,,---,0.00,VWS V14.01,2013-04-25 15:04:00,
2013-04-25 10:05:00,65.1,35.3,25.60,SSE,158,5.6,11.0,33,0.00,,---,0.00,VWS V14.01,2013-04-25 15:05:00,
2013-04-25 10:06:00,65.1,35.3,25.60,SSW,202,6.5,6.5,33,0.00,,---,0.00,VWS V14.01,2013-04-25 15:06:00,
2013-04-25 10:07:00,65.3,35.5,25.60,SSW,202,7.4,7.6,33,0.00,,---,0.00,VWS V14.01,2013-04-25 15:07:00,
2013-04-25 10:08:00,64.9,35.2,25.60,SSW,202,8.5,8.5,33,0.00,,---,0.00,VWS V14.01,2013-04-25 15:08:00,
2013-04-25 10:09:00,64.9,35.2,25.57,SSE,158,11.9,11.9,33,0.00,,---,0.00,VWS V14.01,2013-04-25 15:09:00,
2013-04-25 10:10:00,65.1,35.3,25.57,SSE,158,8.5,11.9,33,0.00,,---,0.00,VWS V14.01,2013-04-25 15:10:00,
2013-04-25 10:12:00,65.3,35.5,25.57,South,180,8.5,9.6,33,0.00,,---,0.00,VWS V14.01,2013-04-25 15:12:00,
2013-04-25 10:13:00,65.1,35.3,25.57,South,180,7.6,9.8,33,0.00,,---,0.00,VWS V14.01,2013-04-25 15:13:00,
2013-04-25 10:14:00,64.9,35.2,25.57,South,180,3.8,7.6,33,0.00,,---,0.00,VWS V14.01,2013-04-25 15:14:00,
2013-04-25 10:15:00,64.8,35.0,25.57,South,180,7.4,10.7,33,0.00,,---,0.00,VWS V14.01,2013-04-25 15:15:00,
2013-04-25 10:16:00,64.8,35.0,25.57,SSW,202,13.2,13.2,33,0.00,,---,0.00,VWS V14.01,2013-04-25 15:16:00,
2013-04-25 10:18:00,64.4,34.7,25.57,South,180,8.5,13.2,33,0.00,,---,0.00,VWS V14.01,2013-04-25 15:18:00,
2013-04-25 10:19:00,64.4,34.7,25.57,South,180,10.5,10.5,33,0.00,,---,0.00,VWS V14.01,2013-04-25 15:19:00,
2013-04-25 10:20:00,64.9,35.2,25.57,SSW,202,7.6,10.5,33,0.00,,---,0.00,VWS V14.01,2013-04-25 15:20:00,
2013-04-25 10:21:00,64.9,35.2,25.57,South,180,10.7,10.7,33,0.00,,---,0.00,VWS V14.01,2013-04-25 15:21:00,
2013-04-25 10:22:00,64.9,35.2,25.57,SSE,158,10.3,10.3,33,0.00,,---,0.00,VWS V14.01,2013-04-25 15:22:00,
2013-04-25 10:23:00,65.3,35.5,25.57,SSW,202,10.5,10.5,33,0.00,,---,0.00,VWS V14.01,2013-04-25 15:23:00,
2013-04-25 10:24:00,64.9,35.2,25.57,South,180,12.8,12.8,33,0.00,,---,0.00,VWS V14.01,2013-04-25 15:24:00,
2013-04-25 10:25:00,64.8,35.0,25.57,SSW,202,9.6,12.8,33,0.00,,---,0.00,VWS V14.01,2013-04-25 15:25:00,
2013-04-25 10:26:00,64.8,35.0,25.57,SSE,158,10.5,13.2,33,0.00,,---,0.00,VWS V14.01,2013-04-25 15:26:00,
2013-04-25 10:27:00,65.1,35.3,25.57,SSW,202,11.0,14.5,33,0.00,,---,0.00,VWS V14.01,2013-04-25 15:27:00,
2013-04-25 10:28:00,65.1,34.6,25.57,SSW,202,12.8,12.8,32,0.00,,---,0.00,VWS V14.01,2013-04-25 15:28:00,
2013-04-25 10:29:00,64.9,34.4,25.57,South,180,5.8,12.8,32,0.00,,---,0.00,VWS V14.01,2013-04-25 15:29:00,
2013-04-25 10:30:00,65.5,34.9,25.57,South,180,6.3,9.6,32,0.00,,---,0.00,VWS V14.01,2013-04-25 15:30:00,
2013-04-25 10:31:00,65.7,35.0,25.57,SSE,158,10.1,10.7,32,0.00,,---,0.00,VWS V14.01,2013-04-25 15:31:00,
2013-04-25 10:32:00,66.4,35.7,25.57,SSE,158,11.9,11.9,32,0.00,,---,0.00,VWS V14.01,2013-04-25 15:32:00,
2013-04-25 10:33:00,66.4,35.7,25.57,SE,135,14.5,14.5,32,0.00,,---,0.00,VWS V14.01,2013-04-25 15:33:00,
2013-04-25 10:34:00,66.7,35.2,25.57,SSE,158,7.8,14.5,31,0.00,,---,0.00,VWS V14.01,2013-04-25 15:34:00,
2013-04-25 10:35:00,67.1,35.5,25.57,SSE,158,6.0,9.6,31,0.00,,---,0.00,VWS V14.01,2013-04-25 15:35:00,
2013-04-25 10:36:00,66.7,35.2,25.57,SSW,202,12.1,12.1,31,0.00,,---,0.00,VWS V14.01,2013-04-25 15:36:00,
2013-04-25 10:37:00,65.7,34.2,25.57,SSE,158,6.7,12.1,31,0.00,,---,0.00,VWS V14.01,2013-04-25 15:37:00,
2013-04-25 10:38:00,65.7,34.2,25.57,SSW,202,8.5,9.8,31,0.00,,---,0.00,VWS V14.01,2013-04-25 15:38:00,
2013-04-25 10:39:00,65.7,34.2,25.57,South,180,7.6,8.5,31,0.00,,---,0.00,VWS V14.01,2013-04-25 15:39:00,
2013-04-25 10:40:00,65.7,34.2,25.60,South,180,8.7,13.4,31,0.00,,---,0.00,VWS V14.01,2013-04-25 15:40:00,
2013-04-25 10:41:00,65.7,34.2,25.60,SE,135,8.1,10.3,31,0.00,,---,0.00,VWS V14.01,2013-04-25 15:41:00,
2013-04-25 10:42:00,65.8,34.4,25.60,South,180,10.1,10.5,31,0.00,,---,0.00,VWS V14.01,2013-04-25 15:42:00,
2013-04-25 10:43:00,65.7,34.2,25.60,South,180,5.6,10.3,31,0.00,,---,0.00,VWS V14.01,2013-04-25 15:43:00,
2013-04-25 10:44:00,65.8,35.2,25.60,SSW,202,7.6,9.8,32,0.00,,---,0.00,VWS V14.01,2013-04-25 15:44:00,
2013-04-25 10:45:00,65.3,33.9,25.60,South,180,8.7,12.1,31,0.00,,---,0.00,VWS V14.01,2013-04-25 15:45:00,
2013-04-25 10:46:00,65.3,34.7,25.60,South,180,8.1,8.7,32,0.00,,---,0.00,VWS V14.01,2013-04-25 15:46:00,
2013-04-25 10:47:00,65.3,34.7,25.60,South,180,10.3,10.3,32,0.00,,---,0.00,VWS V14.01,2013-04-25 15:47:00,
2013-04-25 10:48:00,65.3,34.7,25.60,SSW,202,10.5,10.5,32,0.00,,---,0.00,VWS V14.01,2013-04-25 15:48:00,
2013-04-25 10:49:00,65.7,34.2,25.60,SE,135,7.4,10.5,31,0.00,,---,0.00,VWS V14.01,2013-04-25 15:49:00,
2013-04-25 10:50:00,66.2,34.7,25.60,SSW,202,9.6,13.9,31,0.00,,---,0.00,VWS V14.01,2013-04-25 15:50:00,
2013-04-25 10:51:00,66.2,34.7,25.60,SSW,202,6.3,10.3,31,0.00,,---,0.00,VWS V14.01,2013-04-25 15:51:00,
2013-04-25 10:52:00,66.2,34.7,25.60,South,180,6.0,6.3,31,0.00,,---,0.00,VWS V14.01,2013-04-25 15:52:00,
2013-04-25 10:53:00,66.6,35.0,25.60,SSW,202,7.8,7.8,31,0.00,,---,0.00,VWS V14.01,2013-04-25 15:53:00,
2013-04-25 10:54:00,66.9,35.3,25.60,SE,135,11.0,11.9,31,0.00,,---,0.00,VWS V14.01,2013-04-25 15:54:00,
2013-04-25 10:55:00,66.9,35.3,25.60,SSE,158,11.0,11.0,31,0.00,,---,0.00,VWS V14.01,2013-04-25 15:55:00,
2013-04-25 10:56:00,66.9,35.3,25.60,SE,135,12.8,12.8,31,0.00,,---,0.00,VWS V14.01,2013-04-25 15:56:00,
2013-04-25 10:57:00,67.5,35.8,25.60,SSE,158,11.2,12.8,31,0.00,,---,0.00,VWS V14.01,2013-04-25 15:57:00,
2013-04-25 10:58:00,67.5,35.8,25.60,South,180,14.3,14.8,31,0.00,,---,0.00,VWS V14.01,2013-04-25 15:58:00,
2013-04-25 10:59:00,67.5,35.8,25.60,SSE,158,7.8,14.3,31,0.00,,---,0.00,VWS V14.01,2013-04-25 15:59:00,
2013-04-25 11:00:00,67.8,36.1,25.60,SE,135,7.4,12.5,31,0.00,,---,0.00,VWS V14.01,2013-04-25 16:00:00,
2013-04-25 11:01:00,68.0,36.3,25.60,SSE,158,12.1,12.3,31,0.00,,---,0.00,VWS V14.01,2013-04-25 16:01:00,
2013-04-25 11:02:00,68.0,36.3,25.60,SE,135,12.5,12.5,31,0.00,,---,0.00,VWS V14.01,2013-04-25 16:02:00,
2013-04-25 11:03:00,68.0,36.3,25.60,SE,135,12.5,12.5,31,0.00,,---,0.00,VWS V14.01,2013-04-25 16:03:00,
2013-04-25 11:05:00,68.2,35.6,25.60,SSE,158,7.2,12.5,30,0.00,,---,0.00,VWS V14.01,2013-04-25 16:05:00,
2013-04-25 11:06:00,68.2,35.6,25.60,South,180,11.0,11.0,30,0.00,,---,0.00,VWS V14.01,2013-04-25 16:06:00,
2013-04-25 11:07:00,68.4,35.8,25.60,SSW,202,8.5,8.5,30,0.00,,---,0.00,VWS V14.01,2013-04-25 16:07:00,
2013-04-25 11:08:00,68.4,35.8,25.60,SE,135,9.6,9.6,30,0.00,,---,0.00,VWS V14.01,2013-04-25 16:08:00,
2013-04-25 11:09:00,68.4,35.8,25.60,SSE,158,14.5,14.5,30,0.00,,---,0.00,VWS V14.01,2013-04-25 16:09:00,
2013-04-25 11:10:00,68.4,35.8,25.60,South,180,13.0,14.5,30,0.00,,---,0.00,VWS V14.01,2013-04-25 16:10:00,
2013-04-25 11:11:00,68.4,35.8,25.60,South,180,10.1,17.2,30,0.00,,---,0.00,VWS V14.01,2013-04-25 16:11:00,
2013-04-25 11:13:00,68.4,35.8,25.60,SSW,202,9.8,10.5,30,0.00,,---,0.00,VWS V14.01,2013-04-25 16:13:00,
2013-04-25 11:14:00,68.5,35.9,25.60,SSE,158,8.5,8.5,30,0.00,,---,0.00,VWS V14.01,2013-04-25 16:14:00,
2013-04-25 11:15:00,68.5,35.9,25.60,SSW,202,8.5,8.5,30,0.00,,---,0.00,VWS V14.01,2013-04-25 16:15:00,
2013-04-25 11:16:00,68.5,35.9,25.60,South,180,8.1,11.2,30,0.00,,---,0.00,VWS V14.01,2013-04-25 16:16:00,
2013-04-25 11:17:00,68.7,36.1,25.60,SSE,158,10.3,10.5,30,0.00,,---,0.00,VWS V14.01,2013-04-25 16:17:00,
2013-04-25 11:18:00,68.7,35.2,25.60,SSW,202,14.5,14.5,29,0.00,,---,0.00,VWS V14.01,2013-04-25 16:18:00,
2013-04-25 11:19:00,68.2,34.7,25.60,South,180,8.5,14.5,29,0.00,,---,0.00,VWS V14.01,2013-04-25 16:19:00,
2013-04-25 11:20:00,68.2,34.7,25.60,SSW,202,6.5,10.3,29,0.00,,---,0.00,VWS V14.01,2013-04-25 16:20:00,
2013-04-25 11:21:00,68.5,35.9,25.60,SSE,158,10.5,10.5,30,0.00,,---,0.00,VWS V14.01,2013-04-25 16:21:00,
2013-04-25 11:22:00,68.9,36.2,25.60,South,180,3.6,11.9,30,0.00,,---,0.00,VWS V14.01,2013-04-25 16:22:00,
2013-04-25 11:24:00,69.4,36.7,25.60,SSE,158,8.7,12.1,30,0.00,,---,0.00,VWS V14.01,2013-04-25 16:24:00,
2013-04-25 11:25:00,69.6,36.0,25.57,South,180,6.0,10.5,29,0.00,,---,0.00,VWS V14.01,2013-04-25 16:25:00,
2013-04-25 11:26:00,69.3,34.8,25.57,South,180,10.3,10.3,28,0.00,,---,0.00,VWS V14.01,2013-04-25 16:26:00,
2013-04-25 11:27:00,69.6,36.0,25.57,SSW,202,8.5,10.3,29,0.00,,---,0.00,VWS V14.01,2013-04-25 16:27:00,
2013-04-25 11:28:00,69.8,35.3,25.57,SE,135,7.4,10.1,28,0.00,,---,0.00,VWS V14.01,2013-04-25 16:28:00,
2013-04-25 11:29:00,70.2,35.6,25.57,SSE,158,8.1,9.8,28,0.00,,---,0.00,VWS V14.01,2013-04-25 16:29:00,
2013-04-25 11:30:00,69.8,34.3,25.57,South,180,7.4,15.4,27,0.00,,---,0.00,VWS V14.01,2013-04-25 16:30:00,
2013-04-25 11:31:00,69.4,35.0,25.57,South,180,5.4,8.5,28,0.00,,---,0.00,VWS V14.01,2013-04-25 16:31:00,
2013-04-25 11:32:00,69.6,35.1,25.57,SSW,202,8.5,15.4,28,0.00,,---,0.00,VWS V14.01,2013-04-25 16:32:00,
2013-04-25 11:33:00,69.6,35.1,25.57,South,180,12.1,14.5,28,0.00,,---,0.00,VWS V14.01,2013-04-25 16:33:00,
2013-04-25 11:34:00,69.4,35.0,25.57,SSW,202,9.8,12.1,28,0.00,,---,0.00,VWS V14.01,2013-04-25 16:34:00,
2013-04-25 11:35:00,69.4,35.0,25.57,South,180,11.0,11.0,28,0.00,,---,0.00,VWS V14.01,2013-04-25 16:35:00,
2013-04-25 11:36:00,69.3,34.8,25.57,South,180,6.5,11.0,28,0.00,,---,0.00,VWS V14.01,2013-04-25 16:36:00,
2013-04-25 11:37:00,69.1,34.6,25.57,South,180,10.3,10.3,28,0.00,,---,0.00,VWS V14.01,2013-04-25 16:37:00,
2013-04-25 11:38:00,68.9,34.5,25.57,SSE,158,12.5,12.5,28,0.00,,---,0.00,VWS V14.01,2013-04-25 16:38:00,
2013-04-25 11:39:00,69.3,34.8,25.60,South,180,13.0,13.2,28,0.00,,---,0.00,VWS V14.01,2013-04-25 16:39:00,
2013-04-25 11:40:00,69.4,35.0,25.60,SSE,158,6.5,15.2,28,0.00,,---,0.00,VWS V14.01,2013-04-25 16:40:00,
2013-04-25 11:41:00,70.0,34.5,25.60,ESE,112,6.5,12.8,27,0.00,,---,0.00,VWS V14.01,2013-04-25 16:41:00,
2013-04-25 11:42:00,70.5,35.9,25.60,SSE,158,9.8,10.1,28,0.00,,---,0.00,VWS V14.01,2013-04-25 16:42:00,
2013-04-25 11:43:00,70.2,34.7,25.60,SSE,158,13.2,13.6,27,0.00,,---,0.00,VWS V14.01,2013-04-25 16:43:00,
2013-04-25 11:44:00,69.8,34.3,25.60,SSE,158,7.6,13.2,27,0.00,,---,0.00,VWS V14.01,2013-04-25 16:44:00,
2013-04-25 11:45:00,69.8,34.3,25.60,SSE,158,13.4,13.4,27,0.00,,---,0.00,VWS V14.01,2013-04-25 16:45:00,
2013-04-25 11:46:00,70.3,34.8,25.60,South,180,6.3,13.4,27,0.00,,---,0.00,VWS V14.01,2013-04-25 16:46:00,
2013-04-25 11:47:00,70.3,34.8,25.60,South,180,6.5,7.6,27,0.00,,---,0.00,VWS V14.01,2013-04-25 16:47:00,
2013-04-25 11:48:00,70.7,35.1,25.60,SE,135,7.6,12.1,27,0.00,,---,0.00,VWS V14.01,2013-04-25 16:48:00,
2013-04-25 11:49:00,71.2,34.6,25.60,SSW,202,10.3,10.3,26,0.00,,---,0.00,VWS V14.01,2013-04-25 16:49:00,
2013-04-25 11:50:00,71.2,34.6,25.60,South,180,11.0,11.0,26,0.00,,---,0.00,VWS V14.01,2013-04-25 16:50:00,
2013-04-25 11:51:00,71.1,34.5,25.60,SSE,158,11.0,12.5,26,0.00,,---,0.00,VWS V14.01,2013-04-25 16:51:00,
2013-04-25 11:52:00,71.2,34.6,25.60,SSW,202,10.5,11.0,26,0.00,,---,0.00,VWS V14.01,2013-04-25 16:52:00,
2013-04-25 11:53:00,70.9,34.3,25.60,SSW,202,7.4,10.5,26,0.00,,---,0.00,VWS V14.01,2013-04-25 16:53:00,
2013-04-25 11:54:00,70.9,34.3,25.60,SSE,158,8.7,10.3,26,0.00,,---,0.00,VWS V14.01,2013-04-25 16:54:00,
2013-04-25 11:55:00,70.9,34.3,25.60,SSE,158,17.2,17.2,26,0.00,,---,0.00,VWS V14.01,2013-04-25 16:55:00,
2013-04-25 11:56:00,71.1,34.5,25.60,South,180,7.8,17.2,26,0.00,,---,0.00,VWS V14.01,2013-04-25 16:56:00,
2013-04-25 11:57:00,71.1,34.5,25.60,South,180,8.1,8.1,26,0.00,,---,0.00,VWS V14.01,2013-04-25 16:57:00,
2013-04-25 11:58:00,71.4,34.8,25.60,SSE,158,10.3,10.3,26,0.00,,---,0.00,VWS V14.01,2013-04-25 16:58:00,
2013-04-25 11:59:00,71.4,34.8,25.60,South,180,9.8,13.2,26,0.00,,---,0.00,VWS V14.01,2013-04-25 16:59:00,
2013-04-25 12:00:00,71.1,34.5,25.60,South,180,7.4,9.8,26,0.00,,---,0.00,VWS V14.01,2013-04-25 17:00:00,
2013-04-25 12:01:00,70.7,34.2,25.60,South,180,6.7,7.6,26,0.00,,---,0.00,VWS V14.01,2013-04-25 17:01:00,
2013-04-25 12:02:00,71.1,34.5,25.60,SSE,158,5.8,8.7,26,0.00,,---,0.00,VWS V14.01,2013-04-25 17:02:00,
2013-04-25 12:03:00,71.1,34.5,25.60,South,180,11.0,11.0,26,0.00,,---,0.00,VWS V14.01,2013-04-25 17:03:00,
2013-04-25 12:04:00,71.8,34.1,25.60,SSW,202,10.1,11.0,25,0.00,,---,0.00,VWS V14.01,2013-04-25 17:04:00,
2013-04-25 12:05:00,71.4,34.8,25.60,SSE,158,7.6,10.3,26,0.00,,---,0.00,VWS V14.01,2013-04-25 17:05:00,
2013-04-25 12:06:00,71.8,34.1,25.60,South,180,6.3,12.3,25,0.00,,---,0.00,VWS V14.01,2013-04-25 17:06:00,
2013-04-25 12:07:00,71.6,34.0,25.60,SSW,202,10.1,12.3,25,0.00,,---,0.00,VWS V14.01,2013-04-25 17:07:00,
2013-04-25 12:08:00,71.2,33.6,25.60,SSW,202,12.5,12.5,25,0.00,,---,0.00,VWS V14.01,2013-04-25 17:08:00,
2013-04-25 12:09:00,70.7,33.2,25.60,SSW,202,8.1,12.5,25,0.00,,---,0.00,VWS V14.01,2013-04-25 17:09:00,
2013-04-25 12:10:00,70.5,33.0,25.60,SSW,202,7.8,8.1,25,0.00,,---,0.00,VWS V14.01,2013-04-25 17:10:00,
2013-04-25 12:11:00,71.1,34.5,25.60,South,180,8.7,8.7,26,0.00,,---,0.00,VWS V14.01,2013-04-25 17:11:00,
2013-04-25 12:12:00,70.9,33.3,25.60,South,180,15.2,15.2,25,0.00,,---,0.00,VWS V14.01,2013-04-25 17:12:00,
2013-04-25 12:13:00,70.9,33.3,25.60,South,180,6.0,15.2,25,0.00,,---,0.00,VWS V14.01,2013-04-25 17:13:00,
2013-04-25 12:14:00,71.2,34.6,25.60,SW,225,6.7,6.7,26,0.00,,---,0.00,VWS V14.01,2013-04-25 17:14:00,
2013-04-25 12:15:00,71.6,34.0,25.60,SE,135,9.4,10.7,25,0.00,,---,0.00,VWS V14.01,2013-04-25 17:15:00,
2013-04-25 12:16:00,71.6,34.0,25.60,SSW,202,8.5,10.3,25,0.00,,---,0.00,VWS V14.01,2013-04-25 17:16:00,
2013-04-25 12:17:00,71.8,34.1,25.60,SSW,202,6.3,8.7,25,0.00,,---,0.00,VWS V14.01,2013-04-25 17:17:00,
2013-04-25 12:18:00,71.8,34.1,25.60,SSW,202,6.3,6.3,25,0.00,,---,0.00,VWS V14.01,2013-04-25 17:18:00,
2013-04-25 12:19:00,72.7,34.9,25.60,ESE,112,6.0,9.4,25,0.00,,---,0.00,VWS V14.01,2013-04-25 17:19:00,
2013-04-25 12:20:00,73.4,35.5,25.60,South,180,8.1,8.1,25,0.00,,---,0.00,VWS V14.01,2013-04-25 17:20:00,
2013-04-25 12:21:00,73.4,35.5,25.60,SE,135,5.8,8.1,25,0.00,,---,0.00,VWS V14.01,2013-04-25 17:21:00,
2013-04-25 12:22:00,73.8,34.8,25.60,SSE,158,10.3,12.3,24,0.00,,---,0.00,VWS V14.01,2013-04-25 17:22:00,
2013-04-25 12:23:00,73.8,34.8,25.60,South,180,8.1,11.0,24,0.00,,---,0.00,VWS V14.01,2013-04-25 17:23:00,
2013-04-25 12:24:00,73.8,34.8,25.57,SSE,158,2.9,8.1,24,0.00,,---,0.00,VWS V14.01,2013-04-25 17:24:00,
2013-04-25 12:25:00,74.3,35.2,25.57,South,180,11.9,11.9,24,0.00,,---,0.00,VWS V14.01,2013-04-25 17:25:00,
2013-04-25 12:26:00,75.0,35.8,25.57,SSE,158,6.3,11.9,24,0.00,,---,0.00,VWS V14.01,2013-04-25 17:26:00,
2013-04-25 12:27:00,74.8,35.7,25.57,SSE,158,10.5,10.5,24,0.00,,---,0.00,VWS V14.01,2013-04-25 17:27:00,
2013-04-25 12:28:00,75.0,35.8,25.57,South,180,6.7,10.5,24,0.00,,---,0.00,VWS V14.01,2013-04-25 17:28:00,
2013-04-25 12:30:00,75.2,36.0,25.57,SSE,158,5.4,14.5,24,0.00,,---,0.00,VWS V14.01,2013-04-25 17:30:00,
2013-04-25 12:31:00,75.4,36.1,25.57,SSE,158,16.6,16.6,24,0.00,,---,0.00,VWS V14.01,2013-04-25 17:31:00,
2013-04-25 12:32:00,75.4,35.0,25.57,SSW,202,8.1,8.1,23,0.00,,---,0.00,VWS V14.01,2013-04-25 17:32:00,
2013-04-25 12:33:00,74.8,34.6,25.57,SSE,158,13.2,13.2,23,0.00,,---,0.00,VWS V14.01,2013-04-25 17:33:00,
2013-04-25 12:34:00,74.8,34.6,25.57,SSE,158,10.7,13.2,23,0.00,,---,0.00,VWS V14.01,2013-04-25 17:34:00,
2013-04-25 12:35:00,74.8,34.6,25.57,SSE,158,6.0,10.7,23,0.00,,---,0.00,VWS V14.01,2013-04-25 17:35:00,
2013-04-25 12:36:00,74.8,34.6,25.57,ESE,112,11.0,13.0,23,0.00,,---,0.00,VWS V14.01,2013-04-25 17:36:00,
2013-04-25 12:37:00,75.2,34.9,25.57,SE,135,10.3,11.0,23,0.00,,---,0.00,VWS V14.01,2013-04-25 17:37:00,
2013-04-25 12:38:00,75.4,35.0,25.57,SSE,158,14.1,16.6,23,0.00,,---,0.00,VWS V14.01,2013-04-25 17:38:00,
2013-04-25 12:39:00,75.4,35.0,25.57,South,180,10.3,14.1,23,0.00,,---,0.00,VWS V14.01,2013-04-25 17:39:00,
2013-04-25 12:40:00,75.4,35.0,25.57,South,180,13.9,14.1,23,0.00,,---,0.00,VWS V14.01,2013-04-25 17:40:00,
2013-04-25 12:41:00,75.6,35.2,25.54,SSE,158,7.8,15.2,23,0.00,,---,0.00,VWS V14.01,2013-04-25 17:41:00,
2013-04-25 12:42:00,75.6,35.2,25.54,South,180,8.7,10.7,23,0.00,,---,0.00,VWS V14.01,2013-04-25 17:42:00,
2013-04-25 12:43:00,75.7,35.3,25.54,SSE,158,7.8,15.7,23,0.00,,---,0.00,VWS V14.01,2013-04-25 17:43:00,
2013-04-25 12:44:00,75.9,35.5,25.54,South,180,15.9,15.9,23,0.00,,---,0.00,VWS V14.01,2013-04-25 17:44:00,
2013-04-25 12:45:00,75.7,35.3,25.54,SE,135,17.2,17.2,23,0.00,,---,0.00,VWS V14.01,2013-04-25 17:45:00,
2013-04-25 12:46:00,75.2,34.9,25.54,SSE,158,9.6,17.2,23,0.00,,---,0.00,VWS V14.01,2013-04-25 17:46:00,
2013-04-25 12:47:00,75.4,35.0,25.54,SE,135,17.5,17.5,23,0.00,,---,0.00,VWS V14.01,2013-04-25 17:47:00,
2013-04-25 12:48:00,75.2,34.9,25.54,SE,135,19.9,19.9,23,0.00,,---,0.00,VWS V14.01,2013-04-25 17:48:00,
2013-04-25 12:49:00,74.8,34.6,25.54,SE,135,13.0,20.1,23,0.00,,---,0.00,VWS V14.01,2013-04-25 17:49:00,
2013-04-25 12:50:00,74.8,34.6,25.54,SE,135,13.0,14.1,23,0.00,,---,0.00,VWS V14.01,2013-04-25 17:50:00,
2013-04-25 12:51:00,74.8,34.6,25.54,SSE,158,15.2,15.2,23,0.00,,---,0.00,VWS V14.01,2013-04-25 17:51:00,
2013-04-25 12:52:00,75.4,35.0,25.54,SE,135,17.2,22.8,23,0.00,,---,0.00,VWS V14.01,2013-04-25 17:52:00,
2013-04-25 12:53:00,75.4,35.0,25.54,SE,135,19.0,19.0,23,0.00,,---,0.00,VWS V14.01,2013-04-25 17:53:00,
2013-04-25 12:54:00,75.4,35.0,25.54,SSE,158,10.5,19.9,23,0.00,,---,0.00,VWS V14.01,2013-04-25 17:54:00,
2013-04-25 12:55:00,75.6,35.2,25.54,SE,135,21.0,21.0,23,0.00,,---,0.00,VWS V14.01,2013-04-25 17:55:00,
2013-04-25 12:56:00,75.9,35.5,25.54,SE,135,7.4,21.0,23,0.00,,---,0.00,VWS V14.01,2013-04-25 17:56:00,
2013-04-25 12:57:00,76.3,35.8,25.54,SSE,158,9.8,15.7,23,0.00,,---,0.00,VWS V14.01,2013-04-25 17:57:00,
2013-04-25 12:58:00,76.1,35.7,25.54,SSE,158,12.8,19.2,23,0.00,,---,0.00,VWS V14.01,2013-04-25 17:58:00,
2013-04-25 12:59:00,76.3,35.8,25.54,SSE,158,13.0,19.9,23,0.00,,---,0.00,VWS V14.01,2013-04-25 17:59:00,
2013-04-25 13:00:00,76.3,35.8,25.54,ESE,112,15.4,15.4,23,0.00,,---,0.00,VWS V14.01,2013-04-25 18:00:00,
2013-04-25 13:01:00,76.5,36.0,25.54,SSE,158,12.5,15.4,23,0.00,,---,0.00,VWS V14.01,2013-04-25 18:01:00,
2013-04-25 13:02:00,76.6,36.1,25.54,SE,135,12.3,19.5,23,0.00,,---,0.00,VWS V14.01,2013-04-25 18:02:00,
2013-04-25 13:03:00,76.5,34.8,25.54,SE,135,13.0,13.6,22,0.00,,---,0.00,VWS V14.01,2013-04-25 18:03:00,
2013-04-25 13:04:00,76.5,34.8,25.54,South,180,11.4,18.6,22,0.00,,---,0.00,VWS V14.01,2013-04-25 18:04:00,
2013-04-25 13:05:00,76.1,34.5,25.54,SE,135,19.0,19.0,22,0.00,,---,0.00,VWS V14.01,2013-04-25 18:05:00,
2013-04-25 13:06:00,75.9,34.4,25.54,SSE,158,8.7,19.0,22,0.00,,---,0.00,VWS V14.01,2013-04-25 18:06:00,
2013-04-25 13:07:00,75.9,34.4,25.54,SE,135,12.3,17.5,22,0.00,,---,0.00,VWS V14.01,2013-04-25 18:07:00,
2013-04-25 13:08:00,76.3,34.7,25.54,South,180,9.2,12.3,22,0.00,,---,0.00,VWS V14.01,2013-04-25 18:08:00,
2013-04-25 13:10:00,76.3,34.7,25.54,South,180,9.2,9.2,22,0.00,,---,0.00,VWS V14.01,2013-04-25 18:10:00,
2013-04-25 13:11:00,77.4,35.6,25.57,SSE,158,9.2,10.7,22,0.00,,---,0.00,VWS V14.01,2013-04-25 18:11:00,
2013-04-25 13:12:00,77.2,35.4,25.57,ESE,112,12.5,12.5,22,0.00,,---,0.00,VWS V14.01,2013-04-25 18:12:00,
2013-04-25 13:13:00,76.8,35.1,25.57,SE,135,13.2,17.7,22,0.00,,---,0.00,VWS V14.01,2013-04-25 18:13:00,
2013-04-25 13:14:00,77.5,35.7,25.57,SE,135,10.3,13.2,22,0.00,,---,0.00,VWS V14.01,2013-04-25 18:14:00,
2013-04-25 13:15:00,77.5,35.7,25.57,South,180,13.4,13.4,22,0.00,,---,0.00,VWS V14.01,2013-04-25 18:15:00,
2013-04-25 13:16:00,77.0,35.3,25.57,South,180,14.5,14.5,22,0.00,,---,0.00,VWS V14.01,2013-04-25 18:16:00,
2013-04-25 13:17:00,77.2,35.4,25.57,SSE,158,13.2,14.5,22,0.00,,---,0.00,VWS V14.01,2013-04-25 18:17:00,
2013-04-25 13:18:00,77.2,35.4,25.57,ESE,112,12.1,15.9,22,0.00,,---,0.00,VWS V14.01,2013-04-25 18:18:00,
2013-04-25 13:19:00,77.2,35.4,25.57,SE,135,11.0,12.8,22,0.00,,---,0.00,VWS V14.01,2013-04-25 18:19:00,
2013-04-25 13:20:00,77.4,35.6,25.57,SE,135,14.1,14.1,22,0.00,,---,0.00,VWS V14.01,2013-04-25 18:20:00,
2013-04-25 13:21:00,77.7,35.9,25.57,SSW,202,9.8,14.1,22,0.00,,---,0.00,VWS V14.01,2013-04-25 18:21:00,
2013-04-25 13:22:00,78.1,36.2,25.57,SE,135,12.1,12.1,22,0.00,,---,0.00,VWS V14.01,2013-04-25 18:22:00,
2013-04-25 13:23:00,77.4,34.4,25.57,SSE,158,11.0,16.1,21,0.00,,---,0.00,VWS V14.01,2013-04-25 18:23:00,
2013-04-25 13:24:00,77.4,35.6,25.54,SSE,158,6.5,11.0,22,0.00,,---,0.00,VWS V14.01,2013-04-25 18:24:00,
2013-04-25 13:26:00,77.9,36.0,25.54,SSE,158,12.3,12.3,22,0.00,,---,0.00,VWS V14.01,2013-04-25 18:26:00,
2013-04-25 13:27:00,77.0,34.1,25.54,SSE,158,13.6,14.5,21,0.00,,---,0.00,VWS V14.01,2013-04-25 18:27:00,
2013-04-25 13:28:00,77.4,34.4,25.54,South,180,7.6,13.6,21,0.00,,---,0.00,VWS V14.01,2013-04-25 18:28:00,
2013-04-25 13:29:00,78.1,36.2,25.54,WSW,248,7.6,7.6,22,0.00,,---,0.00,VWS V14.01,2013-04-25 18:29:00,
2013-04-25 13:30:00,78.3,35.2,25.54,ESE,112,9.6,10.7,21,0.00,,---,0.00,VWS V14.01,2013-04-25 18:30:00,
2013-04-25 13:31:00,77.9,34.9,25.54,SSE,158,9.8,17.7,21,0.00,,---,0.00,VWS V14.01,2013-04-25 18:31:00,
2013-04-25 13:32:00,78.4,35.3,25.54,SE,135,10.7,11.0,21,0.00,,---,0.00,VWS V14.01,2013-04-25 18:32:00,
2013-04-25 13:33:00,78.1,35.0,25.54,South,180,10.1,17.0,21,0.00,,---,0.00,VWS V14.01,2013-04-25 18:33:00,
2013-04-25 13:34:00,77.7,34.7,25.54,SSE,158,14.8,14.8,21,0.00,,---,0.00,VWS V14.01,2013-04-25 18:34:00,
2013-04-25 13:35:00,77.9,34.9,25.54,South,180,10.5,19.2,21,0.00,,---,0.00,VWS V14.01,2013-04-25 18:35:00,
2013-04-25 13:36:00,77.9,34.9,25.54,SSE,158,6.5,14.8,21,0.00,,---,0.00,VWS V14.01,2013-04-25 18:36:00,
2013-04-25 13:37:00,78.6,35.5,25.54,South,180,10.3,10.3,21,0.00,,---,0.00,VWS V14.01,2013-04-25 18:37:00,
2013-04-25 13:38:00,78.8,35.6,25.54,SE,135,12.5,13.2,21,0.00,,---,0.00,VWS V14.01,2013-04-25 18:38:00,
2013-04-25 13:39:00,78.8,35.6,25.51,SSE,158,11.4,14.1,21,0.00,,---,0.00,VWS V14.01,2013-04-25 18:39:00,
2013-04-25 13:40:00,78.6,35.5,25.51,SSE,158,10.1,20.4,21,0.00,,---,0.00,VWS V14.01,2013-04-25 18:40:00,
2013-04-25 13:41:00,79.2,35.9,25.51,SSW,202,4.5,12.3,21,0.00,,---,0.00,VWS V14.01,2013-04-25 18:41:00,
2013-04-25 13:42:00,78.8,35.6,25.51,SSW,202,12.8,22.2,21,0.00,,---,0.00,VWS V14.01,2013-04-25 18:42:00,
2013-04-25 13:43:00,78.6,35.5,25.51,ESE,112,14.5,14.5,21,0.00,,---,0.00,VWS V14.01,2013-04-25 18:43:00,
2013-04-25 13:44:00,78.6,35.5,25.51,SSE,158,10.7,14.5,21,0.00,,---,0.00,VWS V14.01,2013-04-25 18:44:00,
2013-04-25 13:45:00,78.8,35.6,25.51,South,180,10.7,12.3,21,0.00,,---,0.00,VWS V14.01,2013-04-25 18:45:00,
2013-04-25 13:46:00,79.2,35.9,25.51,SSE,158,10.3,10.3,21,0.00,,---,0.00,VWS V14.01,2013-04-25 18:46:00,
2013-04-25 13:47:00,79.5,36.2,25.51,South,180,15.2,15.2,21,0.00,,---,0.00,VWS V14.01,2013-04-25 18:47:00,
2013-04-25 13:48:00,78.8,35.6,25.51,South,180,13.0,15.2,21,0.00,,---,0.00,VWS V14.01,2013-04-25 18:48:00,
2013-04-25 13:49:00,78.8,35.6,25.51,South,180,10.3,13.2,21,0.00,,---,0.00,VWS V14.01,2013-04-25 18:49:00,
2013-04-25 13:50:00,78.6,35.5,25.51,SSE,158,15.9,15.9,21,0.00,,---,0.00,VWS V14.01,2013-04-25 18:50:00,
2013-04-25 13:51:00,78.6,35.5,25.51,SSE,158,15.9,15.9,21,0.00,,---,0.00,VWS V14.01,2013-04-25 18:51:00,
2013-04-25 13:52:00,78.8,35.6,25.51,SSE,158,12.5,15.9,21,0.00,,---,0.00,VWS V14.01,2013-04-25 18:52:00,
2013-04-25 13:53:00,79.0,35.8,25.51,SSW,202,11.2,17.7,21,0.00,,---,0.00,VWS V14.01,2013-04-25 18:53:00,
2013-04-25 13:54:00,79.2,35.9,25.54,SSE,158,13.9,13.9,21,0.00,,---,0.00,VWS V14.01,2013-04-25 18:54:00,
2013-04-25 13:55:00,79.2,35.9,25.54,South,180,17.7,19.9,21,0.00,,---,0.00,VWS V14.01,2013-04-25 18:55:00,
2013-04-25 13:56:00,78.6,35.5,25.54,SSW,202,12.5,17.7,21,0.00,,---,0.00,VWS V14.01,2013-04-25 18:56:00,
2013-04-25 13:57:00,79.0,35.8,25.54,SSE,158,14.8,15.4,21,0.00,,---,0.00,VWS V14.01,2013-04-25 18:57:00,
2013-04-25 13:58:00,79.0,34.5,25.54,South,180,11.0,14.8,20,0.00,,---,0.00,VWS V14.01,2013-04-25 18:58:00,
2013-04-25 13:59:00,79.3,36.0,25.54,SSE,158,6.0,11.0,21,0.00,,---,0.00,VWS V14.01,2013-04-25 18:59:00,
2013-04-25 14:00:00,79.3,34.8,25.54,SW,225,8.7,10.5,20,0.00,,---,0.00,VWS V14.01,2013-04-25 19:00:00,
2013-04-25 14:01:00,79.5,36.2,25.54,South,180,7.6,10.5,21,0.00,,---,0.00,VWS V14.01,2013-04-25 19:01:00,
2013-04-25 14:02:00,79.9,36.5,25.54,SSW,202,10.5,10.5,21,0.00,,---,0.00,VWS V14.01,2013-04-25 19:02:00,
2013-04-25 14:04:00,79.5,36.2,25.54,SE,135,13.0,17.0,21,0.00,,---,0.00,VWS V14.01,2013-04-25 19:04:00,
2013-04-25 14:05:00,79.5,35.0,25.54,ESE,112,13.0,13.0,20,0.00,,---,0.00,VWS V14.01,2013-04-25 19:05:00,
2013-04-25 14:06:00,79.7,35.1,25.54,SSE,158,14.5,15.2,20,0.00,,---,0.00,VWS V14.01,2013-04-25 19:06:00,
2013-04-25 14:07:00,80.2,35.6,25.54,SSE,158,9.6,14.5,20,0.00,,---,0.00,VWS V14.01,2013-04-25 19:07:00,
2013-04-25 14:08:00,80.6,35.9,25.54,SSE,158,13.2,14.5,20,0.00,,---,0.00,VWS V14.01,2013-04-25 19:08:00,
2013-04-25 14:09:00,80.4,35.7,25.54,East,90,8.5,13.2,20,0.00,,---,0.00,VWS V14.01,2013-04-25 19:09:00,
2013-04-25 14:10:00,80.4,35.7,25.54,SE,135,10.7,10.7,20,0.00,,---,0.00,VWS V14.01,2013-04-25 19:10:00,
2013-04-25 14:12:00,81.1,36.3,25.54,SSE,158,13.4,13.4,20,0.00,,---,0.00,VWS V14.01,2013-04-25 19:12:00,
2013-04-25 14:13:00,80.1,35.4,25.54,SE,135,15.4,15.4,20,0.00,,---,0.00,VWS V14.01,2013-04-25 19:13:00,
2013-04-25 14:14:00,79.5,35.0,25.54,ESE,112,15.9,15.9,20,0.00,,---,0.00,VWS V14.01,2013-04-25 19:14:00,
2013-04-25 14:15:00,79.7,35.1,25.54,SE,135,8.5,8.5,20,0.00,,---,0.00,VWS V14.01,2013-04-25 19:15:00,
2013-04-25 14:16:00,79.7,35.1,25.54,SE,135,8.5,8.5,20,0.00,,---,0.00,VWS V14.01,2013-04-25 19:16:00,
2013-04-25 14:17:00,80.8,36.0,25.54,West,270,14.8,14.8,20,0.00,,---,0.00,VWS V14.01,2013-04-25 19:17:00,
2013-04-25 14:18:00,80.6,35.9,25.54,SSE,158,12.8,14.8,20,0.00,,---,0.00,VWS V14.01,2013-04-25 19:18:00,
2013-04-25 14:20:00,80.1,35.4,25.54,SSE,158,12.3,15.4,20,0.00,,---,0.00,VWS V14.01,2013-04-25 19:20:00,
2013-04-25 14:21:00,80.4,35.7,25.54,SSE,158,11.0,16.8,20,0.00,,---,0.00,VWS V14.01,2013-04-25 19:21:00,
2013-04-25 14:22:00,80.8,36.0,25.54,South,180,8.7,11.0,20,0.00,,---,0.00,VWS V14.01,2013-04-25 19:22:00,
2013-04-25 14:23:00,80.8,36.0,25.54,SSE,158,10.3,10.3,20,0.00,,---,0.00,VWS V14.01,2013-04-25 19:23:00,
2013-04-25 14:24:00,80.6,35.9,25.54,SE,135,8.5,12.5,20,0.00,,---,0.00,VWS V14.01,2013-04-25 19:24:00,
2013-04-25 14:25:00,81.0,36.2,25.54,SE,135,7.8,10.7,20,0.00,,---,0.00,VWS V14.01,2013-04-25 19:25:00,
2013-04-25 14:26:00,80.8,36.0,25.54,SE,135,11.0,12.3,20,0.00,,---,0.00,VWS V14.01,2013-04-25 19:26:00,
2013-04-25 14:27:00,80.8,36.0,25.54,SSE,158,12.1,12.1,20,0.00,,---,0.00,VWS V14.01,2013-04-25 19:27:00,
2013-04-25 14:28:00,80.8,36.0,25.54,SE,135,19.7,19.7,20,0.00,,---,0.00,VWS V14.01,2013-04-25 19:28:00,
2013-04-25 14:29:00,80.4,35.7,25.54,SSE,158,17.7,21.3,20,0.00,,---,0.00,VWS V14.01,2013-04-25 19:29:00,
2013-04-25 14:30:00,80.2,35.6,25.54,SSE,158,15.4,19.9,20,0.00,,---,0.00,VWS V14.01,2013-04-25 19:30:00,
2013-04-25 14:31:00,80.4,35.7,25.54,SSW,202,7.6,7.6,20,0.00,,---,0.00,VWS V14.01,2013-04-25 19:31:00,
2013-04-25 14:32:00,80.4,35.7,25.54,SSE,158,6.7,8.5,20,0.00,,---,0.00,VWS V14.01,2013-04-25 19:32:00,
2013-04-25 14:33:00,80.6,35.9,25.54,SW,225,4.3,8.1,20,0.00,,---,0.00,VWS V14.01,2013-04-25 19:33:00,
2013-04-25 14:34:00,80.6,35.9,25.54,SE,135,12.5,13.6,20,0.00,,---,0.00,VWS V14.01,2013-04-25 19:34:00,
2013-04-25 14:35:00,80.4,35.7,25.54,SE,135,19.0,19.0,20,0.00,,---,0.00,VWS V14.01,2013-04-25 19:35:00,
2013-04-25 14:36:00,80.6,35.9,25.54,SSE,158,10.3,19.0,20,0.00,,---,0.00,VWS V14.01,2013-04-25 19:36:00,
2013-04-25 14:37:00,80.4,35.7,25.54,South,180,16.6,16.6,20,0.00,,---,0.00,VWS V14.01,2013-04-25 19:37:00,
2013-04-25 14:38:00,80.2,35.6,25.54,SE,135,13.4,17.5,20,0.00,,---,0.00,VWS V14.01,2013-04-25 19:38:00,
2013-04-25 14:39:00,80.4,35.7,25.51,SE,135,13.4,17.2,20,0.00,,---,0.00,VWS V14.01,2013-04-25 19:39:00,
2013-04-25 14:40:00,80.2,35.6,25.51,SE,135,11.0,13.9,20,0.00,,---,0.00,VWS V14.01,2013-04-25 19:40:00,
2013-04-25 14:41:00,80.8,36.0,25.51,SSE,158,12.5,13.0,20,0.00,,---,0.00,VWS V14.01,2013-04-25 19:41:00,
2013-04-25 14:42:00,81.3,36.5,25.51,SSE,158,10.3,12.5,20,0.00,,---,0.00,VWS V14.01,2013-04-25 19:42:00,
2013-04-25 14:43:00,81.1,36.3,25.51,SSE,158,15.2,15.2,20,0.00,,---,0.00,VWS V14.01,2013-04-25 19:43:00,
2013-04-25 14:44:00,81.5,36.6,25.51,SE,135,14.3,15.2,20,0.00,,---,0.00,VWS V14.01,2013-04-25 19:44:00,
2013-04-25 14:45:00,81.5,36.6,25.51,SSE,158,10.3,14.3,20,0.00,,---,0.00,VWS V14.01,2013-04-25 19:45:00,
2013-04-25 14:46:00,81.1,36.3,25.51,SSE,158,8.1,15.4,20,0.00,,---,0.00,VWS V14.01,2013-04-25 19:46:00,
2013-04-25 14:47:00,81.3,36.5,25.51,SSE,158,15.7,16.3,20,0.00,,---,0.00,VWS V14.01,2013-04-25 19:47:00,
2013-04-25 14:48:00,81.3,36.5,25.51,SSE,158,12.8,19.7,20,0.00,,---,0.00,VWS V14.01,2013-04-25 19:48:00,
2013-04-25 14:49:00,81.0,36.2,25.51,SE,135,5.6,13.2,20,0.00,,---,0.00,VWS V14.01,2013-04-25 19:49:00,
2013-04-25 14:51:00,81.0,36.2,25.51,SSW,202,12.8,12.8,20,0.00,,---,0.00,VWS V14.01,2013-04-25 19:51:00,
2013-04-25 14:52:00,81.0,36.2,25.51,SSE,158,10.7,13.0,20,0.00,,---,0.00,VWS V14.01,2013-04-25 19:52:00,
2013-04-25 14:53:00,81.0,36.2,25.51,SSE,158,8.7,10.7,20,0.00,,---,0.00,VWS V14.01,2013-04-25 19:53:00,
2013-04-25 14:54:00,82.4,36.0,25.51,SSE,158,13.2,13.2,19,0.00,,---,0.00,VWS V14.01,2013-04-25 19:54:00,
2013-04-25 14:55:00,82.2,37.2,25.51,SSE,158,13.2,13.2,20,0.00,,---,0.00,VWS V14.01,2013-04-25 19:55:00,
2013-04-25 14:56:00,82.2,37.2,25.51,South,180,10.1,13.2,20,0.00,,---,0.00,VWS V14.01,2013-04-25 19:56:00,
2013-04-25 14:57:00,82.2,37.2,25.51,SE,135,10.3,10.3,20,0.00,,---,0.00,VWS V14.01,2013-04-25 19:57:00,
2013-04-25 14:58:00,82.2,37.2,25.51,SE,135,14.8,16.8,20,0.00,,---,0.00,VWS V14.01,2013-04-25 19:58:00,
2013-04-25 14:59:00,82.2,35.9,25.51,ESE,112,15.4,15.4,19,0.00,,---,0.00,VWS V14.01,2013-04-25 19:59:00,
2013-04-25 15:00:00,81.7,35.5,25.51,SE,135,17.2,17.2,19,0.00,,---,0.00,VWS V14.01,2013-04-25 20:00:00,
2013-04-25 15:01:00,81.7,35.5,25.51,SE,135,13.0,17.2,19,0.00,,---,0.00,VWS V14.01,2013-04-25 20:01:00,
2013-04-25 15:03:00,81.5,35.3,25.51,South,180,6.5,15.2,19,0.00,,---,0.00,VWS V14.01,2013-04-25 20:03:00,
2013-04-25 15:04:00,81.7,36.8,25.51,ESE,112,11.0,13.9,20,0.00,,---,0.00,VWS V14.01,2013-04-25 20:04:00,
2013-04-25 15:05:00,81.3,35.2,25.51,SSE,158,9.2,15.4,19,0.00,,---,0.00,VWS V14.01,2013-04-25 20:05:00,
2013-04-25 15:07:00,81.3,35.2,25.51,ESE,112,8.1,17.0,19,0.00,,---,0.00,VWS V14.01,2013-04-25 20:07:00,
2013-04-25 15:08:00,81.3,35.2,25.51,SSW,202,11.0,15.2,19,0.00,,---,0.00,VWS V14.01,2013-04-25 20:08:00,
2013-04-25 15:09:00,81.3,35.2,25.48,SSE,158,10.3,12.3,19,0.00,,---,0.00,VWS V14.01,2013-04-25 20:09:00,
2013-04-25 15:10:00,81.7,35.5,25.48,SSE,158,11.2,14.3,19,0.00,,---,0.00,VWS V14.01,2013-04-25 20:10:00,
2013-04-25 15:11:00,81.5,36.6,25.48,SSE,158,14.8,19.5,20,0.00,,---,0.00,VWS V14.01,2013-04-25 20:11:00,
2013-04-25 15:12:00,80.8,34.7,25.48,ESE,112,19.9,19.9,19,0.00,,---,0.00,VWS V14.01,2013-04-25 20:12:00,
2013-04-25 15:13:00,81.3,36.5,25.48,SSE,158,12.5,19.9,20,0.00,,---,0.00,VWS V14.01,2013-04-25 20:13:00,
2013-04-25 15:14:00,81.0,34.9,25.48,SSE,158,11.0,17.2,19,0.00,,---,0.00,VWS V14.01,2013-04-25 20:14:00,
2013-04-25 15:15:00,81.5,35.3,25.48,SSE,158,5.8,12.5,19,0.00,,---,0.00,VWS V14.01,2013-04-25 20:15:00,
2013-04-25 15:16:00,81.7,35.5,25.48,SSE,158,8.5,10.1,19,0.00,,---,0.00,VWS V14.01,2013-04-25 20:16:00,
2013-04-25 15:17:00,81.7,35.5,25.48,ESE,112,12.8,19.7,19,0.00,,---,0.00,VWS V14.01,2013-04-25 20:17:00,
2013-04-25 15:18:00,81.1,35.0,25.48,ESE,112,23.3,23.3,19,0.00,,---,0.00,VWS V14.01,2013-04-25 20:18:00,
2013-04-25 15:19:00,80.8,34.7,25.48,SE,135,11.0,23.3,19,0.00,,---,0.00,VWS V14.01,2013-04-25 20:19:00,
2013-04-25 15:20:00,81.9,36.9,25.48,SSE,158,10.7,13.4,20,0.00,,---,0.00,VWS V14.01,2013-04-25 20:20:00,
2013-04-25 15:21:00,81.9,36.9,25.48,SE,135,13.6,13.6,20,0.00,,---,0.00,VWS V14.01,2013-04-25 20:21:00,
2013-04-25 15:22:00,81.7,35.5,25.48,SSE,158,15.4,17.5,19,0.00,,---,0.00,VWS V14.01,2013-04-25 20:22:00,
2013-04-25 15:23:00,82.0,37.0,25.48,SE,135,12.5,15.4,20,0.00,,---,0.00,VWS V14.01,2013-04-25 20:23:00,
2013-04-25 15:24:00,81.3,35.2,25.48,South,180,19.5,21.5,19,0.00,,---,0.00,VWS V14.01,2013-04-25 20:24:00,
2013-04-25 15:25:00,81.1,35.0,25.48,SE,135,16.8,19.5,19,0.00,,---,0.00,VWS V14.01,2013-04-25 20:25:00,
2013-04-25 15:26:00,81.1,35.0,25.48,SE,135,12.5,16.8,19,0.00,,---,0.00,VWS V14.01,2013-04-25 20:26:00,
2013-04-25 15:27:00,80.8,34.7,25.48,ESE,112,15.9,15.9,19,0.00,,---,0.00,VWS V14.01,2013-04-25 20:27:00,
2013-04-25 15:28:00,80.8,34.7,25.48,SE,135,15.4,17.7,19,0.00,,---,0.00,VWS V14.01,2013-04-25 20:28:00,
2013-04-25 15:29:00,80.2,35.6,25.48,ESE,112,22.2,22.2,20,0.00,,---,0.00,VWS V14.01,2013-04-25 20:29:00,
2013-04-25 15:30:00,80.4,35.7,25.48,ESE,112,19.5,22.2,20,0.00,,---,0.00,VWS V14.01,2013-04-25 20:30:00,
2013-04-25 15:31:00,80.6,34.6,25.48,SE,135,15.4,19.5,19,0.00,,---,0.00,VWS V14.01,2013-04-25 20:31:00,
2013-04-25 15:32:00,81.1,35.0,25.48,ESE,112,15.2,16.1,19,0.00,,---,0.00,VWS V14.01,2013-04-25 20:32:00,
2013-04-25 15:34:00,81.7,35.5,25.48,South,180,8.5,18.6,19,0.00,,---,0.00,VWS V14.01,2013-04-25 20:34:00,
2013-04-25 15:35:00,81.9,35.6,25.48,South,180,12.5,13.9,19,0.00,,---,0.00,VWS V14.01,2013-04-25 20:35:00,
2013-04-25 15:36:00,81.5,35.3,25.48,SE,135,13.0,19.7,19,0.00,,---,0.00,VWS V14.01,2013-04-25 20:36:00,
2013-04-25 15:37:00,81.5,35.3,25.48,ESE,112,10.3,14.5,19,0.00,,---,0.00,VWS V14.01,2013-04-25 20:37:00,
2013-04-25 15:38:00,82.2,35.9,25.48,East,90,6.5,12.5,19,0.00,,---,0.00,VWS V14.01,2013-04-25 20:38:00,
2013-04-25 15:39:00,82.6,36.2,25.48,SE,135,5.6,11.0,19,0.00,,---,0.00,VWS V14.01,2013-04-25 20:39:00,
2013-04-25 15:40:00,82.9,36.5,25.48,SW,225,12.8,19.7,19,0.00,,---,0.00,VWS V14.01,2013-04-25 20:40:00,
2013-04-25 15:41:00,82.6,31.9,25.48,SSE,158,13.2,13.2,16,0.00,,---,0.00,VWS V14.01,2013-04-25 20:41:00,
2013-04-25 15:42:00,81.9,32.8,25.48,SSE,158,17.0,18.6,17,0.00,,---,0.00,VWS V14.01,2013-04-25 20:42:00,
2013-04-25 15:43:00,82.4,36.0,25.48,East,90,5.8,17.0,19,0.00,,---,0.00,VWS V14.01,2013-04-25 20:43:00,
2013-04-25 15:44:00,82.0,33.0,25.48,SSE,158,10.1,13.0,17,0.00,,---,0.00,VWS V14.01,2013-04-25 20:44:00,
2013-04-25 15:45:00,82.6,31.9,25.48,SSW,202,8.1,15.4,16,0.00,,---,0.00,VWS V14.01,2013-04-25 20:45:00,
2013-04-25 15:46:00,83.1,32.3,25.48,South,180,19.0,19.0,16,0.00,,---,0.00,VWS V14.01,2013-04-25 20:46:00,
2013-04-25 15:47:00,82.4,31.8,25.48,South,180,13.0,21.0,16,0.00,,---,0.00,VWS V14.01,2013-04-25 20:47:00,
2013-04-25 15:48:00,82.0,33.0,25.48,ESE,112,7.8,18.6,17,0.00,,---,0.00,VWS V14.01,2013-04-25 20:48:00,
2013-04-25 15:49:00,82.0,33.0,25.48,South,180,16.1,16.1,17,0.00,,---,0.00,VWS V14.01,2013-04-25 20:49:00,
2013-04-25 15:50:00,81.9,32.8,25.48,South,180,19.0,19.0,17,0.00,,---,0.00,VWS V14.01,2013-04-25 20:50:00,
2013-04-25 15:52:00,81.7,32.7,25.48,SSE,158,9.8,21.0,17,0.00,,---,0.00,VWS V14.01,2013-04-25 20:52:00,
2013-04-25 15:53:00,82.4,31.8,25.48,SSE,158,10.1,13.0,16,0.00,,---,0.00,VWS V14.01,2013-04-25 20:53:00,
2013-04-25 15:54:00,82.4,31.8,25.45,SE,135,9.6,12.8,16,0.00,,---,0.00,VWS V14.01,2013-04-25 20:54:00,
2013-04-25 15:55:00,82.0,33.0,25.45,SSE,158,6.9,6.9,17,0.00,,---,0.00,VWS V14.01,2013-04-25 20:55:00,
2013-04-25 15:56:00,82.2,33.1,25.45,South,180,10.5,10.5,17,0.00,,---,0.00,VWS V14.01,2013-04-25 20:56:00,
2013-04-25 15:57:00,82.2,33.1,25.45,SSE,158,16.6,16.6,17,0.00,,---,0.00,VWS V14.01,2013-04-25 20:57:00,
2013-04-25 15:58:00,82.2,33.1,25.45,SSE,158,12.8,16.8,17,0.00,,---,0.00,VWS V14.01,2013-04-25 20:58:00,
2013-04-25 15:59:00,82.0,33.0,25.45,South,180,13.2,17.2,17,0.00,,---,0.00,VWS V14.01,2013-04-25 20:59:00,
2013-04-25 16:00:00,81.9,32.8,25.45,SSE,158,10.5,15.4,17,0.00,,---,0.00,VWS V14.01,2013-04-25 21:00:00,
2013-04-25 16:01:00,81.5,32.5,25.45,SSE,158,11.0,17.5,17,0.00,,---,0.00,VWS V14.01,2013-04-25 21:01:00,
2013-04-25 16:02:00,81.9,32.8,25.45,ESE,112,10.1,15.4,17,0.00,,---,0.00,VWS V14.01,2013-04-25 21:02:00,
2013-04-25 16:03:00,82.2,33.1,25.45,SSE,158,12.8,12.8,17,0.00,,---,0.00,VWS V14.01,2013-04-25 21:03:00,
2013-04-25 16:04:00,82.2,33.1,25.45,SE,135,10.7,12.8,17,0.00,,---,0.00,VWS V14.01,2013-04-25 21:04:00,
2013-04-25 16:05:00,82.2,33.1,25.45,SE,135,11.0,17.2,17,0.00,,---,0.00,VWS V14.01,2013-04-25 21:05:00,
2013-04-25 16:06:00,81.9,32.8,25.45,SSE,158,17.0,22.8,17,0.00,,---,0.00,VWS V14.01,2013-04-25 21:06:00,
2013-04-25 16:07:00,81.5,32.5,25.45,SSE,158,13.9,17.9,17,0.00,,---,0.00,VWS V14.01,2013-04-25 21:07:00,
2013-04-25 16:08:00,81.7,32.7,25.45,SE,135,15.2,15.2,17,0.00,,---,0.00,VWS V14.01,2013-04-25 21:08:00,
2013-04-25 16:09:00,81.5,32.5,25.42,South,180,11.0,17.0,17,0.00,,---,0.00,VWS V14.01,2013-04-25 21:09:00,
2013-04-25 16:10:00,81.9,32.8,25.42,South,180,10.5,13.2,17,0.00,,---,0.00,VWS V14.01,2013-04-25 21:10:00,
2013-04-25 16:11:00,81.7,32.7,25.42,SSW,202,11.9,13.0,17,0.00,,---,0.00,VWS V14.01,2013-04-25 21:11:00,
2013-04-25 16:12:00,82.2,33.1,25.42,SSE,158,10.7,12.8,17,0.00,,---,0.00,VWS V14.01,2013-04-25 21:12:00,
2013-04-25 16:13:00,81.9,32.8,25.42,South,180,11.0,16.3,17,0.00,,---,0.00,VWS V14.01,2013-04-25 21:13:00,
2013-04-25 16:14:00,82.0,33.0,25.42,SE,135,15.2,15.2,17,0.00,,---,0.00,VWS V14.01,2013-04-25 21:14:00,
2013-04-25 16:15:00,82.0,33.0,25.42,SE,135,16.3,16.3,17,0.00,,---,0.00,VWS V14.01,2013-04-25 21:15:00,
2013-04-25 16:16:00,81.7,32.7,25.42,SSE,158,12.3,12.3,17,0.00,,---,0.00,VWS V14.01,2013-04-25 21:16:00,
2013-04-25 16:17:00,81.7,32.7,25.42,SSE,158,18.6,19.9,17,0.00,,---,0.00,VWS V14.01,2013-04-25 21:17:00,
2013-04-25 16:18:00,81.5,32.5,25.42,South,180,8.7,18.6,17,0.00,,---,0.00,VWS V14.01,2013-04-25 21:18:00,
2013-04-25 16:19:00,81.1,32.2,25.42,SSE,158,7.8,12.5,17,0.00,,---,0.00,VWS V14.01,2013-04-25 21:19:00,
2013-04-25 16:20:00,81.1,32.2,25.42,South,180,7.8,13.6,17,0.00,,---,0.00,VWS V14.01,2013-04-25 21:20:00,
2013-04-25 16:21:00,81.3,32.4,25.42,South,180,14.8,14.8,17,0.00,,---,0.00,VWS V14.01,2013-04-25 21:21:00,
2013-04-25 16:22:00,81.3,32.4,25.42,SSW,202,13.0,14.8,17,0.00,,---,0.00,VWS V14.01,2013-04-25 21:22:00,
2013-04-25 16:23:00,81.5,32.5,25.42,South,180,13.6,17.7,17,0.00,,---,0.00,VWS V14.01,2013-04-25 21:23:00,
2013-04-25 16:24:00,81.7,32.7,25.39,SSE,158,15.2,15.7,17,0.00,,---,0.00,VWS V14.01,2013-04-25 21:24:00,
2013-04-25 16:25:00,81.5,32.5,25.39,SE,135,6.0,15.2,17,0.00,,---,0.00,VWS V14.01,2013-04-25 21:25:00,
2013-04-25 16:26:00,81.7,32.7,25.39,South,180,10.5,10.5,17,0.00,,---,0.00,VWS V14.01,2013-04-25 21:26:00,
2013-04-25 16:27:00,81.5,32.5,25.39,SSE,158,17.7,17.7,17,0.00,,---,0.00,VWS V14.01,2013-04-25 21:27:00,
2013-04-25 16:28:00,81.5,32.5,25.39,SSW,202,10.5,19.0,17,0.00,,---,0.00,VWS V14.01,2013-04-25 21:28:00,
2013-04-25 16:29:00,81.3,32.4,25.39,South,180,10.1,14.5,17,0.00,,---,0.00,VWS V14.01,2013-04-25 21:29:00,
2013-04-25 16:30:00,81.1,32.2,25.39,SSE,158,12.1,12.1,17,0.00,,---,0.00,VWS V14.01,2013-04-25 21:30:00,
2013-04-25 16:31:00,81.5,32.5,25.39,SE,135,12.8,13.0,17,0.00,,---,0.00,VWS V14.01,2013-04-25 21:31:00,
2013-04-25 16:32:00,81.5,32.5,25.39,SE,135,12.8,13.4,17,0.00,,---,0.00,VWS V14.01,2013-04-25 21:32:00,
2013-04-25 16:33:00,81.5,32.5,25.39,ESE,112,13.2,14.1,17,0.00,,---,0.00,VWS V14.01,2013-04-25 21:33:00,
2013-04-25 16:34:00,81.5,32.5,25.39,East,90,12.5,13.2,17,0.00,,---,0.00,VWS V14.01,2013-04-25 21:34:00,
2013-04-25 16:35:00,81.5,32.5,25.39,SE,135,12.5,12.5,17,0.00,,---,0.00,VWS V14.01,2013-04-25 21:35:00,
2013-04-25 16:36:00,82.0,33.0,25.39,South,180,10.3,15.4,17,0.00,,---,0.00,VWS V14.01,2013-04-25 21:36:00,
2013-04-25 16:37:00,81.7,32.7,25.39,SE,135,22.8,22.8,17,0.00,,---,0.00,VWS V14.01,2013-04-25 21:37:00,
2013-04-25 16:38:00,81.3,32.4,25.39,SSE,158,13.0,22.8,17,0.00,,---,0.00,VWS V14.01,2013-04-25 21:38:00,
2013-04-25 16:39:00,81.0,32.1,25.42,SSE,158,13.4,17.7,17,0.00,,---,0.00,VWS V14.01,2013-04-25 21:39:00,
2013-04-25 16:40:00,81.0,32.1,25.42,SSE,158,15.9,15.9,17,0.00,,---,0.00,VWS V14.01,2013-04-25 21:40:00,
2013-04-25 16:41:00,80.6,31.8,25.42,SSE,158,10.5,17.2,17,0.00,,---,0.00,VWS V14.01,2013-04-25 21:41:00,
2013-04-25 16:42:00,80.6,31.8,25.42,SE,135,13.2,13.2,17,0.00,,---,0.00,VWS V14.01,2013-04-25 21:42:00,
2013-04-25 16:43:00,80.4,31.7,25.42,SE,135,14.5,14.5,17,0.00,,---,0.00,VWS V14.01,2013-04-25 21:43:00,
2013-04-25 16:44:00,80.1,31.4,25.42,SSE,158,12.3,12.3,17,0.00,,---,0.00,VWS V14.01,2013-04-25 21:44:00,
2013-04-25 16:45:00,80.8,32.0,25.42,ESE,112,13.2,13.2,17,0.00,,---,0.00,VWS V14.01,2013-04-25 21:45:00,
2013-04-25 16:46:00,80.4,31.7,25.42,SE,135,12.8,17.7,17,0.00,,---,0.00,VWS V14.01,2013-04-25 21:46:00,
2013-04-25 16:47:00,80.2,31.5,25.42,SE,135,10.3,18.6,17,0.00,,---,0.00,VWS V14.01,2013-04-25 21:47:00,
2013-04-25 16:48:00,80.2,31.5,25.42,SSE,158,12.3,17.2,17,0.00,,---,0.00,VWS V14.01,2013-04-25 21:48:00,
2013-04-25 16:49:00,80.2,31.5,25.42,SSE,158,10.5,12.3,17,0.00,,---,0.00,VWS V14.01,2013-04-25 21:49:00,
2013-04-25 16:50:00,80.4,31.7,25.42,NE,45,15.4,15.4,17,0.00,,---,0.00,VWS V14.01,2013-04-25 21:50:00,
2013-04-25 16:51:00,80.2,31.5,25.42,SSE,158,17.0,17.0,17,0.00,,---,0.00,VWS V14.01,2013-04-25 21:51:00,
2013-04-25 16:52:00,80.6,31.8,25.42,SSE,158,19.5,19.5,17,0.00,,---,0.00,VWS V14.01,2013-04-25 21:52:00,
2013-04-25 16:53:00,80.6,31.8,25.42,SSE,158,22.6,22.6,17,0.00,,---,0.00,VWS V14.01,2013-04-25 21:53:00,
2013-04-25 16:54:00,80.6,31.8,25.42,SE,135,11.2,22.6,17,0.00,,---,0.00,VWS V14.01,2013-04-25 21:54:00,
2013-04-25 16:55:00,79.7,31.1,25.42,ESE,112,12.8,15.4,17,0.00,,---,0.00,VWS V14.01,2013-04-25 21:55:00,
2013-04-25 16:56:00,79.9,31.2,25.42,SE,135,19.9,19.9,17,0.00,,---,0.00,VWS V14.01,2013-04-25 21:56:00,
2013-04-25 16:57:00,79.3,30.8,25.42,ESE,112,15.9,15.9,17,0.00,,---,0.00,VWS V14.01,2013-04-25 21:57:00,
2013-04-25 16:58:00,79.2,30.6,25.42,SSE,158,17.5,17.7,17,0.00,,---,0.00,VWS V14.01,2013-04-25 21:58:00,
2013-04-25 16:59:00,79.2,30.6,25.42,ESE,112,21.9,21.9,17,0.00,,---,0.00,VWS V14.01,2013-04-25 21:59:00,
2013-04-25 17:00:00,79.0,30.5,25.42,SE,135,15.4,23.3,17,0.00,,---,0.00,VWS V14.01,2013-04-25 22:00:00,
2013-04-25 17:01:00,78.6,31.6,25.42,SE,135,17.5,20.4,18,0.00,,---,0.00,VWS V14.01,2013-04-25 22:01:00,
2013-04-25 17:02:00,78.6,31.6,25.42,ESE,112,13.0,17.5,18,0.00,,---,0.00,VWS V14.01,2013-04-25 22:02:00,
2013-04-25 17:03:00,79.0,30.5,25.42,SE,135,23.9,23.9,17,0.00,,---,0.00,VWS V14.01,2013-04-25 22:03:00,
2013-04-25 17:05:00,78.8,30.4,25.42,SE,135,19.7,23.9,17,0.00,,---,0.00,VWS V14.01,2013-04-25 22:05:00,
2013-04-25 17:06:00,78.3,31.3,25.42,ESE,112,22.4,23.3,18,0.00,,---,0.00,VWS V14.01,2013-04-25 22:06:00,
2013-04-25 17:07:00,78.4,31.5,25.42,SE,135,16.8,22.4,18,0.00,,---,0.00,VWS V14.01,2013-04-25 22:07:00,
2013-04-25 17:08:00,78.4,31.5,25.42,SSW,202,15.4,16.8,18,0.00,,---,0.00,VWS V14.01,2013-04-25 22:08:00,
2013-04-25 17:09:00,78.3,31.3,25.39,SE,135,12.1,21.0,18,0.00,,---,0.00,VWS V14.01,2013-04-25 22:09:00,
2013-04-25 17:10:00,78.3,31.3,25.39,SE,135,17.0,19.9,18,0.00,,---,0.00,VWS V14.01,2013-04-25 22:10:00,
2013-04-25 17:11:00,77.9,31.0,25.39,SSE,158,22.6,22.8,18,0.00,,---,0.00,VWS V14.01,2013-04-25 22:11:00,
2013-04-25 17:12:00,78.1,31.2,25.39,SSE,158,11.2,25.1,18,0.00,,---,0.00,VWS V14.01,2013-04-25 22:12:00,
2013-04-25 17:13:00,78.3,31.3,25.39,SE,135,10.5,19.7,18,0.00,,---,0.00,VWS V14.01,2013-04-25 22:13:00,
2013-04-25 17:14:00,78.3,31.3,25.39,SE,135,15.4,17.0,18,0.00,,---,0.00,VWS V14.01,2013-04-25 22:14:00,
2013-04-25 17:15:00,78.3,31.3,25.39,South,180,10.7,15.4,18,0.00,,---,0.00,VWS V14.01,2013-04-25 22:15:00,
2013-04-25 17:16:00,79.0,30.5,25.39,SSE,158,14.5,16.6,17,0.00,,---,0.00,VWS V14.01,2013-04-25 22:16:00,
2013-04-25 17:17:00,79.3,30.8,25.39,SSE,158,16.6,16.6,17,0.00,,---,0.00,VWS V14.01,2013-04-25 22:17:00,
2013-04-25 17:19:00,79.2,30.6,25.39,ESE,112,16.1,18.8,17,0.00,,---,0.00,VWS V14.01,2013-04-25 22:19:00,
2013-04-25 17:20:00,79.0,30.5,25.39,SE,135,17.5,18.1,17,0.00,,---,0.00,VWS V14.01,2013-04-25 22:20:00,
2013-04-25 17:21:00,78.4,31.5,25.39,SSE,158,20.4,27.3,18,0.00,,---,0.00,VWS V14.01,2013-04-25 22:21:00,
2013-04-25 17:22:00,77.9,31.0,25.39,SE,135,18.8,22.4,18,0.00,,---,0.00,VWS V14.01,2013-04-25 22:22:00,
2013-04-25 17:23:00,77.9,31.0,25.39,SE,135,19.0,23.0,18,0.00,,---,0.00,VWS V14.01,2013-04-25 22:23:00,
2013-04-25 17:24:00,77.5,30.7,25.37,SE,135,22.4,25.3,18,0.00,,---,0.00,VWS V14.01,2013-04-25 22:24:00,
2013-04-25 17:25:00,77.5,30.7,25.37,SE,135,22.8,22.8,18,0.00,,---,0.00,VWS V14.01,2013-04-25 22:25:00,
2013-04-25 17:26:00,77.2,30.4,25.37,SSE,158,19.5,19.5,18,0.00,,---,0.00,VWS V14.01,2013-04-25 22:26:00,
2013-04-25 17:27:00,77.4,30.6,25.37,SSE,158,14.8,19.5,18,0.00,,---,0.00,VWS V14.01,2013-04-25 22:27:00,
2013-04-25 17:29:00,77.4,30.6,25.37,ESE,112,15.7,18.8,18,0.00,,---,0.00,VWS V14.01,2013-04-25 22:29:00,
2013-04-25 17:30:00,77.7,30.9,25.37,SSE,158,16.1,27.3,18,0.00,,---,0.00,VWS V14.01,2013-04-25 22:30:00,
2013-04-25 17:31:00,77.7,30.9,25.37,South,180,23.0,23.7,18,0.00,,---,0.00,VWS V14.01,2013-04-25 22:31:00,
2013-04-25 17:32:00,77.5,30.7,25.37,SE,135,19.9,23.0,18,0.00,,---,0.00,VWS V14.01,2013-04-25 22:32:00,
2013-04-25 17:33:00,77.5,30.7,25.37,ESE,112,15.2,19.9,18,0.00,,---,0.00,VWS V14.01,2013-04-25 22:33:00,
2013-04-25 17:34:00,77.4,30.6,25.37,ESE,112,17.7,17.7,18,0.00,,---,0.00,VWS V14.01,2013-04-25 22:34:00,
2013-04-25 17:35:00,77.5,30.7,25.37,SE,135,23.7,23.7,18,0.00,,---,0.00,VWS V14.01,2013-04-25 22:35:00,
2013-04-25 17:36:00,77.0,30.3,25.37,SE,135,21.0,23.7,18,0.00,,---,0.00,VWS V14.01,2013-04-25 22:36:00,
2013-04-25 17:37:00,76.8,30.1,25.37,SE,135,17.7,25.5,18,0.00,,---,0.00,VWS V14.01,2013-04-25 22:37:00,
2013-04-25 17:38:00,76.8,30.1,25.37,SE,135,17.7,17.7,18,0.00,,---,0.00,VWS V14.01,2013-04-25 22:38:00,
2013-04-25 17:39:00,77.0,30.3,25.37,South,180,22.8,23.9,18,0.00,,---,0.00,VWS V14.01,2013-04-25 22:39:00,
2013-04-25 17:40:00,76.8,30.1,25.37,SSE,158,22.4,25.1,18,0.00,,---,0.00,VWS V14.01,2013-04-25 22:40:00,
2013-04-25 17:41:00,76.6,30.0,25.37,South,180,24.6,24.6,18,0.00,,---,0.00,VWS V14.01,2013-04-25 22:41:00,
2013-04-25 17:42:00,76.5,29.9,25.37,SSE,158,20.4,24.6,18,0.00,,---,0.00,VWS V14.01,2013-04-25 22:42:00,
2013-04-25 17:43:00,76.6,32.6,25.37,SE,135,16.3,20.4,20,0.00,,---,0.00,VWS V14.01,2013-04-25 22:43:00,
2013-04-25 17:44:00,76.5,32.5,25.37,SSE,158,7.2,29.5,20,0.00,,---,0.00,VWS V14.01,2013-04-25 22:44:00,
2013-04-25 17:45:00,76.5,32.5,25.37,SSE,158,23.0,23.0,20,0.00,,---,0.00,VWS V14.01,2013-04-25 22:45:00,
2013-04-25 17:46:00,76.6,32.6,25.37,ESE,112,11.0,23.0,20,0.00,,---,0.00,VWS V14.01,2013-04-25 22:46:00,
2013-04-25 17:47:00,76.6,32.6,25.37,SSE,158,18.8,18.8,20,0.00,,---,0.00,VWS V14.01,2013-04-25 22:47:00,
2013-04-25 17:48:00,76.6,30.0,25.37,SE,135,11.4,18.8,18,0.00,,---,0.00,VWS V14.01,2013-04-25 22:48:00,
2013-04-25 17:49:00,76.6,30.0,25.37,SE,135,14.1,22.8,18,0.00,,---,0.00,VWS V14.01,2013-04-25 22:49:00,
2013-04-25 17:50:00,76.5,32.5,25.37,SE,135,21.3,21.3,20,0.00,,---,0.00,VWS V14.01,2013-04-25 22:50:00,
2013-04-25 17:51:00,76.3,32.3,25.37,ENE,68,23.0,27.1,20,0.00,,---,0.00,VWS V14.01,2013-04-25 22:51:00,
2013-04-25 17:52:00,76.3,32.3,25.37,ESE,112,15.4,24.4,20,0.00,,---,0.00,VWS V14.01,2013-04-25 22:52:00,
2013-04-25 17:53:00,76.3,32.3,25.37,ESE,112,12.3,19.7,20,0.00,,---,0.00,VWS V14.01,2013-04-25 22:53:00,
2013-04-25 17:54:00,76.3,32.3,25.37,SE,135,20.4,22.8,20,0.00,,---,0.00,VWS V14.01,2013-04-25 22:54:00,
2013-04-25 17:55:00,76.3,32.3,25.37,SE,135,19.0,25.3,20,0.00,,---,0.00,VWS V14.01,2013-04-25 22:55:00,
2013-04-25 17:56:00,76.5,32.5,25.37,SE,135,17.5,19.0,20,0.00,,---,0.00,VWS V14.01,2013-04-25 22:56:00,
2013-04-25 17:57:00,76.3,32.3,25.37,ESE,112,16.8,22.8,20,0.00,,---,0.00,VWS V14.01,2013-04-25 22:57:00,
2013-04-25 17:58:00,76.3,32.3,25.37,SSE,158,8.7,22.2,20,0.00,,---,0.00,VWS V14.01,2013-04-25 22:58:00,
2013-04-25 17:59:00,76.3,32.3,25.37,ESE,112,19.9,19.9,20,0.00,,---,0.00,VWS V14.01,2013-04-25 22:59:00,
2013-04-25 18:00:00,76.1,32.2,25.37,SE,135,25.3,25.3,20,0.00,,---,0.00,VWS V14.01,2013-04-25 23:00:00,
2013-04-25 18:01:00,76.1,32.2,25.37,SE,135,23.5,26.6,20,0.00,,---,0.00,VWS V14.01,2013-04-25 23:01:00,
2013-04-25 18:02:00,76.1,32.2,25.37,SE,135,22.6,23.5,20,0.00,,---,0.00,VWS V14.01,2013-04-25 23:02:00,
2013-04-25 18:03:00,75.9,32.0,25.37,SE,135,22.8,22.8,20,0.00,,---,0.00,VWS V14.01,2013-04-25 23:03:00,
2013-04-25 18:04:00,75.9,32.0,25.37,SSE,158,28.6,28.6,20,0.00,,---,0.00,VWS V14.01,2013-04-25 23:04:00,
2013-04-25 18:05:00,75.7,31.9,25.37,SE,135,16.6,28.6,20,0.00,,---,0.00,VWS V14.01,2013-04-25 23:05:00,
2013-04-25 18:06:00,75.6,31.7,25.37,SSE,158,25.1,25.1,20,0.00,,---,0.00,VWS V14.01,2013-04-25 23:06:00,
2013-04-25 18:07:00,75.2,31.4,25.37,SSE,158,25.5,25.5,20,0.00,,---,0.00,VWS V14.01,2013-04-25 23:07:00,
2013-04-25 18:08:00,75.4,31.6,25.37,SSE,158,15.2,25.5,20,0.00,,---,0.00,VWS V14.01,2013-04-25 23:08:00,
2013-04-25 18:09:00,75.4,31.6,25.37,SE,135,22.6,25.1,20,0.00,,---,0.00,VWS V14.01,2013-04-25 23:09:00,
2013-04-25 18:10:00,75.4,31.6,25.37,SSE,158,22.8,23.7,20,0.00,,---,0.00,VWS V14.01,2013-04-25 23:10:00,
2013-04-25 18:12:00,75.2,31.4,25.37,SE,135,15.7,22.8,20,0.00,,---,0.00,VWS V14.01,2013-04-25 23:12:00,
2013-04-25 18:13:00,75.0,32.5,25.37,SSE,158,17.0,20.4,21,0.00,,---,0.00,VWS V14.01,2013-04-25 23:13:00,
2013-04-25 18:14:00,75.0,32.5,25.37,SE,135,10.7,20.4,21,0.00,,---,0.00,VWS V14.01,2013-04-25 23:14:00,
2013-04-25 18:15:00,75.0,32.5,25.37,SE,135,22.6,22.6,21,0.00,,---,0.00,VWS V14.01,2013-04-25 23:15:00,
2013-04-25 18:16:00,74.8,32.3,25.37,SE,135,19.2,22.6,21,0.00,,---,0.00,VWS V14.01,2013-04-25 23:16:00,
2013-04-25 18:17:00,74.7,32.2,25.37,ENE,68,19.5,23.9,21,0.00,,---,0.00,VWS V14.01,2013-04-25 23:17:00,
2013-04-25 18:18:00,74.7,32.2,25.37,SE,135,11.9,25.7,21,0.00,,---,0.00,VWS V14.01,2013-04-25 23:18:00,
2013-04-25 18:19:00,74.7,32.2,25.37,SE,135,17.5,25.3,21,0.00,,---,0.00,VWS V14.01,2013-04-25 23:19:00,
2013-04-25 18:20:00,74.7,32.2,25.37,SE,135,17.5,17.5,21,0.00,,---,0.00,VWS V14.01,2013-04-25 23:20:00,
2013-04-25 18:21:00,74.7,32.2,25.37,SE,135,17.5,17.5,21,0.00,,---,0.00,VWS V14.01,2013-04-25 23:21:00,
2013-04-25 18:22:00,74.7,32.2,25.37,ESE,112,12.5,22.6,21,0.00,,---,0.00,VWS V14.01,2013-04-25 23:22:00,
2013-04-25 18:23:00,74.3,31.9,25.37,ESE,112,25.5,25.5,21,0.00,,---,0.00,VWS V14.01,2013-04-25 23:23:00,
2013-04-25 18:24:00,74.3,31.9,25.37,SSE,158,19.9,25.5,21,0.00,,---,0.00,VWS V14.01,2013-04-25 23:24:00,
2013-04-25 18:25:00,74.3,31.9,25.37,SSE,158,15.4,25.1,21,0.00,,---,0.00,VWS V14.01,2013-04-25 23:25:00,
2013-04-25 18:26:00,74.3,31.9,25.37,South,180,22.6,22.6,21,0.00,,---,0.00,VWS V14.01,2013-04-25 23:26:00,
2013-04-25 18:27:00,74.1,31.7,25.37,SE,135,22.4,23.7,21,0.00,,---,0.00,VWS V14.01,2013-04-25 23:27:00,
2013-04-25 18:28:00,73.9,31.6,25.37,SE,135,22.4,22.4,21,0.00,,---,0.00,VWS V14.01,2013-04-25 23:28:00,
2013-04-25 18:29:00,73.6,31.3,25.37,ESE,112,26.4,29.3,21,0.00,,---,0.00,VWS V14.01,2013-04-25 23:29:00,
2013-04-25 18:30:00,73.4,31.1,25.37,SE,135,19.7,26.4,21,0.00,,---,0.00,VWS V14.01,2013-04-25 23:30:00,
2013-04-25 18:31:00,73.2,31.0,25.37,SSW,202,21.9,23.5,21,0.00,,---,0.00,VWS V14.01,2013-04-25 23:31:00,
2013-04-25 18:32:00,73.2,31.0,25.37,ESE,112,19.5,21.9,21,0.00,,---,0.00,VWS V14.01,2013-04-25 23:32:00,
2013-04-25 18:33:00,73.2,31.0,25.37,SE,135,22.4,22.4,21,0.00,,---,0.00,VWS V14.01,2013-04-25 23:33:00,
2013-04-25 18:34:00,73.4,31.1,25.37,SE,135,29.1,29.1,21,0.00,,---,0.00,VWS V14.01,2013-04-25 23:34:00,
2013-04-25 18:35:00,73.2,31.0,25.37,SE,135,17.7,29.1,21,0.00,,---,0.00,VWS V14.01,2013-04-25 23:35:00,
2013-04-25 18:36:00,73.4,31.1,25.37,SE,135,19.5,22.6,21,0.00,,---,0.00,VWS V14.01,2013-04-25 23:36:00,
2013-04-25 18:37:00,73.4,31.1,25.37,SSE,158,17.2,19.9,21,0.00,,---,0.00,VWS V14.01,2013-04-25 23:37:00,
2013-04-25 18:38:00,73.4,31.1,25.37,South,180,19.5,23.9,21,0.00,,---,0.00,VWS V14.01,2013-04-25 23:38:00,
2013-04-25 18:39:00,73.2,32.1,25.37,SE,135,15.7,29.8,22,0.00,,---,0.00,VWS V14.01,2013-04-25 23:39:00,
2013-04-25 18:40:00,73.2,32.1,25.37,SE,135,22.2,22.2,22,0.00,,---,0.00,VWS V14.01,2013-04-25 23:40:00,
2013-04-25 18:41:00,73.0,32.0,25.37,SE,135,21.0,22.8,22,0.00,,---,0.00,VWS V14.01,2013-04-25 23:41:00,
2013-04-25 18:42:00,73.0,32.0,25.37,ESE,112,27.7,27.7,22,0.00,,---,0.00,VWS V14.01,2013-04-25 23:42:00,
2013-04-25 18:43:00,72.7,31.7,25.37,SE,135,22.4,22.4,22,0.00,,---,0.00,VWS V14.01,2013-04-25 23:43:00,
2013-04-25 18:44:00,72.7,31.7,25.37,SE,135,12.8,22.4,22,0.00,,---,0.00,VWS V14.01,2013-04-25 23:44:00,
2013-04-25 18:46:00,72.7,31.7,25.37,SSE,158,18.6,18.6,22,0.00,,---,0.00,VWS V14.01,2013-04-25 23:46:00,
2013-04-25 18:47:00,72.5,31.5,25.37,SE,135,20.4,22.8,22,0.00,,---,0.00,VWS V14.01,2013-04-25 23:47:00,
2013-04-25 18:48:00,72.5,31.5,25.37,SSE,158,24.4,24.4,22,0.00,,---,0.00,VWS V14.01,2013-04-25 23:48:00,
2013-04-25 18:49:00,72.3,31.4,25.37,SE,135,17.0,24.6,22,0.00,,---,0.00,VWS V14.01,2013-04-25 23:49:00,
2013-04-25 18:50:00,72.3,31.4,25.37,SSE,158,25.3,25.3,22,0.00,,---,0.00,VWS V14.01,2013-04-25 23:50:00,
2013-04-25 18:51:00,72.1,31.2,25.37,SE,135,17.7,26.2,22,0.00,,---,0.00,VWS V14.01,2013-04-25 23:51:00,
2013-04-25 18:52:00,72.1,31.2,25.37,SE,135,12.8,17.7,22,0.00,,---,0.00,VWS V14.01,2013-04-25 23:52:00,
2013-04-25 18:53:00,72.0,31.1,25.37,South,180,13.0,16.1,22,0.00,,---,0.00,VWS V14.01,2013-04-25 23:53:00,
2013-04-25 18:54:00,71.8,30.9,25.34,SE,135,13.2,25.7,22,0.00,,---,0.00,VWS V14.01,2013-04-25 23:54:00,
2013-04-25 18:55:00,71.8,30.9,25.34,ESE,112,19.7,19.7,22,0.00,,---,0.00,VWS V14.01,2013-04-25 23:55:00,
2013-04-25 18:56:00,71.6,30.8,25.34,ESE,112,15.2,20.4,22,0.00,,---,0.00,VWS V14.01,2013-04-25 23:56:00,
2013-04-25 18:57:00,71.6,30.8,25.34,SE,135,12.3,17.7,22,0.00,,---,0.00,VWS V14.01,2013-04-25 23:57:00,
2013-04-25 18:58:00,71.6,30.8,25.34,ESE,112,13.6,13.6,22,0.00,,---,0.00,VWS V14.01,2013-04-25 23:58:00,
2013-04-25 18:59:00,71.4,30.6,25.34,South,180,13.0,15.4,22,0.00,,---,0.00,VWS V14.01,2013-04-25 23:59:00,
2013-04-25 19:00:00,71.2,30.5,25.34,ESE,112,14.3,19.7,22,0.00,,---,0.00,VWS V14.01,2013-04-26 00:00:00,
2013-04-25 19:01:00,71.2,30.5,25.34,ESE,112,12.8,15.2,22,0.00,,---,0.00,VWS V14.01,2013-04-26 00:01:00,
2013-04-25 19:02:00,71.1,30.3,25.34,ESE,112,15.7,23.9,22,0.00,,---,0.00,VWS V14.01,2013-04-26 00:02:00,
2013-04-25 19:03:00,70.9,30.2,25.34,SE,135,19.0,19.0,22,0.00,,---,0.00,VWS V14.01,2013-04-26 00:03:00,
2013-04-25 19:04:00,70.9,30.2,25.34,SSW,202,18.6,19.0,22,0.00,,---,0.00,VWS V14.01,2013-04-26 00:04:00,
2013-04-25 19:05:00,70.9,30.2,25.34,SSE,158,17.2,20.4,22,0.00,,---,0.00,VWS V14.01,2013-04-26 00:05:00,
2013-04-25 19:06:00,70.7,30.0,25.34,ESE,112,13.2,17.2,22,0.00,,---,0.00,VWS V14.01,2013-04-26 00:06:00,
2013-04-25 19:07:00,70.7,30.0,25.34,SE,135,14.5,20.6,22,0.00,,---,0.00,VWS V14.01,2013-04-26 00:07:00,
2013-04-25 19:08:00,70.5,29.9,25.34,East,90,13.0,17.2,22,0.00,,---,0.00,VWS V14.01,2013-04-26 00:08:00,
2013-04-25 19:09:00,70.3,29.7,25.37,ESE,112,14.1,17.5,22,0.00,,---,0.00,VWS V14.01,2013-04-26 00:09:00,
2013-04-25 19:10:00,70.2,29.6,25.37,ESE,112,17.7,17.7,22,0.00,,---,0.00,VWS V14.01,2013-04-26 00:10:00,
2013-04-25 19:11:00,70.2,29.6,25.37,South,180,17.7,17.7,22,0.00,,---,0.00,VWS V14.01,2013-04-26 00:11:00,
2013-04-25 19:13:00,70.2,29.6,25.37,SE,135,13.2,17.7,22,0.00,,---,0.00,VWS V14.01,2013-04-26 00:13:00,
2013-04-25 19:14:00,69.6,30.2,25.37,WSW,248,15.2,17.7,23,0.00,,---,0.00,VWS V14.01,2013-04-26 00:14:00,
2013-04-25 19:15:00,69.4,30.1,25.37,SSE,158,22.2,22.2,23,0.00,,---,0.00,VWS V14.01,2013-04-26 00:15:00,
2013-04-25 19:16:00,69.3,29.9,25.37,SSE,158,17.2,22.6,23,0.00,,---,0.00,VWS V14.01,2013-04-26 00:16:00,
2013-04-25 19:17:00,69.1,29.8,25.37,ESE,112,19.7,21.0,23,0.00,,---,0.00,VWS V14.01,2013-04-26 00:17:00,
2013-04-25 19:18:00,69.1,29.8,25.37,ESE,112,15.7,23.5,23,0.00,,---,0.00,VWS V14.01,2013-04-26 00:18:00,
2013-04-25 19:19:00,68.9,29.6,25.37,ESE,112,22.4,22.4,23,0.00,,---,0.00,VWS V14.01,2013-04-26 00:19:00,
2013-04-25 19:20:00,68.7,29.5,25.37,SSE,158,22.2,22.8,23,0.00,,---,0.00,VWS V14.01,2013-04-26 00:20:00,
2013-04-25 19:21:00,68.7,29.5,25.37,ESE,112,13.0,22.2,23,0.00,,---,0.00,VWS V14.01,2013-04-26 00:21:00,
2013-04-25 19:22:00,68.5,29.3,25.37,ESE,112,16.3,17.9,23,0.00,,---,0.00,VWS V14.01,2013-04-26 00:22:00,
2013-04-25 19:23:00,68.4,29.1,25.37,South,180,14.1,19.2,23,0.00,,---,0.00,VWS V14.01,2013-04-26 00:23:00,
2013-04-25 19:24:00,68.4,29.1,25.37,ESE,112,12.8,18.6,23,0.00,,---,0.00,VWS V14.01,2013-04-26 00:24:00,
2013-04-25 19:25:00,68.2,29.0,25.37,SSE,158,7.8,7.8,23,0.00,,---,0.00,VWS V14.01,2013-04-26 00:25:00,
2013-04-25 19:26:00,68.2,29.0,25.37,ESE,112,17.7,17.7,23,0.00,,---,0.00,VWS V14.01,2013-04-26 00:26:00,
2013-04-25 19:27:00,68.2,29.0,25.37,ESE,112,17.7,17.7,23,0.00,,---,0.00,VWS V14.01,2013-04-26 00:27:00,
2013-04-25 19:28:00,68.2,29.0,25.37,ESE,112,15.4,18.8,23,0.00,,---,0.00,VWS V14.01,2013-04-26 00:28:00,
2013-04-25 19:29:00,67.8,29.7,25.37,SE,135,16.3,17.5,24,0.00,,---,0.00,VWS V14.01,2013-04-26 00:29:00,
2013-04-25 19:30:00,67.6,29.6,25.37,SW,225,13.4,19.9,24,0.00,,---,0.00,VWS V14.01,2013-04-26 00:30:00,
2013-04-25 19:31:00,67.5,29.4,25.37,SE,135,15.9,23.9,24,0.00,,---,0.00,VWS V14.01,2013-04-26 00:31:00,
2013-04-25 19:32:00,67.5,29.4,25.37,SE,135,19.9,19.9,24,0.00,,---,0.00,VWS V14.01,2013-04-26 00:32:00,
2013-04-25 19:33:00,67.5,29.4,25.37,SE,135,23.0,23.3,24,0.00,,---,0.00,VWS V14.01,2013-04-26 00:33:00,
2013-04-25 19:34:00,67.5,29.4,25.37,SE,135,15.4,23.0,24,0.00,,---,0.00,VWS V14.01,2013-04-26 00:34:00,
2013-04-25 19:35:00,67.5,29.4,25.37,SE,135,24.2,24.2,24,0.00,,---,0.00,VWS V14.01,2013-04-26 00:35:00,
2013-04-25 19:36:00,67.3,29.3,25.37,SE,135,18.8,24.2,24,0.00,,---,0.00,VWS V14.01,2013-04-26 00:36:00,
2013-04-25 19:37:00,67.1,29.1,25.37,ESE,112,21.3,21.3,24,0.00,,---,0.00,VWS V14.01,2013-04-26 00:37:00,
2013-04-25 19:38:00,67.1,29.1,25.37,SE,135,14.8,21.3,24,0.00,,---,0.00,VWS V14.01,2013-04-26 00:38:00,
2013-04-25 19:39:00,66.9,29.0,25.37,SE,135,17.2,17.2,24,0.00,,---,0.00,VWS V14.01,2013-04-26 00:39:00,
2013-04-25 19:40:00,66.9,29.0,25.37,East,90,18.8,22.4,24,0.00,,---,0.00,VWS V14.01,2013-04-26 00:40:00,
2013-04-25 19:42:00,66.7,28.8,25.37,ESE,112,13.0,19.7,24,0.00,,---,0.00,VWS V14.01,2013-04-26 00:42:00,
2013-04-25 19:43:00,66.7,28.8,25.37,SSE,158,19.9,19.9,24,0.00,,---,0.00,VWS V14.01,2013-04-26 00:43:00,
2013-04-25 19:44:00,66.7,28.8,25.37,SE,135,21.3,21.3,24,0.00,,---,0.00,VWS V14.01,2013-04-26 00:44:00,
2013-04-25 19:45:00,66.9,29.0,25.37,SSE,158,15.2,21.3,24,0.00,,---,0.00,VWS V14.01,2013-04-26 00:45:00,
2013-04-25 19:46:00,66.7,28.8,25.37,ESE,112,19.9,24.4,24,0.00,,---,0.00,VWS V14.01,2013-04-26 00:46:00,
2013-04-25 19:47:00,66.7,28.8,25.37,ESE,112,19.0,19.9,24,0.00,,---,0.00,VWS V14.01,2013-04-26 00:47:00,
2013-04-25 19:48:00,66.7,28.8,25.37,South,180,24.2,24.2,24,0.00,,---,0.00,VWS V14.01,2013-04-26 00:48:00,
2013-04-25 19:49:00,66.9,29.0,25.37,SE,135,16.1,16.1,24,0.00,,---,0.00,VWS V14.01,2013-04-26 00:49:00,
2013-04-25 19:50:00,66.9,29.0,25.37,ESE,112,25.1,25.1,24,0.00,,---,0.00,VWS V14.01,2013-04-26 00:50:00,
2013-04-25 19:51:00,66.7,28.8,25.37,SE,135,17.5,25.1,24,0.00,,---,0.00,VWS V14.01,2013-04-26 00:51:00,
2013-04-25 19:52:00,66.7,29.8,25.37,ESE,112,19.7,23.3,25,0.00,,---,0.00,VWS V14.01,2013-04-26 00:52:00,
2013-04-25 19:53:00,66.6,29.7,25.37,ESE,112,16.3,23.3,25,0.00,,---,0.00,VWS V14.01,2013-04-26 00:53:00,
2013-04-25 19:54:00,66.4,29.5,25.37,SE,135,20.4,22.4,25,0.00,,---,0.00,VWS V14.01,2013-04-26 00:54:00,
2013-04-25 19:55:00,66.2,29.4,25.37,SE,135,17.7,20.4,25,0.00,,---,0.00,VWS V14.01,2013-04-26 00:55:00,
2013-04-25 19:56:00,66.2,29.4,25.37,ESE,112,17.5,21.3,25,0.00,,---,0.00,VWS V14.01,2013-04-26 00:56:00,
2013-04-25 19:57:00,66.0,30.2,25.37,SSE,158,17.9,19.2,26,0.00,,---,0.00,VWS V14.01,2013-04-26 00:57:00,
2013-04-25 19:59:00,65.8,30.0,25.37,SSE,158,25.5,25.5,26,0.00,,---,0.00,VWS V14.01,2013-04-26 00:59:00,
2013-04-25 20:00:00,65.7,29.9,25.37,SSE,158,17.0,25.5,26,0.00,,---,0.00,VWS V14.01,2013-04-26 01:00:00,
2013-04-25 20:01:00,65.7,29.9,25.37,ENE,68,13.9,21.5,26,0.00,,---,0.00,VWS V14.01,2013-04-26 01:01:00,
2013-04-25 20:02:00,65.7,29.9,25.37,SE,135,17.0,17.0,26,0.00,,---,0.00,VWS V14.01,2013-04-26 01:02:00,
2013-04-25 20:03:00,65.5,30.6,25.37,SE,135,12.1,22.6,27,0.00,,---,0.00,VWS V14.01,2013-04-26 01:03:00,
2013-04-25 20:04:00,65.5,30.6,25.37,ESE,112,11.0,21.3,27,0.00,,---,0.00,VWS V14.01,2013-04-26 01:04:00,
2013-04-25 20:05:00,65.5,30.6,25.37,SSE,158,24.2,28.6,27,0.00,,---,0.00,VWS V14.01,2013-04-26 01:05:00,
2013-04-25 20:06:00,65.5,30.6,25.37,ESE,112,19.9,26.0,27,0.00,,---,0.00,VWS V14.01,2013-04-26 01:06:00,
2013-04-25 20:07:00,65.3,30.5,25.37,SE,135,19.9,19.9,27,0.00,,---,0.00,VWS V14.01,2013-04-26 01:07:00,
2013-04-25 20:08:00,65.5,30.6,25.37,SE,135,27.1,27.1,27,0.00,,---,0.00,VWS V14.01,2013-04-26 01:08:00,
2013-04-25 20:10:00,65.7,30.8,25.37,SSE,158,12.5,27.1,27,0.00,,---,0.00,VWS V14.01,2013-04-26 01:10:00,
2013-04-25 20:11:00,65.7,30.8,25.37,SE,135,24.6,26.4,27,0.00,,---,0.00,VWS V14.01,2013-04-26 01:11:00,
2013-04-25 20:12:00,65.7,30.8,25.37,South,180,21.9,24.6,27,0.00,,---,0.00,VWS V14.01,2013-04-26 01:12:00,
2013-04-25 20:13:00,65.5,30.6,25.37,SSE,158,15.2,21.9,27,0.00,,---,0.00,VWS V14.01,2013-04-26 01:13:00,
2013-04-25 20:14:00,65.5,30.6,25.37,ESE,112,12.5,19.9,27,0.00,,---,0.00,VWS V14.01,2013-04-26 01:14:00,
2013-04-25 20:15:00,65.5,30.6,25.37,SSE,158,16.6,16.6,27,0.00,,---,0.00,VWS V14.01,2013-04-26 01:15:00,
2013-04-25 20:16:00,65.7,30.8,25.37,SSW,202,22.4,23.9,27,0.00,,---,0.00,VWS V14.01,2013-04-26 01:16:00,
2013-04-25 20:17:00,65.5,30.6,25.37,SSE,158,15.4,25.1,27,0.00,,---,0.00,VWS V14.01,2013-04-26 01:17:00,
2013-04-25 20:18:00,65.3,30.5,25.37,SE,135,25.7,25.7,27,0.00,,---,0.00,VWS V14.01,2013-04-26 01:18:00,
2013-04-25 20:19:00,65.3,30.5,25.37,SSE,158,28.4,28.4,27,0.00,,---,0.00,VWS V14.01,2013-04-26 01:19:00,
2013-04-25 20:20:00,64.8,30.9,25.37,SE,135,19.7,28.4,28,0.00,,---,0.00,VWS V14.01,2013-04-26 01:20:00,
2013-04-25 20:21:00,64.4,30.6,25.37,SSE,158,11.2,20.6,28,0.00,,---,0.00,VWS V14.01,2013-04-26 01:21:00,
2013-04-25 20:22:00,64.2,31.3,25.37,SE,135,14.5,19.7,29,0.00,,---,0.00,VWS V14.01,2013-04-26 01:22:00,
2013-04-25 20:23:00,64.0,31.2,25.37,SSE,158,22.2,22.2,29,0.00,,---,0.00,VWS V14.01,2013-04-26 01:23:00,
2013-04-25 20:24:00,64.0,31.2,25.37,ESE,112,21.3,21.3,29,0.00,,---,0.00,VWS V14.01,2013-04-26 01:24:00,
2013-04-25 20:25:00,64.2,31.3,25.37,SSE,158,14.1,21.3,29,0.00,,---,0.00,VWS V14.01,2013-04-26 01:25:00,
2013-04-25 20:26:00,64.0,32.0,25.37,SE,135,19.0,19.7,30,0.00,,---,0.00,VWS V14.01,2013-04-26 01:26:00,
2013-04-25 20:27:00,63.9,32.7,25.37,SE,135,17.7,24.6,31,0.00,,---,0.00,VWS V14.01,2013-04-26 01:27:00,
2013-04-25 20:28:00,63.9,32.7,25.37,South,180,17.7,17.7,31,0.00,,---,0.00,VWS V14.01,2013-04-26 01:28:00,
2013-04-25 20:29:00,63.7,32.5,25.37,SSE,158,17.0,24.6,31,0.00,,---,0.00,VWS V14.01,2013-04-26 01:29:00,
2013-04-25 20:30:00,63.5,32.3,25.37,SSE,158,16.6,19.7,31,0.00,,---,0.00,VWS V14.01,2013-04-26 01:30:00,
2013-04-25 20:31:00,63.5,32.3,25.37,South,180,24.4,24.4,31,0.00,,---,0.00,VWS V14.01,2013-04-26 01:31:00,
2013-04-25 20:32:00,64.2,32.2,25.37,SSE,158,23.0,24.4,30,0.00,,---,0.00,VWS V14.01,2013-04-26 01:32:00,
2013-04-25 20:33:00,64.6,32.5,25.37,SE,135,13.2,26.0,30,0.00,,---,0.00,VWS V14.01,2013-04-26 01:33:00,
2013-04-25 20:34:00,64.6,32.5,25.37,South,180,15.7,18.1,30,0.00,,---,0.00,VWS V14.01,2013-04-26 01:34:00,
2013-04-25 20:35:00,64.4,32.3,25.37,SSE,158,17.2,19.0,30,0.00,,---,0.00,VWS V14.01,2013-04-26 01:35:00,
2013-04-25 20:36:00,64.4,32.3,25.37,South,180,23.0,23.0,30,0.00,,---,0.00,VWS V14.01,2013-04-26 01:36:00,
2013-04-25 20:37:00,64.4,32.3,25.37,SE,135,12.8,23.0,30,0.00,,---,0.00,VWS V14.01,2013-04-26 01:37:00,
2013-04-25 20:38:00,63.7,33.3,25.37,SSE,158,19.5,19.5,32,0.00,,---,0.00,VWS V14.01,2013-04-26 01:38:00,
2013-04-25 20:39:00,63.3,33.8,25.34,SSE,158,19.9,19.9,33,0.00,,---,0.00,VWS V14.01,2013-04-26 01:39:00,
2013-04-25 20:40:00,63.3,33.8,25.34,South,180,23.5,23.5,33,0.00,,---,0.00,VWS V14.01,2013-04-26 01:40:00,
2013-04-25 20:41:00,63.1,33.6,25.34,South,180,23.5,23.5,33,0.00,,---,0.00,VWS V14.01,2013-04-26 01:41:00,
2013-04-25 20:42:00,63.1,33.6,25.34,SSE,158,16.1,17.7,33,0.00,,---,0.00,VWS V14.01,2013-04-26 01:42:00,
2013-04-25 20:43:00,62.8,33.3,25.34,SSW,202,15.9,17.7,33,0.00,,---,0.00,VWS V14.01,2013-04-26 01:43:00,
2013-04-25 20:44:00,62.6,33.9,25.34,SE,135,14.5,24.6,34,0.00,,---,0.00,VWS V14.01,2013-04-26 01:44:00,
2013-04-25 20:45:00,62.6,33.9,25.34,South,180,21.9,21.9,34,0.00,,---,0.00,VWS V14.01,2013-04-26 01:45:00,
2013-04-25 20:46:00,62.6,33.9,25.34,SE,135,17.2,21.9,34,0.00,,---,0.00,VWS V14.01,2013-04-26 01:46:00,
2013-04-25 20:47:00,62.4,33.7,25.34,East,90,21.9,21.9,34,0.00,,---,0.00,VWS V14.01,2013-04-26 01:47:00,
2013-04-25 20:48:00,62.4,33.7,25.34,SE,135,14.1,21.9,34,0.00,,---,0.00,VWS V14.01,2013-04-26 01:48:00,
2013-04-25 20:49:00,62.2,33.5,25.34,SSE,158,15.7,15.7,34,0.00,,---,0.00,VWS V14.01,2013-04-26 01:49:00,
2013-04-25 20:50:00,62.2,33.5,25.34,SSE,158,17.0,17.0,34,0.00,,---,0.00,VWS V14.01,2013-04-26 01:50:00,
2013-04-25 20:51:00,62.1,33.4,25.34,SSE,158,14.8,17.0,34,0.00,,---,0.00,VWS V14.01,2013-04-26 01:51:00,
2013-04-25 20:52:00,62.1,33.4,25.34,ESE,112,13.2,14.8,34,0.00,,---,0.00,VWS V14.01,2013-04-26 01:52:00,
2013-04-25 20:53:00,61.7,33.8,25.34,ESE,112,16.8,16.8,35,0.00,,---,0.00,VWS V14.01,2013-04-26 01:53:00,
2013-04-25 20:54:00,61.7,33.8,25.39,South,180,13.2,17.2,35,0.00,,---,0.00,VWS V14.01,2013-04-26 01:54:00,
2013-04-25 20:55:00,61.5,33.6,25.39,SE,135,13.0,13.2,35,0.00,,---,0.00,VWS V14.01,2013-04-26 01:55:00,
2013-04-25 20:56:00,61.5,33.6,25.39,ESE,112,7.8,13.0,35,0.00,,---,0.00,VWS V14.01,2013-04-26 01:56:00,
2013-04-25 20:57:00,61.5,33.6,25.39,ESE,112,10.7,10.7,35,0.00,,---,0.00,VWS V14.01,2013-04-26 01:57:00,
2013-04-25 20:58:00,61.7,33.8,25.39,ESE,112,5.8,10.7,35,0.00,,---,0.00,VWS V14.01,2013-04-26 01:58:00,
2013-04-25 20:59:00,61.7,33.8,25.39,ENE,68,4.3,6.5,35,0.00,,---,0.00,VWS V14.01,2013-04-26 01:59:00,
2013-04-25 21:00:00,61.7,33.8,25.39,NNW,338,6.3,6.3,35,0.00,,---,0.00,VWS V14.01,2013-04-26 02:00:00,
2013-04-25 21:01:00,61.5,33.6,25.39,NNW,338,5.4,6.3,35,0.00,,---,0.00,VWS V14.01,2013-04-26 02:01:00,
2013-04-25 21:02:00,61.5,33.6,25.39,WNW,292,7.2,8.7,35,0.00,,---,0.00,VWS V14.01,2013-04-26 02:02:00,
2013-04-25 21:03:00,61.3,33.5,25.39,NNW,338,5.8,7.4,35,0.00,,---,0.00,VWS V14.01,2013-04-26 02:03:00,
2013-04-25 21:04:00,61.2,33.3,25.39,NE,45,7.4,7.6,35,0.00,,---,0.00,VWS V14.01,2013-04-26 02:04:00,
2013-04-25 21:05:00,61.2,33.3,25.39,NNE,22,10.1,10.1,35,0.00,,---,0.00,VWS V14.01,2013-04-26 02:05:00,
2013-04-25 21:07:00,60.6,33.5,25.39,NE,45,9.0,12.3,36,0.00,,---,0.00,VWS V14.01,2013-04-26 02:07:00,
2013-04-25 21:09:00,60.3,33.2,25.39,ENE,68,10.5,13.0,36,0.00,,---,0.00,VWS V14.01,2013-04-26 02:09:00,
2013-04-25 21:10:00,60.3,33.2,25.39,ENE,68,10.1,10.5,36,0.00,,---,0.00,VWS V14.01,2013-04-26 02:10:00,
2013-04-25 21:11:00,59.5,33.3,25.42,ENE,68,10.3,10.3,37,0.00,,---,0.00,VWS V14.01,2013-04-26 02:11:00,
2013-04-25 21:12:00,59.4,33.1,25.42,East,90,5.8,10.3,37,0.00,,---,0.00,VWS V14.01,2013-04-26 02:12:00,
2013-04-25 21:13:00,59.4,33.8,25.42,East,90,13.4,13.4,38,0.00,,---,0.00,VWS V14.01,2013-04-26 02:13:00,
2013-04-25 21:14:00,59.2,33.6,25.42,East,90,10.3,13.4,38,0.00,,---,0.00,VWS V14.01,2013-04-26 02:14:00,
2013-04-25 21:15:00,59.4,33.8,25.42,ENE,68,7.8,10.3,38,0.00,,---,0.00,VWS V14.01,2013-04-26 02:15:00,
2013-04-25 21:16:00,59.4,33.8,25.42,ESE,112,6.5,7.8,38,0.00,,---,0.00,VWS V14.01,2013-04-26 02:16:00,
2013-04-25 21:17:00,59.4,33.8,25.42,East,90,9.6,9.8,38,0.00,,---,0.00,VWS V14.01,2013-04-26 02:17:00,
2013-04-25 21:18:00,59.0,33.5,25.42,East,90,12.5,12.5,38,0.00,,---,0.00,VWS V14.01,2013-04-26 02:18:00,
2013-04-25 21:19:00,59.0,34.1,25.42,East,90,12.5,12.5,39,0.00,,---,0.00,VWS V14.01,2013-04-26 02:19:00,
2013-04-25 21:20:00,58.8,33.9,25.42,East,90,9.8,12.5,39,0.00,,---,0.00,VWS V14.01,2013-04-26 02:20:00,
2013-04-25 21:21:00,58.8,33.9,25.42,East,90,10.5,12.5,39,0.00,,---,0.00,VWS V14.01,2013-04-26 02:21:00,
2013-04-25 21:22:00,58.8,33.9,25.42,ESE,112,17.2,17.7,39,0.00,,---,0.00,VWS V14.01,2013-04-26 02:22:00,
2013-04-25 21:25:00,58.8,33.9,25.42,ESE,112,13.0,17.2,39,0.00,,---,0.00,VWS V14.01,2013-04-26 02:25:00,
2013-04-25 21:26:00,58.3,34.1,25.42,ESE,112,19.5,19.5,40,0.00,,---,0.00,VWS V14.01,2013-04-26 02:26:00,
2013-04-25 21:27:00,58.1,33.9,25.42,ESE,112,20.6,20.6,40,0.00,,---,0.00,VWS V14.01,2013-04-26 02:27:00,
2013-04-25 21:28:00,58.1,34.5,25.42,ESE,112,14.3,20.6,41,0.00,,---,0.00,VWS V14.01,2013-04-26 02:28:00,
2013-04-25 21:29:00,58.1,34.5,25.42,ESE,112,11.0,14.3,41,0.00,,---,0.00,VWS V14.01,2013-04-26 02:29:00,
2013-04-25 21:30:00,58.1,34.5,25.42,ESE,112,15.2,15.2,41,0.00,,---,0.00,VWS V14.01,2013-04-26 02:30:00,
2013-04-25 21:31:00,58.1,34.5,25.42,ESE,112,12.1,15.4,41,0.00,,---,0.00,VWS V14.01,2013-04-26 02:31:00,
2013-04-25 21:32:00,58.1,34.5,25.42,ESE,112,12.1,15.7,41,0.00,,---,0.00,VWS V14.01,2013-04-26 02:32:00,
2013-04-25 21:33:00,57.9,34.4,25.42,ESE,112,14.1,14.1,41,0.00,,---,0.00,VWS V14.01,2013-04-26 02:33:00,
2013-04-25 21:34:00,57.9,35.0,25.42,ESE,112,12.1,17.2,42,0.00,,---,0.00,VWS V14.01,2013-04-26 02:34:00,
2013-04-25 21:35:00,57.9,35.0,25.42,East,90,10.7,12.5,42,0.00,,---,0.00,VWS V14.01,2013-04-26 02:35:00,
2013-04-25 21:36:00,57.7,34.8,25.42,ESE,112,10.7,12.1,42,0.00,,---,0.00,VWS V14.01,2013-04-26 02:36:00,
2013-04-25 21:38:00,57.7,34.8,25.42,ESE,112,11.4,11.4,42,0.00,,---,0.00,VWS V14.01,2013-04-26 02:38:00,
2013-04-25 21:39:00,57.7,34.8,25.42,ESE,112,8.7,12.1,42,0.00,,---,0.00,VWS V14.01,2013-04-26 02:39:00,
2013-04-25 21:40:00,57.7,34.8,25.42,ESE,112,7.8,8.7,42,0.00,,---,0.00,VWS V14.01,2013-04-26 02:40:00,
2013-04-25 21:41:00,57.7,34.8,25.42,ESE,112,7.8,7.8,42,0.00,,---,0.00,VWS V14.01,2013-04-26 02:41:00,
2013-04-25 21:42:00,57.7,34.8,25.42,ESE,112,5.8,7.8,42,0.00,,---,0.00,VWS V14.01,2013-04-26 02:42:00,
2013-04-25 21:43:00,57.7,34.8,25.42,ESE,112,7.2,8.7,42,0.00,,---,0.00,VWS V14.01,2013-04-26 02:43:00,
2013-04-25 21:44:00,57.7,34.8,25.42,ESE,112,9.0,9.2,42,0.00,,---,0.00,VWS V14.01,2013-04-26 02:44:00,
2013-04-25 21:45:00,57.7,34.8,25.42,SE,135,7.6,9.8,42,0.00,,---,0.00,VWS V14.01,2013-04-26 02:45:00,
2013-04-25 21:46:00,57.6,34.7,25.42,SSE,158,4.9,7.6,42,0.00,,---,0.00,VWS V14.01,2013-04-26 02:46:00,
2013-04-25 21:47:00,57.6,34.7,25.42,SE,135,5.4,9.6,42,0.00,,---,0.00,VWS V14.01,2013-04-26 02:47:00,
2013-04-25 21:48:00,57.4,34.5,25.42,South,180,3.6,5.4,42,0.00,,---,0.00,VWS V14.01,2013-04-26 02:48:00,
2013-04-25 21:49:00,57.4,34.5,25.42,SE,135,4.9,5.8,42,0.00,,---,0.00,VWS V14.01,2013-04-26 02:49:00,
2013-04-25 21:50:00,57.2,34.3,25.42,South,180,3.8,4.9,42,0.00,,---,0.00,VWS V14.01,2013-04-26 02:50:00,
2013-04-25 21:51:00,57.2,34.3,25.42,SE,135,2.5,4.9,42,0.00,,---,0.00,VWS V14.01,2013-04-26 02:51:00,
2013-04-25 21:52:00,57.2,34.9,25.42,ESE,112,9.6,9.6,43,0.00,,---,0.00,VWS V14.01,2013-04-26 02:52:00,
2013-04-25 21:53:00,57.2,34.9,25.42,SE,135,10.7,10.7,43,0.00,,---,0.00,VWS V14.01,2013-04-26 02:53:00,
2013-04-25 21:54:00,57.0,35.3,25.42,ESE,112,6.5,10.7,44,0.00,,---,0.00,VWS V14.01,2013-04-26 02:54:00,
2013-04-25 21:55:00,57.0,35.3,25.42,SE,135,7.6,10.5,44,0.00,,---,0.00,VWS V14.01,2013-04-26 02:55:00,
2013-04-25 21:56:00,57.0,35.3,25.42,SE,135,12.5,12.5,44,0.00,,---,0.00,VWS V14.01,2013-04-26 02:56:00,
2013-04-25 21:57:00,57.0,35.3,25.42,ESE,112,5.6,12.5,44,0.00,,---,0.00,VWS V14.01,2013-04-26 02:57:00,
2013-04-25 21:58:00,56.8,35.2,25.42,SE,135,8.1,8.1,44,0.00,,---,0.00,VWS V14.01,2013-04-26 02:58:00,
2013-04-25 21:59:00,56.8,35.2,25.42,ESE,112,8.5,10.5,44,0.00,,---,0.00,VWS V14.01,2013-04-26 02:59:00,
2013-04-25 22:00:00,56.8,35.7,25.42,SSE,158,7.4,8.5,45,0.00,,---,0.00,VWS V14.01,2013-04-26 03:00:00,
2013-04-25 22:01:00,56.8,35.2,25.42,ESE,112,8.7,13.0,44,0.00,,---,0.00,VWS V14.01,2013-04-26 03:01:00,
2013-04-25 22:02:00,56.8,35.7,25.42,ESE,112,9.2,10.7,45,0.00,,---,0.00,VWS V14.01,2013-04-26 03:02:00,
2013-04-25 22:03:00,56.8,35.7,25.42,SE,135,6.5,9.2,45,0.00,,---,0.00,VWS V14.01,2013-04-26 03:03:00,
2013-04-25 22:04:00,56.8,35.7,25.42,SE,135,6.5,6.5,45,0.00,,---,0.00,VWS V14.01,2013-04-26 03:04:00,
2013-04-25 22:05:00,56.8,35.7,25.42,ESE,112,4.3,11.0,45,0.00,,---,0.00,VWS V14.01,2013-04-26 03:05:00,
2013-04-25 22:06:00,56.7,35.6,25.42,ESE,112,4.9,5.8,45,0.00,,---,0.00,VWS V14.01,2013-04-26 03:06:00,
2013-04-25 22:07:00,56.7,35.6,25.42,ESE,112,1.3,6.5,45,0.00,,---,0.00,VWS V14.01,2013-04-26 03:07:00,
2013-04-25 22:08:00,56.7,35.6,25.42,SE,135,4.0,4.0,45,0.00,,---,0.00,VWS V14.01,2013-04-26 03:08:00,
2013-04-25 22:09:00,56.5,35.4,25.42,ESE,112,5.4,5.4,45,0.00,,---,0.00,VWS V14.01,2013-04-26 03:09:00,
2013-04-25 22:10:00,56.5,35.4,25.42,ESE,112,4.9,4.9,45,0.00,,---,0.00,VWS V14.01,2013-04-26 03:10:00,
2013-04-25 22:11:00,56.5,35.4,25.42,ESE,112,6.3,6.3,45,0.00,,---,0.00,VWS V14.01,2013-04-26 03:11:00,
2013-04-25 22:12:00,56.3,35.2,25.42,ESE,112,4.3,7.8,45,0.00,,---,0.00,VWS V14.01,2013-04-26 03:12:00,
2013-04-25 22:13:00,56.3,35.2,25.42,ESE,112,4.0,4.3,45,0.00,,---,0.00,VWS V14.01,2013-04-26 03:13:00,
2013-04-25 22:14:00,56.3,35.2,25.42,ESE,112,5.8,6.3,45,0.00,,---,0.00,VWS V14.01,2013-04-26 03:14:00,
2013-04-25 22:15:00,56.3,35.2,25.42,East,90,2.7,5.8,45,0.00,,---,0.00,VWS V14.01,2013-04-26 03:15:00,
2013-04-25 22:16:00,56.3,35.2,25.42,SE,135,4.0,4.0,45,0.00,,---,0.00,VWS V14.01,2013-04-26 03:16:00,
2013-04-25 22:17:00,56.1,34.5,25.42,SSE,158,1.3,4.0,44,0.00,,---,0.00,VWS V14.01,2013-04-26 03:17:00,
2013-04-25 22:18:00,56.1,34.5,25.42,NNW,338,1.1,1.6,44,0.00,,---,0.00,VWS V14.01,2013-04-26 03:18:00,
2013-04-25 22:19:00,56.1,34.5,25.42,East,90,6.0,6.0,44,0.00,,---,0.00,VWS V14.01,2013-04-26 03:19:00,
2013-04-25 22:20:00,55.9,34.9,25.42,ENE,68,4.3,4.3,45,0.00,,---,0.00,VWS V14.01,2013-04-26 03:20:00,
2013-04-25 22:21:00,55.9,34.9,25.42,East,90,3.8,5.6,45,0.00,,---,0.00,VWS V14.01,2013-04-26 03:21:00,
2013-04-25 22:22:00,56.1,35.1,25.42,ENE,68,4.0,6.3,45,0.00,,---,0.00,VWS V14.01,2013-04-26 03:22:00,
2013-04-25 22:23:00,56.1,35.1,25.42,NE,45,3.4,4.0,45,0.00,,---,0.00,VWS V14.01,2013-04-26 03:23:00,
2013-04-25 22:25:00,56.1,35.1,25.42,NW,315,2.9,3.4,45,0.00,,---,0.00,VWS V14.01,2013-04-26 03:25:00,
2013-04-25 22:26:00,55.9,34.9,25.42,NNE,22,3.1,3.4,45,0.00,,---,0.00,VWS V14.01,2013-04-26 03:26:00,
2013-04-25 22:27:00,55.9,34.9,25.42,NW,315,3.4,3.4,45,0.00,,---,0.00,VWS V14.01,2013-04-26 03:27:00,
2013-04-25 22:28:00,55.9,34.9,25.42,North,0,3.8,3.8,45,0.00,,---,0.00,VWS V14.01,2013-04-26 03:28:00,
2013-04-25 22:29:00,55.9,34.9,25.42,NNW,338,3.4,3.8,45,0.00,,---,0.00,VWS V14.01,2013-04-26 03:29:00,
2013-04-25 22:30:00,55.9,35.5,25.42,NNW,338,4.3,4.3,46,0.00,,---,0.00,VWS V14.01,2013-04-26 03:30:00,
2013-04-25 22:31:00,55.9,34.9,25.42,NNW,338,4.7,5.6,45,0.00,,---,0.00,VWS V14.01,2013-04-26 03:31:00,
2013-04-25 22:32:00,55.9,34.9,25.42,NW,315,4.9,5.8,45,0.00,,---,0.00,VWS V14.01,2013-04-26 03:32:00,
2013-04-25 22:33:00,55.9,34.9,25.42,NNW,338,5.4,5.4,45,0.00,,---,0.00,VWS V14.01,2013-04-26 03:33:00,
2013-04-25 22:34:00,56.1,35.1,25.42,North,0,3.1,5.6,45,0.00,,---,0.00,VWS V14.01,2013-04-26 03:34:00,
2013-04-25 22:35:00,55.9,34.9,25.42,NW,315,4.0,4.0,45,0.00,,---,0.00,VWS V14.01,2013-04-26 03:35:00,
2013-04-25 22:36:00,55.9,34.9,25.42,NNW,338,6.5,6.5,45,0.00,,---,0.00,VWS V14.01,2013-04-26 03:36:00,
2013-04-25 22:37:00,56.1,35.1,25.42,NNE,22,4.5,6.5,45,0.00,,---,0.00,VWS V14.01,2013-04-26 03:37:00,
2013-04-25 22:38:00,56.1,35.1,25.42,NNW,338,4.0,5.4,45,0.00,,---,0.00,VWS V14.01,2013-04-26 03:38:00,
2013-04-25 22:39:00,56.1,35.6,25.42,West,270,5.6,5.6,46,0.00,,---,0.00,VWS V14.01,2013-04-26 03:39:00,
2013-04-25 22:40:00,56.1,35.6,25.42,NW,315,3.8,6.5,46,0.00,,---,0.00,VWS V14.01,2013-04-26 03:40:00,
2013-04-25 22:41:00,56.1,35.1,25.42,NW,315,3.4,3.8,45,0.00,,---,0.00,VWS V14.01,2013-04-26 03:41:00,
2013-04-25 22:42:00,56.1,35.1,25.42,NW,315,3.6,4.9,45,0.00,,---,0.00,VWS V14.01,2013-04-26 03:42:00,
2013-04-25 22:43:00,56.1,35.1,25.42,West,270,4.0,4.7,45,0.00,,---,0.00,VWS V14.01,2013-04-26 03:43:00,
2013-04-25 22:44:00,56.1,35.1,25.42,WNW,292,3.6,4.0,45,0.00,,---,0.00,VWS V14.01,2013-04-26 03:44:00,
2013-04-25 22:45:00,56.1,35.1,25.42,WNW,292,8.5,8.5,45,0.00,,---,0.00,VWS V14.01,2013-04-26 03:45:00,
2013-04-25 22:46:00,56.1,35.6,25.42,WNW,292,3.6,8.5,46,0.00,,---,0.00,VWS V14.01,2013-04-26 03:46:00,
2013-04-25 22:47:00,56.1,35.1,25.42,WNW,292,4.7,5.6,45,0.00,,---,0.00,VWS V14.01,2013-04-26 03:47:00,
2013-04-25 22:48:00,56.1,35.1,25.42,NW,315,6.0,6.0,45,0.00,,---,0.00,VWS V14.01,2013-04-26 03:48:00,
2013-04-25 22:49:00,56.1,35.6,25.42,WNW,292,6.3,6.3,46,0.00,,---,0.00,VWS V14.01,2013-04-26 03:49:00,
2013-04-25 22:50:00,55.9,35.5,25.42,West,270,3.6,6.5,46,0.00,,---,0.00,VWS V14.01,2013-04-26 03:50:00,
2013-04-25 22:51:00,55.9,34.9,25.42,WSW,248,4.0,4.0,45,0.00,,---,0.00,VWS V14.01,2013-04-26 03:51:00,
2013-04-25 22:52:00,55.9,34.9,25.42,SW,225,5.8,5.8,45,0.00,,---,0.00,VWS V14.01,2013-04-26 03:52:00,
2013-04-25 22:53:00,55.9,35.5,25.42,West,270,8.5,8.5,46,0.00,,---,0.00,VWS V14.01,2013-04-26 03:53:00,
2013-04-25 22:54:00,55.9,35.5,25.42,WNW,292,9.8,10.5,46,0.00,,---,0.00,VWS V14.01,2013-04-26 03:54:00,
2013-04-25 22:55:00,55.9,35.5,25.42,WNW,292,6.3,9.8,46,0.00,,---,0.00,VWS V14.01,2013-04-26 03:55:00,
2013-04-25 22:56:00,55.9,35.5,25.42,NW,315,5.8,5.8,46,0.00,,---,0.00,VWS V14.01,2013-04-26 03:56:00,
2013-04-25 22:57:00,55.9,35.5,25.42,West,270,5.4,5.8,46,0.00,,---,0.00,VWS V14.01,2013-04-26 03:57:00,
2013-04-25 22:58:00,55.9,35.5,25.42,WNW,292,8.7,9.2,46,0.00,,---,0.00,VWS V14.01,2013-04-26 03:58:00,
2013-04-25 22:59:00,55.9,35.5,25.42,West,270,12.5,12.5,46,0.00,,---,0.00,VWS V14.01,2013-04-26 03:59:00,
2013-04-25 23:01:00,56.3,35.8,25.42,WNW,292,5.8,12.5,46,0.00,,---,0.00,VWS V14.01,2013-04-26 04:01:00,
2013-04-25 23:02:00,56.3,35.2,25.42,NE,45,2.5,5.8,45,0.00,,---,0.00,VWS V14.01,2013-04-26 04:02:00,
2013-04-25 23:03:00,56.3,35.2,25.42,North,0,2.2,2.5,45,0.00,,---,0.00,VWS V14.01,2013-04-26 04:03:00,
2013-04-25 23:04:00,56.3,35.2,25.42,SE,135,1.6,2.2,45,0.00,,---,0.00,VWS V14.01,2013-04-26 04:04:00,
2013-04-25 23:05:00,56.3,35.2,25.42,SE,135,3.8,3.8,45,0.00,,---,0.00,VWS V14.01,2013-04-26 04:05:00,
2013-04-25 23:06:00,56.3,35.2,25.42,South,180,1.3,3.8,45,0.00,,---,0.00,VWS V14.01,2013-04-26 04:06:00,
2013-04-25 23:07:00,56.3,35.2,25.42,SSW,202,6.3,6.3,45,0.00,,---,0.00,VWS V14.01,2013-04-26 04:07:00,
2013-04-25 23:08:00,56.3,35.8,25.42,East,90,2.9,6.3,46,0.00,,---,0.00,VWS V14.01,2013-04-26 04:08:00,
2013-04-25 23:09:00,56.5,35.4,25.42,East,90,2.9,2.9,45,0.00,,---,0.00,VWS V14.01,2013-04-26 04:09:00,
2013-04-25 23:10:00,56.5,35.4,25.42,West,270,2.5,2.9,45,0.00,,---,0.00,VWS V14.01,2013-04-26 04:10:00,
2013-04-25 23:11:00,56.5,35.4,25.42,SW,225,1.6,3.1,45,0.00,,---,0.00,VWS V14.01,2013-04-26 04:11:00,
2013-04-25 23:12:00,56.7,35.6,25.42,SSE,158,3.1,3.1,45,0.00,,---,0.00,VWS V14.01,2013-04-26 04:12:00,
2013-04-25 23:13:00,56.5,35.4,25.42,ESE,112,4.0,4.0,45,0.00,,---,0.00,VWS V14.01,2013-04-26 04:13:00,
2013-04-25 23:14:00,56.5,35.4,25.42,SSE,158,7.6,7.6,45,0.00,,---,0.00,VWS V14.01,2013-04-26 04:14:00,
2013-04-25 23:15:00,56.7,36.1,25.42,East,90,6.0,8.7,46,0.00,,---,0.00,VWS V14.01,2013-04-26 04:15:00,
2013-04-25 23:16:00,56.7,35.6,25.42,ESE,112,6.5,6.5,45,0.00,,---,0.00,VWS V14.01,2013-04-26 04:16:00,
2013-04-25 23:17:00,56.8,35.7,25.42,East,90,9.8,9.8,45,0.00,,---,0.00,VWS V14.01,2013-04-26 04:17:00,
2013-04-25 23:18:00,56.8,35.7,25.42,ESE,112,4.3,13.2,45,0.00,,---,0.00,VWS V14.01,2013-04-26 04:18:00,
2013-04-25 23:19:00,56.8,35.7,25.42,ESE,112,11.4,11.4,45,0.00,,---,0.00,VWS V14.01,2013-04-26 04:19:00,
2013-04-25 23:20:00,57.0,35.9,25.42,ESE,112,9.4,13.2,45,0.00,,---,0.00,VWS V14.01,2013-04-26 04:20:00,
2013-04-25 23:21:00,57.0,35.9,25.42,ESE,112,9.8,9.8,45,0.00,,---,0.00,VWS V14.01,2013-04-26 04:21:00,
2013-04-25 23:22:00,57.0,35.9,25.42,ESE,112,7.4,13.2,45,0.00,,---,0.00,VWS V14.01,2013-04-26 04:22:00,
2013-04-25 23:23:00,57.0,35.9,25.42,ESE,112,11.0,12.1,45,0.00,,---,0.00,VWS V14.01,2013-04-26 04:23:00,
2013-04-25 23:24:00,57.0,35.9,25.42,ESE,112,6.9,11.0,45,0.00,,---,0.00,VWS V14.01,2013-04-26 04:24:00,
2013-04-25 23:25:00,57.0,35.9,25.42,SE,135,7.6,11.2,45,0.00,,---,0.00,VWS V14.01,2013-04-26 04:25:00,
2013-04-25 23:26:00,57.0,35.9,25.42,SE,135,5.6,11.2,45,0.00,,---,0.00,VWS V14.01,2013-04-26 04:26:00,
2013-04-25 23:27:00,56.8,35.7,25.42,SE,135,6.7,10.7,45,0.00,,---,0.00,VWS V14.01,2013-04-26 04:27:00,
2013-04-25 23:28:00,56.8,35.7,25.42,ESE,112,7.8,7.8,45,0.00,,---,0.00,VWS V14.01,2013-04-26 04:28:00,
2013-04-25 23:29:00,56.7,35.6,25.42,ESE,112,10.5,11.2,45,0.00,,---,0.00,VWS V14.01,2013-04-26 04:29:00,
2013-04-25 23:30:00,56.7,35.6,25.42,ESE,112,12.8,12.8,45,0.00,,---,0.00,VWS V14.01,2013-04-26 04:30:00,
2013-04-25 23:31:00,56.5,36.0,25.42,East,90,13.2,13.2,46,0.00,,---,0.00,VWS V14.01,2013-04-26 04:31:00,
2013-04-25 23:32:00,56.3,35.8,25.42,ESE,112,10.5,13.2,46,0.00,,---,0.00,VWS V14.01,2013-04-26 04:32:00,
2013-04-25 23:33:00,56.3,35.8,25.42,ESE,112,9.8,10.5,46,0.00,,---,0.00,VWS V14.01,2013-04-26 04:33:00,
2013-04-25 23:34:00,56.1,35.6,25.42,ESE,112,10.3,10.3,46,0.00,,---,0.00,VWS V14.01,2013-04-26 04:34:00,
2013-04-25 23:35:00,56.1,35.6,25.42,East,90,5.4,10.3,46,0.00,,---,0.00,VWS V14.01,2013-04-26 04:35:00,
2013-04-25 23:36:00,55.9,35.5,25.42,SE,135,7.8,7.8,46,0.00,,---,0.00,VWS V14.01,2013-04-26 04:36:00,
2013-04-25 23:37:00,55.9,35.5,25.42,SE,135,7.8,7.8,46,0.00,,---,0.00,VWS V14.01,2013-04-26 04:37:00,
2013-04-25 23:38:00,55.9,35.5,25.42,SE,135,5.8,7.8,46,0.00,,---,0.00,VWS V14.01,2013-04-26 04:38:00,
2013-04-25 23:39:00,55.9,35.5,25.42,South,180,3.6,8.5,46,0.00,,---,0.00,VWS V14.01,2013-04-26 04:39:00,
2013-04-25 23:40:00,55.9,36.0,25.42,South,180,8.1,8.1,47,0.00,,---,0.00,VWS V14.01,2013-04-26 04:40:00,
2013-04-25 23:41:00,55.9,36.0,25.42,SSE,158,5.4,8.1,47,0.00,,---,0.00,VWS V14.01,2013-04-26 04:41:00,
2013-04-25 23:42:00,56.1,36.2,25.42,South,180,5.4,5.4,47,0.00,,---,0.00,VWS V14.01,2013-04-26 04:42:00,
2013-04-25 23:43:00,56.1,36.2,25.42,South,180,5.8,8.1,47,0.00,,---,0.00,VWS V14.01,2013-04-26 04:43:00,
2013-04-25 23:44:00,56.1,36.2,25.42,SSE,158,7.6,7.6,47,0.00,,---,0.00,VWS V14.01,2013-04-26 04:44:00,
2013-04-25 23:45:00,56.1,36.2,25.42,SE,135,6.0,8.5,47,0.00,,---,0.00,VWS V14.01,2013-04-26 04:45:00,
2013-04-25 23:46:00,55.9,36.0,25.42,SE,135,8.7,10.7,47,0.00,,---,0.00,VWS V14.01,2013-04-26 04:46:00,
2013-04-25 23:47:00,55.9,36.0,25.42,SE,135,10.7,10.7,47,0.00,,---,0.00,VWS V14.01,2013-04-26 04:47:00,
2013-04-25 23:48:00,55.9,36.0,25.42,SSE,158,6.5,10.7,47,0.00,,---,0.00,VWS V14.01,2013-04-26 04:48:00,
2013-04-25 23:49:00,55.9,36.0,25.42,ESE,112,3.6,7.4,47,0.00,,---,0.00,VWS V14.01,2013-04-26 04:49:00,
2013-04-25 23:50:00,55.9,36.0,25.42,South,180,7.6,10.7,47,0.00,,---,0.00,VWS V14.01,2013-04-26 04:50:00,
2013-04-25 23:51:00,55.9,36.0,25.42,SE,135,7.8,7.8,47,0.00,,---,0.00,VWS V14.01,2013-04-26 04:51:00,
2013-04-25 23:52:00,55.9,36.0,25.42,ESE,112,6.3,7.8,47,0.00,,---,0.00,VWS V14.01,2013-04-26 04:52:00,
2013-04-25 23:53:00,55.9,36.0,25.42,SE,135,3.8,6.3,47,0.00,,---,0.00,VWS V14.01,2013-04-26 04:53:00,
2013-04-25 23:54:00,55.9,36.0,25.42,South,180,5.4,10.3,47,0.00,,---,0.00,VWS V14.01,2013-04-26 04:54:00,
2013-04-25 23:55:00,56.1,36.2,25.42,SSE,158,10.7,10.7,47,0.00,,---,0.00,VWS V14.01,2013-04-26 04:55:00,
2013-04-25 23:56:00,56.1,36.2,25.42,South,180,4.0,10.7,47,0.00,,---,0.00,VWS V14.01,2013-04-26 04:56:00,
2013-04-25 23:57:00,56.1,36.2,25.42,SSE,158,3.6,5.4,47,0.00,,---,0.00,VWS V14.01,2013-04-26 04:57:00,
2013-04-25 23:58:00,56.3,36.3,25.42,ESE,112,6.0,8.1,47,0.00,,---,0.00,VWS V14.01,2013-04-26 04:58:00,
2013-04-25 23:59:00,56.3,36.3,25.42,SSE,158,3.4,6.0,47,0.00,,---,0.00,VWS V14.01,2013-04-26 04:59:00,